<?xml version="1.0" encoding="UTF-8" standalone="no" ?>
<gpx xmlns="http://www.topografix.com/GPX/1/1" xmlns:xsi="http://www.w3.org/2001/XMLSchema-instance" xsi:schemaLocation="http://www.topografix.com/GPX/1/1 http://www.topografix.com/GPX/1/1/gpx.xsd" version="1.1" creator="VisuGPX - https://www.visugpx.com">
  <metadata>
    <name>Monte Specie (Strudelkopf)</name>
    <desc><![CDATA[Ponticello - Monte Specie (Strudelkopf)]]></desc>
  </metadata>
  <trk>
    <name><![CDATA[M_Specie_2016-02-26]]></name>
    <trkseg>
      <trkpt lat="46.67731" lon="12.14889">
        <ele>1507</ele>
        <time>2016-02-26T08:36:53Z</time>
      </trkpt>
      <trkpt lat="46.6773" lon="12.1489">
        <ele>1507</ele>
        <time>2016-02-26T08:36:54Z</time>
      </trkpt>
      <trkpt lat="46.67726" lon="12.14902">
        <ele>1507</ele>
        <time>2016-02-26T08:37:10Z</time>
      </trkpt>
      <trkpt lat="46.67725" lon="12.14902">
        <ele>1507</ele>
        <time>2016-02-26T08:37:11Z</time>
      </trkpt>
      <trkpt lat="46.67715" lon="12.14873">
        <ele>1507.48</ele>
        <time>2016-02-26T08:37:29Z</time>
      </trkpt>
      <trkpt lat="46.67712" lon="12.14863">
        <ele>1509.89</ele>
        <time>2016-02-26T08:37:36Z</time>
      </trkpt>
      <trkpt lat="46.67711" lon="12.14861">
        <ele>1508.93</ele>
        <time>2016-02-26T08:37:37Z</time>
      </trkpt>
      <trkpt lat="46.677" lon="12.14853">
        <ele>1509.41</ele>
        <time>2016-02-26T08:37:50Z</time>
      </trkpt>
      <trkpt lat="46.67689" lon="12.14845">
        <ele>1509.41</ele>
        <time>2016-02-26T08:38:04Z</time>
      </trkpt>
      <trkpt lat="46.67687" lon="12.1484">
        <ele>1509.41</ele>
        <time>2016-02-26T08:38:17Z</time>
      </trkpt>
      <trkpt lat="46.67686" lon="12.14841">
        <ele>1509.41</ele>
        <time>2016-02-26T08:38:39Z</time>
      </trkpt>
      <trkpt lat="46.67684" lon="12.1484">
        <ele>1509.41</ele>
        <time>2016-02-26T08:38:52Z</time>
      </trkpt>
      <trkpt lat="46.67684" lon="12.14843">
        <ele>1509.41</ele>
        <time>2016-02-26T08:38:54Z</time>
      </trkpt>
      <trkpt lat="46.67684" lon="12.14846">
        <ele>1508.93</ele>
        <time>2016-02-26T08:39:05Z</time>
      </trkpt>
      <trkpt lat="46.6768" lon="12.14842">
        <ele>1509.89</ele>
        <time>2016-02-26T08:39:25Z</time>
      </trkpt>
      <trkpt lat="46.6768" lon="12.14846">
        <ele>1509.89</ele>
        <time>2016-02-26T08:39:54Z</time>
      </trkpt>
      <trkpt lat="46.67689" lon="12.14842">
        <ele>1509.89</ele>
        <time>2016-02-26T08:40:37Z</time>
      </trkpt>
      <trkpt lat="46.67684" lon="12.14847">
        <ele>1509.89</ele>
        <time>2016-02-26T08:41:17Z</time>
      </trkpt>
      <trkpt lat="46.67681" lon="12.14845">
        <ele>1509.89</ele>
        <time>2016-02-26T08:41:58Z</time>
      </trkpt>
      <trkpt lat="46.67681" lon="12.14847">
        <ele>1509.41</ele>
        <time>2016-02-26T08:42:39Z</time>
      </trkpt>
      <trkpt lat="46.67683" lon="12.14846">
        <ele>1509.41</ele>
        <time>2016-02-26T08:43:16Z</time>
      </trkpt>
      <trkpt lat="46.67681" lon="12.1484">
        <ele>1509.41</ele>
        <time>2016-02-26T08:43:46Z</time>
      </trkpt>
      <trkpt lat="46.67677" lon="12.14838">
        <ele>1509.41</ele>
        <time>2016-02-26T08:44:20Z</time>
      </trkpt>
      <trkpt lat="46.67675" lon="12.14844">
        <ele>1509.41</ele>
        <time>2016-02-26T08:44:58Z</time>
      </trkpt>
      <trkpt lat="46.67676" lon="12.14845">
        <ele>1509.41</ele>
        <time>2016-02-26T08:45:38Z</time>
      </trkpt>
      <trkpt lat="46.67677" lon="12.14846">
        <ele>1509.41</ele>
        <time>2016-02-26T08:46:07Z</time>
      </trkpt>
      <trkpt lat="46.67677" lon="12.14843">
        <ele>1509.41</ele>
        <time>2016-02-26T08:46:42Z</time>
      </trkpt>
      <trkpt lat="46.67677" lon="12.14849">
        <ele>1509.89</ele>
        <time>2016-02-26T08:47:21Z</time>
      </trkpt>
      <trkpt lat="46.67676" lon="12.14842">
        <ele>1509.89</ele>
        <time>2016-02-26T08:48:04Z</time>
      </trkpt>
      <trkpt lat="46.67672" lon="12.14851">
        <ele>1510.37</ele>
        <time>2016-02-26T08:48:49Z</time>
      </trkpt>
      <trkpt lat="46.67672" lon="12.14852">
        <ele>1510.85</ele>
        <time>2016-02-26T08:49:24Z</time>
      </trkpt>
      <trkpt lat="46.6767" lon="12.14851">
        <ele>1512.29</ele>
        <time>2016-02-26T08:49:41Z</time>
      </trkpt>
      <trkpt lat="46.6767" lon="12.14851">
        <ele>1510.85</ele>
        <time>2016-02-26T08:49:43Z</time>
      </trkpt>
      <trkpt lat="46.67668" lon="12.14861">
        <ele>1510.85</ele>
        <time>2016-02-26T08:50:19Z</time>
      </trkpt>
      <trkpt lat="46.67671" lon="12.14852">
        <ele>1511.81</ele>
        <time>2016-02-26T08:50:58Z</time>
      </trkpt>
      <trkpt lat="46.67666" lon="12.14857">
        <ele>1511.81</ele>
        <time>2016-02-26T08:51:22Z</time>
      </trkpt>
      <trkpt lat="46.67661" lon="12.1486">
        <ele>1512.29</ele>
        <time>2016-02-26T08:51:54Z</time>
      </trkpt>
      <trkpt lat="46.67664" lon="12.14862">
        <ele>1512.77</ele>
        <time>2016-02-26T08:52:23Z</time>
      </trkpt>
      <trkpt lat="46.67666" lon="12.1486">
        <ele>1513.25</ele>
        <time>2016-02-26T08:52:46Z</time>
      </trkpt>
      <trkpt lat="46.67666" lon="12.14847">
        <ele>1513.25</ele>
        <time>2016-02-26T08:53:14Z</time>
      </trkpt>
      <trkpt lat="46.67668" lon="12.14858">
        <ele>1513.25</ele>
        <time>2016-02-26T08:53:45Z</time>
      </trkpt>
      <trkpt lat="46.67671" lon="12.14866">
        <ele>1513.25</ele>
        <time>2016-02-26T08:54:18Z</time>
      </trkpt>
      <trkpt lat="46.67677" lon="12.14869">
        <ele>1512.77</ele>
        <time>2016-02-26T08:54:50Z</time>
      </trkpt>
      <trkpt lat="46.67678" lon="12.1486">
        <ele>1513.25</ele>
        <time>2016-02-26T08:55:20Z</time>
      </trkpt>
      <trkpt lat="46.67674" lon="12.14857">
        <ele>1512.77</ele>
        <time>2016-02-26T08:55:50Z</time>
      </trkpt>
      <trkpt lat="46.67667" lon="12.14855">
        <ele>1512.77</ele>
        <time>2016-02-26T08:56:26Z</time>
      </trkpt>
      <trkpt lat="46.67661" lon="12.14858">
        <ele>1512.77</ele>
        <time>2016-02-26T08:56:54Z</time>
      </trkpt>
      <trkpt lat="46.67668" lon="12.14864">
        <ele>1512.77</ele>
        <time>2016-02-26T08:57:23Z</time>
      </trkpt>
      <trkpt lat="46.67671" lon="12.1486">
        <ele>1511.33</ele>
        <time>2016-02-26T08:57:56Z</time>
      </trkpt>
      <trkpt lat="46.67671" lon="12.14861">
        <ele>1511.33</ele>
        <time>2016-02-26T08:58:35Z</time>
      </trkpt>
      <trkpt lat="46.67672" lon="12.14865">
        <ele>1511.81</ele>
        <time>2016-02-26T08:59:13Z</time>
      </trkpt>
      <trkpt lat="46.67671" lon="12.14863">
        <ele>1513.25</ele>
        <time>2016-02-26T08:59:46Z</time>
      </trkpt>
      <trkpt lat="46.67671" lon="12.14863">
        <ele>1511.81</ele>
        <time>2016-02-26T08:59:47Z</time>
      </trkpt>
      <trkpt lat="46.67662" lon="12.14866">
        <ele>1512.29</ele>
        <time>2016-02-26T09:00:27Z</time>
      </trkpt>
      <trkpt lat="46.67669" lon="12.14871">
        <ele>1512.29</ele>
        <time>2016-02-26T09:01:10Z</time>
      </trkpt>
      <trkpt lat="46.67671" lon="12.14861">
        <ele>1512.77</ele>
        <time>2016-02-26T09:01:47Z</time>
      </trkpt>
      <trkpt lat="46.67666" lon="12.14868">
        <ele>1511.33</ele>
        <time>2016-02-26T09:02:21Z</time>
      </trkpt>
      <trkpt lat="46.67666" lon="12.14866">
        <ele>1511.33</ele>
        <time>2016-02-26T09:02:57Z</time>
      </trkpt>
      <trkpt lat="46.67669" lon="12.1486">
        <ele>1511.33</ele>
        <time>2016-02-26T09:03:37Z</time>
      </trkpt>
      <trkpt lat="46.6767" lon="12.1486">
        <ele>1513.25</ele>
        <time>2016-02-26T09:03:48Z</time>
      </trkpt>
      <trkpt lat="46.6767" lon="12.14861">
        <ele>1511.81</ele>
        <time>2016-02-26T09:03:49Z</time>
      </trkpt>
      <trkpt lat="46.67668" lon="12.14858">
        <ele>1512.29</ele>
        <time>2016-02-26T09:04:35Z</time>
      </trkpt>
      <trkpt lat="46.67666" lon="12.14855">
        <ele>1511.33</ele>
        <time>2016-02-26T09:04:54Z</time>
      </trkpt>
      <trkpt lat="46.67657" lon="12.14854">
        <ele>1512.29</ele>
        <time>2016-02-26T09:04:58Z</time>
      </trkpt>
      <trkpt lat="46.67654" lon="12.14852">
        <ele>1512.29</ele>
        <time>2016-02-26T09:04:59Z</time>
      </trkpt>
      <trkpt lat="46.67629" lon="12.14843">
        <ele>1513.73</ele>
        <time>2016-02-26T09:05:03Z</time>
      </trkpt>
      <trkpt lat="46.67574" lon="12.14835">
        <ele>1517.1</ele>
        <time>2016-02-26T09:05:10Z</time>
      </trkpt>
      <trkpt lat="46.67526" lon="12.14836">
        <ele>1520.46</ele>
        <time>2016-02-26T09:05:16Z</time>
      </trkpt>
      <trkpt lat="46.67491" lon="12.14837">
        <ele>1523.35</ele>
        <time>2016-02-26T09:05:20Z</time>
      </trkpt>
      <trkpt lat="46.67445" lon="12.14847">
        <ele>1526.23</ele>
        <time>2016-02-26T09:05:24Z</time>
      </trkpt>
      <trkpt lat="46.67387" lon="12.14861">
        <ele>1530.08</ele>
        <time>2016-02-26T09:05:29Z</time>
      </trkpt>
      <trkpt lat="46.6735" lon="12.14874">
        <ele>1533.44</ele>
        <time>2016-02-26T09:05:32Z</time>
      </trkpt>
      <trkpt lat="46.67327" lon="12.14886">
        <ele>1534.88</ele>
        <time>2016-02-26T09:05:34Z</time>
      </trkpt>
      <trkpt lat="46.6729" lon="12.14908">
        <ele>1538.73</ele>
        <time>2016-02-26T09:05:38Z</time>
      </trkpt>
      <trkpt lat="46.67254" lon="12.14933">
        <ele>1542.57</ele>
        <time>2016-02-26T09:05:42Z</time>
      </trkpt>
      <trkpt lat="46.67223" lon="12.14957">
        <ele>1545.94</ele>
        <time>2016-02-26T09:05:46Z</time>
      </trkpt>
      <trkpt lat="46.67207" lon="12.14968">
        <ele>1546.9</ele>
        <time>2016-02-26T09:05:48Z</time>
      </trkpt>
      <trkpt lat="46.67192" lon="12.14979">
        <ele>1549.3</ele>
        <time>2016-02-26T09:05:50Z</time>
      </trkpt>
      <trkpt lat="46.67142" lon="12.14995">
        <ele>1552.19</ele>
        <time>2016-02-26T09:05:56Z</time>
      </trkpt>
      <trkpt lat="46.67109" lon="12.15013">
        <ele>1554.59</ele>
        <time>2016-02-26T09:06:01Z</time>
      </trkpt>
      <trkpt lat="46.67104" lon="12.15018">
        <ele>1555.07</ele>
        <time>2016-02-26T09:06:02Z</time>
      </trkpt>
      <trkpt lat="46.671" lon="12.15024">
        <ele>1555.07</ele>
        <time>2016-02-26T09:06:03Z</time>
      </trkpt>
      <trkpt lat="46.67096" lon="12.1503">
        <ele>1555.55</ele>
        <time>2016-02-26T09:06:04Z</time>
      </trkpt>
      <trkpt lat="46.67093" lon="12.15037">
        <ele>1556.51</ele>
        <time>2016-02-26T09:06:05Z</time>
      </trkpt>
      <trkpt lat="46.67091" lon="12.15043">
        <ele>1556.99</ele>
        <time>2016-02-26T09:06:06Z</time>
      </trkpt>
      <trkpt lat="46.6709" lon="12.15049">
        <ele>1557.47</ele>
        <time>2016-02-26T09:06:07Z</time>
      </trkpt>
      <trkpt lat="46.67089" lon="12.15055">
        <ele>1557.95</ele>
        <time>2016-02-26T09:06:08Z</time>
      </trkpt>
      <trkpt lat="46.6709" lon="12.15061">
        <ele>1558.92</ele>
        <time>2016-02-26T09:06:09Z</time>
      </trkpt>
      <trkpt lat="46.67091" lon="12.15068">
        <ele>1559.4</ele>
        <time>2016-02-26T09:06:10Z</time>
      </trkpt>
      <trkpt lat="46.67093" lon="12.15075">
        <ele>1559.88</ele>
        <time>2016-02-26T09:06:11Z</time>
      </trkpt>
      <trkpt lat="46.67106" lon="12.15108">
        <ele>1562.76</ele>
        <time>2016-02-26T09:06:15Z</time>
      </trkpt>
      <trkpt lat="46.67136" lon="12.15163">
        <ele>1566.61</ele>
        <time>2016-02-26T09:06:21Z</time>
      </trkpt>
      <trkpt lat="46.67151" lon="12.15189">
        <ele>1568.05</ele>
        <time>2016-02-26T09:06:24Z</time>
      </trkpt>
      <trkpt lat="46.67246" lon="12.15195">
        <ele>1571.41</ele>
        <time>2016-02-26T09:06:29Z</time>
      </trkpt>
      <trkpt lat="46.6725" lon="12.15205">
        <ele>1572.37</ele>
        <time>2016-02-26T09:06:30Z</time>
      </trkpt>
      <trkpt lat="46.67265" lon="12.15247">
        <ele>1575.26</ele>
        <time>2016-02-26T09:06:34Z</time>
      </trkpt>
      <trkpt lat="46.6728" lon="12.15292">
        <ele>1579.1</ele>
        <time>2016-02-26T09:06:38Z</time>
      </trkpt>
      <trkpt lat="46.67298" lon="12.15334">
        <ele>1582.47</ele>
        <time>2016-02-26T09:06:42Z</time>
      </trkpt>
      <trkpt lat="46.6731" lon="12.15353">
        <ele>1584.39</ele>
        <time>2016-02-26T09:06:44Z</time>
      </trkpt>
      <trkpt lat="46.67328" lon="12.15379">
        <ele>1586.31</ele>
        <time>2016-02-26T09:06:47Z</time>
      </trkpt>
      <trkpt lat="46.67364" lon="12.15422">
        <ele>1589.68</ele>
        <time>2016-02-26T09:06:53Z</time>
      </trkpt>
      <trkpt lat="46.67383" lon="12.15449">
        <ele>1590.16</ele>
        <time>2016-02-26T09:06:58Z</time>
      </trkpt>
      <trkpt lat="46.67399" lon="12.15431">
        <ele>1591.12</ele>
        <time>2016-02-26T09:07:05Z</time>
      </trkpt>
      <trkpt lat="46.67453" lon="12.15446">
        <ele>1594.48</ele>
        <time>2016-02-26T09:07:16Z</time>
      </trkpt>
      <trkpt lat="46.67459" lon="12.1545">
        <ele>1594.96</ele>
        <time>2016-02-26T09:07:17Z</time>
      </trkpt>
      <trkpt lat="46.67463" lon="12.15455">
        <ele>1595.93</ele>
        <time>2016-02-26T09:07:19Z</time>
      </trkpt>
      <trkpt lat="46.67462" lon="12.15458">
        <ele>1596.41</ele>
        <time>2016-02-26T09:07:20Z</time>
      </trkpt>
      <trkpt lat="46.67461" lon="12.15458">
        <ele>1596.89</ele>
        <time>2016-02-26T09:07:21Z</time>
      </trkpt>
      <trkpt lat="46.67437" lon="12.15454">
        <ele>1599.29</ele>
        <time>2016-02-26T09:07:26Z</time>
      </trkpt>
      <trkpt lat="46.67428" lon="12.15454">
        <ele>1600.25</ele>
        <time>2016-02-26T09:07:27Z</time>
      </trkpt>
      <trkpt lat="46.67385" lon="12.15458">
        <ele>1603.14</ele>
        <time>2016-02-26T09:07:32Z</time>
      </trkpt>
      <trkpt lat="46.67338" lon="12.15476">
        <ele>1606.5</ele>
        <time>2016-02-26T09:07:37Z</time>
      </trkpt>
      <trkpt lat="46.67303" lon="12.1549">
        <ele>1609.86</ele>
        <time>2016-02-26T09:07:41Z</time>
      </trkpt>
      <trkpt lat="46.67282" lon="12.15498">
        <ele>1611.31</ele>
        <time>2016-02-26T09:07:43Z</time>
      </trkpt>
      <trkpt lat="46.67242" lon="12.15508">
        <ele>1614.67</ele>
        <time>2016-02-26T09:07:47Z</time>
      </trkpt>
      <trkpt lat="46.6722" lon="12.15511">
        <ele>1615.63</ele>
        <time>2016-02-26T09:07:49Z</time>
      </trkpt>
      <trkpt lat="46.67199" lon="12.15515">
        <ele>1618.04</ele>
        <time>2016-02-26T09:07:51Z</time>
      </trkpt>
      <trkpt lat="46.67141" lon="12.15536">
        <ele>1620.92</ele>
        <time>2016-02-26T09:07:57Z</time>
      </trkpt>
      <trkpt lat="46.67071" lon="12.15551">
        <ele>1623.8</ele>
        <time>2016-02-26T09:08:07Z</time>
      </trkpt>
      <trkpt lat="46.67067" lon="12.15554">
        <ele>1623.8</ele>
        <time>2016-02-26T09:08:08Z</time>
      </trkpt>
      <trkpt lat="46.67063" lon="12.15557">
        <ele>1624.28</ele>
        <time>2016-02-26T09:08:09Z</time>
      </trkpt>
      <trkpt lat="46.67061" lon="12.15562">
        <ele>1624.28</ele>
        <time>2016-02-26T09:08:10Z</time>
      </trkpt>
      <trkpt lat="46.67058" lon="12.15568">
        <ele>1624.77</ele>
        <time>2016-02-26T09:08:11Z</time>
      </trkpt>
      <trkpt lat="46.67057" lon="12.15574">
        <ele>1625.25</ele>
        <time>2016-02-26T09:08:12Z</time>
      </trkpt>
      <trkpt lat="46.67061" lon="12.15614">
        <ele>1627.65</ele>
        <time>2016-02-26T09:08:20Z</time>
      </trkpt>
      <trkpt lat="46.67068" lon="12.15617">
        <ele>1628.61</ele>
        <time>2016-02-26T09:08:21Z</time>
      </trkpt>
      <trkpt lat="46.67107" lon="12.15636">
        <ele>1631.98</ele>
        <time>2016-02-26T09:08:26Z</time>
      </trkpt>
      <trkpt lat="46.67148" lon="12.15657">
        <ele>1635.82</ele>
        <time>2016-02-26T09:08:30Z</time>
      </trkpt>
      <trkpt lat="46.67175" lon="12.15672">
        <ele>1637.74</ele>
        <time>2016-02-26T09:08:32Z</time>
      </trkpt>
      <trkpt lat="46.67208" lon="12.15695">
        <ele>1641.59</ele>
        <time>2016-02-26T09:08:35Z</time>
      </trkpt>
      <trkpt lat="46.67251" lon="12.15717">
        <ele>1644.47</ele>
        <time>2016-02-26T09:08:39Z</time>
      </trkpt>
      <trkpt lat="46.67305" lon="12.15752">
        <ele>1646.88</ele>
        <time>2016-02-26T09:08:45Z</time>
      </trkpt>
      <trkpt lat="46.67312" lon="12.15752">
        <ele>1647.36</ele>
        <time>2016-02-26T09:08:46Z</time>
      </trkpt>
      <trkpt lat="46.67318" lon="12.15753">
        <ele>1647.84</ele>
        <time>2016-02-26T09:08:47Z</time>
      </trkpt>
      <trkpt lat="46.67323" lon="12.15755">
        <ele>1648.32</ele>
        <time>2016-02-26T09:08:48Z</time>
      </trkpt>
      <trkpt lat="46.67326" lon="12.15758">
        <ele>1648.32</ele>
        <time>2016-02-26T09:08:49Z</time>
      </trkpt>
      <trkpt lat="46.67329" lon="12.15763">
        <ele>1648.8</ele>
        <time>2016-02-26T09:08:50Z</time>
      </trkpt>
      <trkpt lat="46.67331" lon="12.1578">
        <ele>1650.72</ele>
        <time>2016-02-26T09:08:56Z</time>
      </trkpt>
      <trkpt lat="46.67324" lon="12.15775">
        <ele>1651.68</ele>
        <time>2016-02-26T09:08:59Z</time>
      </trkpt>
      <trkpt lat="46.67312" lon="12.15752">
        <ele>1653.6</ele>
        <time>2016-02-26T09:09:03Z</time>
      </trkpt>
      <trkpt lat="46.67301" lon="12.15755">
        <ele>1654.57</ele>
        <time>2016-02-26T09:09:04Z</time>
      </trkpt>
      <trkpt lat="46.67284" lon="12.15763">
        <ele>1656.01</ele>
        <time>2016-02-26T09:09:06Z</time>
      </trkpt>
      <trkpt lat="46.67257" lon="12.15779">
        <ele>1658.89</ele>
        <time>2016-02-26T09:09:09Z</time>
      </trkpt>
      <trkpt lat="46.67241" lon="12.15789">
        <ele>1660.81</ele>
        <time>2016-02-26T09:09:11Z</time>
      </trkpt>
      <trkpt lat="46.6721" lon="12.15805">
        <ele>1663.7</ele>
        <time>2016-02-26T09:09:15Z</time>
      </trkpt>
      <trkpt lat="46.67201" lon="12.15807">
        <ele>1664.18</ele>
        <time>2016-02-26T09:09:16Z</time>
      </trkpt>
      <trkpt lat="46.6715" lon="12.15813">
        <ele>1668.02</ele>
        <time>2016-02-26T09:09:21Z</time>
      </trkpt>
      <trkpt lat="46.67141" lon="12.15815">
        <ele>1668.51</ele>
        <time>2016-02-26T09:09:22Z</time>
      </trkpt>
      <trkpt lat="46.67133" lon="12.15819">
        <ele>1669.47</ele>
        <time>2016-02-26T09:09:23Z</time>
      </trkpt>
      <trkpt lat="46.67125" lon="12.15823">
        <ele>1670.43</ele>
        <time>2016-02-26T09:09:24Z</time>
      </trkpt>
      <trkpt lat="46.67099" lon="12.15848">
        <ele>1673.79</ele>
        <time>2016-02-26T09:09:28Z</time>
      </trkpt>
      <trkpt lat="46.67079" lon="12.15869">
        <ele>1676.68</ele>
        <time>2016-02-26T09:09:31Z</time>
      </trkpt>
      <trkpt lat="46.67062" lon="12.15881">
        <ele>1678.6</ele>
        <time>2016-02-26T09:09:33Z</time>
      </trkpt>
      <trkpt lat="46.67053" lon="12.15885">
        <ele>1679.56</ele>
        <time>2016-02-26T09:09:34Z</time>
      </trkpt>
      <trkpt lat="46.67035" lon="12.15892">
        <ele>1681.48</ele>
        <time>2016-02-26T09:09:36Z</time>
      </trkpt>
      <trkpt lat="46.67017" lon="12.15894">
        <ele>1683.41</ele>
        <time>2016-02-26T09:09:38Z</time>
      </trkpt>
      <trkpt lat="46.66991" lon="12.15893">
        <ele>1685.81</ele>
        <time>2016-02-26T09:09:41Z</time>
      </trkpt>
      <trkpt lat="46.66983" lon="12.15894">
        <ele>1685.81</ele>
        <time>2016-02-26T09:09:42Z</time>
      </trkpt>
      <trkpt lat="46.66969" lon="12.15897">
        <ele>1687.73</ele>
        <time>2016-02-26T09:09:44Z</time>
      </trkpt>
      <trkpt lat="46.66961" lon="12.15901">
        <ele>1687.73</ele>
        <time>2016-02-26T09:09:45Z</time>
      </trkpt>
      <trkpt lat="46.66939" lon="12.15922">
        <ele>1690.62</ele>
        <time>2016-02-26T09:09:48Z</time>
      </trkpt>
      <trkpt lat="46.66932" lon="12.15931">
        <ele>1691.58</ele>
        <time>2016-02-26T09:09:49Z</time>
      </trkpt>
      <trkpt lat="46.6692" lon="12.15955">
        <ele>1694.46</ele>
        <time>2016-02-26T09:09:51Z</time>
      </trkpt>
      <trkpt lat="46.66882" lon="12.16003">
        <ele>1697.83</ele>
        <time>2016-02-26T09:09:56Z</time>
      </trkpt>
      <trkpt lat="46.66865" lon="12.16017">
        <ele>1699.75</ele>
        <time>2016-02-26T09:09:58Z</time>
      </trkpt>
      <trkpt lat="46.6684" lon="12.16037">
        <ele>1702.63</ele>
        <time>2016-02-26T09:10:01Z</time>
      </trkpt>
      <trkpt lat="46.66833" lon="12.16047">
        <ele>1703.11</ele>
        <time>2016-02-26T09:10:02Z</time>
      </trkpt>
      <trkpt lat="46.66826" lon="12.16057">
        <ele>1704.07</ele>
        <time>2016-02-26T09:10:03Z</time>
      </trkpt>
      <trkpt lat="46.66805" lon="12.16098">
        <ele>1707.44</ele>
        <time>2016-02-26T09:10:06Z</time>
      </trkpt>
      <trkpt lat="46.66786" lon="12.1614">
        <ele>1710.8</ele>
        <time>2016-02-26T09:10:10Z</time>
      </trkpt>
      <trkpt lat="46.66769" lon="12.16185">
        <ele>1713.69</ele>
        <time>2016-02-26T09:10:14Z</time>
      </trkpt>
      <trkpt lat="46.66755" lon="12.16214">
        <ele>1715.61</ele>
        <time>2016-02-26T09:10:17Z</time>
      </trkpt>
      <trkpt lat="46.66749" lon="12.16222">
        <ele>1716.09</ele>
        <time>2016-02-26T09:10:18Z</time>
      </trkpt>
      <trkpt lat="46.66742" lon="12.16228">
        <ele>1717.05</ele>
        <time>2016-02-26T09:10:19Z</time>
      </trkpt>
      <trkpt lat="46.66728" lon="12.1624">
        <ele>1718.01</ele>
        <time>2016-02-26T09:10:21Z</time>
      </trkpt>
      <trkpt lat="46.66715" lon="12.16254">
        <ele>1718.97</ele>
        <time>2016-02-26T09:10:23Z</time>
      </trkpt>
      <trkpt lat="46.66709" lon="12.16263">
        <ele>1719.94</ele>
        <time>2016-02-26T09:10:24Z</time>
      </trkpt>
      <trkpt lat="46.66705" lon="12.16273">
        <ele>1720.9</ele>
        <time>2016-02-26T09:10:25Z</time>
      </trkpt>
      <trkpt lat="46.66701" lon="12.16283">
        <ele>1721.38</ele>
        <time>2016-02-26T09:10:26Z</time>
      </trkpt>
      <trkpt lat="46.66697" lon="12.16306">
        <ele>1722.82</ele>
        <time>2016-02-26T09:10:28Z</time>
      </trkpt>
      <trkpt lat="46.66695" lon="12.16326">
        <ele>1724.26</ele>
        <time>2016-02-26T09:10:30Z</time>
      </trkpt>
      <trkpt lat="46.66696" lon="12.16334">
        <ele>1724.74</ele>
        <time>2016-02-26T09:10:31Z</time>
      </trkpt>
      <trkpt lat="46.66698" lon="12.16343">
        <ele>1725.22</ele>
        <time>2016-02-26T09:10:32Z</time>
      </trkpt>
      <trkpt lat="46.66701" lon="12.1635">
        <ele>1726.18</ele>
        <time>2016-02-26T09:10:33Z</time>
      </trkpt>
      <trkpt lat="46.66705" lon="12.16356">
        <ele>1726.67</ele>
        <time>2016-02-26T09:10:34Z</time>
      </trkpt>
      <trkpt lat="46.6671" lon="12.1636">
        <ele>1727.15</ele>
        <time>2016-02-26T09:10:35Z</time>
      </trkpt>
      <trkpt lat="46.66716" lon="12.16362">
        <ele>1727.63</ele>
        <time>2016-02-26T09:10:36Z</time>
      </trkpt>
      <trkpt lat="46.66722" lon="12.16363">
        <ele>1728.11</ele>
        <time>2016-02-26T09:10:37Z</time>
      </trkpt>
      <trkpt lat="46.66728" lon="12.16361">
        <ele>1728.59</ele>
        <time>2016-02-26T09:10:38Z</time>
      </trkpt>
      <trkpt lat="46.66768" lon="12.16338">
        <ele>1731.47</ele>
        <time>2016-02-26T09:10:45Z</time>
      </trkpt>
      <trkpt lat="46.66774" lon="12.16331">
        <ele>1731.95</ele>
        <time>2016-02-26T09:10:46Z</time>
      </trkpt>
      <trkpt lat="46.66802" lon="12.16295">
        <ele>1734.36</ele>
        <time>2016-02-26T09:10:52Z</time>
      </trkpt>
      <trkpt lat="46.66807" lon="12.16291">
        <ele>1734.84</ele>
        <time>2016-02-26T09:10:53Z</time>
      </trkpt>
      <trkpt lat="46.66812" lon="12.1629">
        <ele>1734.84</ele>
        <time>2016-02-26T09:10:54Z</time>
      </trkpt>
      <trkpt lat="46.66817" lon="12.16291">
        <ele>1735.32</ele>
        <time>2016-02-26T09:10:55Z</time>
      </trkpt>
      <trkpt lat="46.6682" lon="12.16296">
        <ele>1735.8</ele>
        <time>2016-02-26T09:10:56Z</time>
      </trkpt>
      <trkpt lat="46.66821" lon="12.16301">
        <ele>1736.28</ele>
        <time>2016-02-26T09:10:57Z</time>
      </trkpt>
      <trkpt lat="46.66821" lon="12.16307">
        <ele>1736.76</ele>
        <time>2016-02-26T09:10:58Z</time>
      </trkpt>
      <trkpt lat="46.66819" lon="12.16312">
        <ele>1736.76</ele>
        <time>2016-02-26T09:10:59Z</time>
      </trkpt>
      <trkpt lat="46.66817" lon="12.16317">
        <ele>1737.72</ele>
        <time>2016-02-26T09:11:00Z</time>
      </trkpt>
      <trkpt lat="46.6681" lon="12.16326">
        <ele>1738.68</ele>
        <time>2016-02-26T09:11:02Z</time>
      </trkpt>
      <trkpt lat="46.66782" lon="12.16348">
        <ele>1742.05</ele>
        <time>2016-02-26T09:11:08Z</time>
      </trkpt>
      <trkpt lat="46.66776" lon="12.16353">
        <ele>1742.53</ele>
        <time>2016-02-26T09:11:09Z</time>
      </trkpt>
      <trkpt lat="46.6677" lon="12.16359">
        <ele>1743.01</ele>
        <time>2016-02-26T09:11:10Z</time>
      </trkpt>
      <trkpt lat="46.66746" lon="12.16393">
        <ele>1746.85</ele>
        <time>2016-02-26T09:11:15Z</time>
      </trkpt>
      <trkpt lat="46.66737" lon="12.16407">
        <ele>1747.81</ele>
        <time>2016-02-26T09:11:17Z</time>
      </trkpt>
      <trkpt lat="46.66732" lon="12.16412">
        <ele>1748.78</ele>
        <time>2016-02-26T09:11:18Z</time>
      </trkpt>
      <trkpt lat="46.66726" lon="12.16416">
        <ele>1749.26</ele>
        <time>2016-02-26T09:11:19Z</time>
      </trkpt>
      <trkpt lat="46.66719" lon="12.16419">
        <ele>1749.74</ele>
        <time>2016-02-26T09:11:20Z</time>
      </trkpt>
      <trkpt lat="46.66694" lon="12.16423">
        <ele>1753.1</ele>
        <time>2016-02-26T09:11:24Z</time>
      </trkpt>
      <trkpt lat="46.66675" lon="12.16421">
        <ele>1754.54</ele>
        <time>2016-02-26T09:11:27Z</time>
      </trkpt>
      <trkpt lat="46.66668" lon="12.16418">
        <ele>1755.5</ele>
        <time>2016-02-26T09:11:28Z</time>
      </trkpt>
      <trkpt lat="46.66661" lon="12.16414">
        <ele>1755.99</ele>
        <time>2016-02-26T09:11:29Z</time>
      </trkpt>
      <trkpt lat="46.66632" lon="12.16397">
        <ele>1759.83</ele>
        <time>2016-02-26T09:11:33Z</time>
      </trkpt>
      <trkpt lat="46.66625" lon="12.16394">
        <ele>1760.31</ele>
        <time>2016-02-26T09:11:34Z</time>
      </trkpt>
      <trkpt lat="46.66592" lon="12.16383">
        <ele>1763.2</ele>
        <time>2016-02-26T09:11:39Z</time>
      </trkpt>
      <trkpt lat="46.66587" lon="12.16379">
        <ele>1764.16</ele>
        <time>2016-02-26T09:11:40Z</time>
      </trkpt>
      <trkpt lat="46.66582" lon="12.16373">
        <ele>1764.64</ele>
        <time>2016-02-26T09:11:41Z</time>
      </trkpt>
      <trkpt lat="46.66576" lon="12.16366">
        <ele>1765.12</ele>
        <time>2016-02-26T09:11:42Z</time>
      </trkpt>
      <trkpt lat="46.66567" lon="12.16353">
        <ele>1766.08</ele>
        <time>2016-02-26T09:11:44Z</time>
      </trkpt>
      <trkpt lat="46.66562" lon="12.16346">
        <ele>1767.04</ele>
        <time>2016-02-26T09:11:45Z</time>
      </trkpt>
      <trkpt lat="46.66557" lon="12.1634">
        <ele>1767.52</ele>
        <time>2016-02-26T09:11:46Z</time>
      </trkpt>
      <trkpt lat="46.66552" lon="12.16336">
        <ele>1768.48</ele>
        <time>2016-02-26T09:11:47Z</time>
      </trkpt>
      <trkpt lat="46.66547" lon="12.16335">
        <ele>1768.96</ele>
        <time>2016-02-26T09:11:48Z</time>
      </trkpt>
      <trkpt lat="46.66541" lon="12.16335">
        <ele>1769.92</ele>
        <time>2016-02-26T09:11:49Z</time>
      </trkpt>
      <trkpt lat="46.66534" lon="12.16338">
        <ele>1769.92</ele>
        <time>2016-02-26T09:11:50Z</time>
      </trkpt>
      <trkpt lat="46.66523" lon="12.16343">
        <ele>1772.81</ele>
        <time>2016-02-26T09:11:52Z</time>
      </trkpt>
      <trkpt lat="46.66498" lon="12.16354">
        <ele>1773.77</ele>
        <time>2016-02-26T09:11:56Z</time>
      </trkpt>
      <trkpt lat="46.66492" lon="12.16353">
        <ele>1774.25</ele>
        <time>2016-02-26T09:11:57Z</time>
      </trkpt>
      <trkpt lat="46.66485" lon="12.16351">
        <ele>1775.21</ele>
        <time>2016-02-26T09:11:58Z</time>
      </trkpt>
      <trkpt lat="46.66447" lon="12.16332">
        <ele>1778.1</ele>
        <time>2016-02-26T09:12:04Z</time>
      </trkpt>
      <trkpt lat="46.66441" lon="12.16332">
        <ele>1779.06</ele>
        <time>2016-02-26T09:12:05Z</time>
      </trkpt>
      <trkpt lat="46.66435" lon="12.16333">
        <ele>1779.54</ele>
        <time>2016-02-26T09:12:06Z</time>
      </trkpt>
      <trkpt lat="46.66423" lon="12.16337">
        <ele>1780.98</ele>
        <time>2016-02-26T09:12:08Z</time>
      </trkpt>
      <trkpt lat="46.66418" lon="12.1634">
        <ele>1781.46</ele>
        <time>2016-02-26T09:12:09Z</time>
      </trkpt>
      <trkpt lat="46.66409" lon="12.16347">
        <ele>1782.9</ele>
        <time>2016-02-26T09:12:11Z</time>
      </trkpt>
      <trkpt lat="46.66406" lon="12.16355">
        <ele>1783.38</ele>
        <time>2016-02-26T09:12:12Z</time>
      </trkpt>
      <trkpt lat="46.66398" lon="12.16375">
        <ele>1784.34</ele>
        <time>2016-02-26T09:12:14Z</time>
      </trkpt>
      <trkpt lat="46.66393" lon="12.16383">
        <ele>1784.82</ele>
        <time>2016-02-26T09:12:15Z</time>
      </trkpt>
      <trkpt lat="46.66362" lon="12.16414">
        <ele>1788.19</ele>
        <time>2016-02-26T09:12:20Z</time>
      </trkpt>
      <trkpt lat="46.66355" lon="12.16419">
        <ele>1789.15</ele>
        <time>2016-02-26T09:12:21Z</time>
      </trkpt>
      <trkpt lat="46.66326" lon="12.16436">
        <ele>1792.03</ele>
        <time>2016-02-26T09:12:26Z</time>
      </trkpt>
      <trkpt lat="46.66313" lon="12.16446">
        <ele>1793.96</ele>
        <time>2016-02-26T09:12:28Z</time>
      </trkpt>
      <trkpt lat="46.66307" lon="12.16452">
        <ele>1794.44</ele>
        <time>2016-02-26T09:12:29Z</time>
      </trkpt>
      <trkpt lat="46.66294" lon="12.16472">
        <ele>1795.88</ele>
        <time>2016-02-26T09:12:32Z</time>
      </trkpt>
      <trkpt lat="46.66289" lon="12.16476">
        <ele>1796.36</ele>
        <time>2016-02-26T09:12:33Z</time>
      </trkpt>
      <trkpt lat="46.66284" lon="12.16478">
        <ele>1796.84</ele>
        <time>2016-02-26T09:12:34Z</time>
      </trkpt>
      <trkpt lat="46.66279" lon="12.16478">
        <ele>1797.32</ele>
        <time>2016-02-26T09:12:35Z</time>
      </trkpt>
      <trkpt lat="46.66273" lon="12.16476">
        <ele>1797.32</ele>
        <time>2016-02-26T09:12:36Z</time>
      </trkpt>
      <trkpt lat="46.66268" lon="12.16473">
        <ele>1797.8</ele>
        <time>2016-02-26T09:12:37Z</time>
      </trkpt>
      <trkpt lat="46.66264" lon="12.16469">
        <ele>1798.28</ele>
        <time>2016-02-26T09:12:38Z</time>
      </trkpt>
      <trkpt lat="46.66252" lon="12.16455">
        <ele>1799.73</ele>
        <time>2016-02-26T09:12:41Z</time>
      </trkpt>
      <trkpt lat="46.66247" lon="12.16453">
        <ele>1799.73</ele>
        <time>2016-02-26T09:12:42Z</time>
      </trkpt>
      <trkpt lat="46.66242" lon="12.16451">
        <ele>1799.73</ele>
        <time>2016-02-26T09:12:43Z</time>
      </trkpt>
      <trkpt lat="46.66213" lon="12.16449">
        <ele>1802.61</ele>
        <time>2016-02-26T09:12:48Z</time>
      </trkpt>
      <trkpt lat="46.66185" lon="12.16461">
        <ele>1805.97</ele>
        <time>2016-02-26T09:12:52Z</time>
      </trkpt>
      <trkpt lat="46.66166" lon="12.16472">
        <ele>1807.42</ele>
        <time>2016-02-26T09:12:54Z</time>
      </trkpt>
      <trkpt lat="46.6616" lon="12.16477">
        <ele>1808.38</ele>
        <time>2016-02-26T09:12:55Z</time>
      </trkpt>
      <trkpt lat="46.66153" lon="12.16483">
        <ele>1809.34</ele>
        <time>2016-02-26T09:12:56Z</time>
      </trkpt>
      <trkpt lat="46.66134" lon="12.16507">
        <ele>1812.7</ele>
        <time>2016-02-26T09:13:00Z</time>
      </trkpt>
      <trkpt lat="46.66131" lon="12.16518">
        <ele>1813.66</ele>
        <time>2016-02-26T09:13:01Z</time>
      </trkpt>
      <trkpt lat="46.66129" lon="12.16529">
        <ele>1814.63</ele>
        <time>2016-02-26T09:13:02Z</time>
      </trkpt>
      <trkpt lat="46.66124" lon="12.16578">
        <ele>1817.99</ele>
        <time>2016-02-26T09:13:06Z</time>
      </trkpt>
      <trkpt lat="46.66115" lon="12.16628">
        <ele>1820.39</ele>
        <time>2016-02-26T09:13:11Z</time>
      </trkpt>
      <trkpt lat="46.66109" lon="12.16643">
        <ele>1820.87</ele>
        <time>2016-02-26T09:13:13Z</time>
      </trkpt>
      <trkpt lat="46.66103" lon="12.16651">
        <ele>1821.35</ele>
        <time>2016-02-26T09:13:14Z</time>
      </trkpt>
      <trkpt lat="46.66056" lon="12.16691">
        <ele>1824.24</ele>
        <time>2016-02-26T09:13:20Z</time>
      </trkpt>
      <trkpt lat="46.66011" lon="12.16727">
        <ele>1827.6</ele>
        <time>2016-02-26T09:13:27Z</time>
      </trkpt>
      <trkpt lat="46.66006" lon="12.16731">
        <ele>1827.6</ele>
        <time>2016-02-26T09:13:28Z</time>
      </trkpt>
      <trkpt lat="46.66001" lon="12.16737">
        <ele>1828.08</ele>
        <time>2016-02-26T09:13:29Z</time>
      </trkpt>
      <trkpt lat="46.65999" lon="12.16744">
        <ele>1828.56</ele>
        <time>2016-02-26T09:13:30Z</time>
      </trkpt>
      <trkpt lat="46.66005" lon="12.16756">
        <ele>1829.05</ele>
        <time>2016-02-26T09:13:32Z</time>
      </trkpt>
      <trkpt lat="46.6601" lon="12.16759">
        <ele>1829.53</ele>
        <time>2016-02-26T09:13:33Z</time>
      </trkpt>
      <trkpt lat="46.66014" lon="12.1676">
        <ele>1829.53</ele>
        <time>2016-02-26T09:13:34Z</time>
      </trkpt>
      <trkpt lat="46.6602" lon="12.16759">
        <ele>1830.01</ele>
        <time>2016-02-26T09:13:35Z</time>
      </trkpt>
      <trkpt lat="46.66062" lon="12.16742">
        <ele>1833.37</ele>
        <time>2016-02-26T09:13:42Z</time>
      </trkpt>
      <trkpt lat="46.66087" lon="12.16733">
        <ele>1835.29</ele>
        <time>2016-02-26T09:13:45Z</time>
      </trkpt>
      <trkpt lat="46.66153" lon="12.1673">
        <ele>1840.1</ele>
        <time>2016-02-26T09:13:52Z</time>
      </trkpt>
      <trkpt lat="46.6621" lon="12.16737">
        <ele>1843.47</ele>
        <time>2016-02-26T09:14:01Z</time>
      </trkpt>
      <trkpt lat="46.66217" lon="12.16737">
        <ele>1844.91</ele>
        <time>2016-02-26T09:14:03Z</time>
      </trkpt>
      <trkpt lat="46.66219" lon="12.16729">
        <ele>1845.39</ele>
        <time>2016-02-26T09:14:04Z</time>
      </trkpt>
      <trkpt lat="46.66222" lon="12.16722">
        <ele>1845.87</ele>
        <time>2016-02-26T09:14:05Z</time>
      </trkpt>
      <trkpt lat="46.66226" lon="12.16716">
        <ele>1846.83</ele>
        <time>2016-02-26T09:14:06Z</time>
      </trkpt>
      <trkpt lat="46.66238" lon="12.16709">
        <ele>1848.27</ele>
        <time>2016-02-26T09:14:08Z</time>
      </trkpt>
      <trkpt lat="46.66269" lon="12.16708">
        <ele>1851.16</ele>
        <time>2016-02-26T09:14:12Z</time>
      </trkpt>
      <trkpt lat="46.66305" lon="12.16709">
        <ele>1854.52</ele>
        <time>2016-02-26T09:14:17Z</time>
      </trkpt>
      <trkpt lat="46.66321" lon="12.16709">
        <ele>1856.44</ele>
        <time>2016-02-26T09:14:20Z</time>
      </trkpt>
      <trkpt lat="46.66331" lon="12.16701">
        <ele>1857.4</ele>
        <time>2016-02-26T09:14:22Z</time>
      </trkpt>
      <trkpt lat="46.66336" lon="12.16702">
        <ele>1857.89</ele>
        <time>2016-02-26T09:14:23Z</time>
      </trkpt>
      <trkpt lat="46.66342" lon="12.16704">
        <ele>1858.37</ele>
        <time>2016-02-26T09:14:24Z</time>
      </trkpt>
      <trkpt lat="46.66346" lon="12.16707">
        <ele>1858.85</ele>
        <time>2016-02-26T09:14:25Z</time>
      </trkpt>
      <trkpt lat="46.66355" lon="12.16715">
        <ele>1859.81</ele>
        <time>2016-02-26T09:14:27Z</time>
      </trkpt>
      <trkpt lat="46.66359" lon="12.1672">
        <ele>1860.29</ele>
        <time>2016-02-26T09:14:28Z</time>
      </trkpt>
      <trkpt lat="46.6637" lon="12.16759">
        <ele>1862.69</ele>
        <time>2016-02-26T09:14:34Z</time>
      </trkpt>
      <trkpt lat="46.66374" lon="12.16764">
        <ele>1862.69</ele>
        <time>2016-02-26T09:14:35Z</time>
      </trkpt>
      <trkpt lat="46.6638" lon="12.16768">
        <ele>1863.65</ele>
        <time>2016-02-26T09:14:36Z</time>
      </trkpt>
      <trkpt lat="46.66385" lon="12.1677">
        <ele>1864.13</ele>
        <time>2016-02-26T09:14:37Z</time>
      </trkpt>
      <trkpt lat="46.66391" lon="12.1677">
        <ele>1864.61</ele>
        <time>2016-02-26T09:14:38Z</time>
      </trkpt>
      <trkpt lat="46.66397" lon="12.16769">
        <ele>1864.61</ele>
        <time>2016-02-26T09:14:39Z</time>
      </trkpt>
      <trkpt lat="46.66428" lon="12.16759">
        <ele>1867.98</ele>
        <time>2016-02-26T09:14:44Z</time>
      </trkpt>
      <trkpt lat="46.66458" lon="12.16755">
        <ele>1869.9</ele>
        <time>2016-02-26T09:14:49Z</time>
      </trkpt>
      <trkpt lat="46.66462" lon="12.16756">
        <ele>1870.38</ele>
        <time>2016-02-26T09:14:50Z</time>
      </trkpt>
      <trkpt lat="46.66471" lon="12.16759">
        <ele>1871.34</ele>
        <time>2016-02-26T09:14:54Z</time>
      </trkpt>
      <trkpt lat="46.66452" lon="12.16757">
        <ele>1872.79</ele>
        <time>2016-02-26T09:14:59Z</time>
      </trkpt>
      <trkpt lat="46.66446" lon="12.16759">
        <ele>1873.27</ele>
        <time>2016-02-26T09:15:00Z</time>
      </trkpt>
      <trkpt lat="46.6641" lon="12.16783">
        <ele>1876.63</ele>
        <time>2016-02-26T09:15:06Z</time>
      </trkpt>
      <trkpt lat="46.66398" lon="12.16795">
        <ele>1878.07</ele>
        <time>2016-02-26T09:15:08Z</time>
      </trkpt>
      <trkpt lat="46.66392" lon="12.16802">
        <ele>1878.07</ele>
        <time>2016-02-26T09:15:09Z</time>
      </trkpt>
      <trkpt lat="46.66376" lon="12.16835">
        <ele>1880</ele>
        <time>2016-02-26T09:15:13Z</time>
      </trkpt>
      <trkpt lat="46.66368" lon="12.16846">
        <ele>1880.48</ele>
        <time>2016-02-26T09:15:15Z</time>
      </trkpt>
      <trkpt lat="46.66362" lon="12.16852">
        <ele>1880.96</ele>
        <time>2016-02-26T09:15:16Z</time>
      </trkpt>
      <trkpt lat="46.66335" lon="12.16875">
        <ele>1884.32</ele>
        <time>2016-02-26T09:15:20Z</time>
      </trkpt>
      <trkpt lat="46.66323" lon="12.1689">
        <ele>1885.76</ele>
        <time>2016-02-26T09:15:22Z</time>
      </trkpt>
      <trkpt lat="46.66297" lon="12.16931">
        <ele>1889.13</ele>
        <time>2016-02-26T09:15:27Z</time>
      </trkpt>
      <trkpt lat="46.66293" lon="12.16933">
        <ele>1889.61</ele>
        <time>2016-02-26T09:15:28Z</time>
      </trkpt>
      <trkpt lat="46.66287" lon="12.16935">
        <ele>1890.09</ele>
        <time>2016-02-26T09:15:29Z</time>
      </trkpt>
      <trkpt lat="46.66281" lon="12.16934">
        <ele>1890.57</ele>
        <time>2016-02-26T09:15:30Z</time>
      </trkpt>
      <trkpt lat="46.66276" lon="12.16931">
        <ele>1891.05</ele>
        <time>2016-02-26T09:15:31Z</time>
      </trkpt>
      <trkpt lat="46.66269" lon="12.16927">
        <ele>1892.01</ele>
        <time>2016-02-26T09:15:32Z</time>
      </trkpt>
      <trkpt lat="46.6625" lon="12.16909">
        <ele>1894.42</ele>
        <time>2016-02-26T09:15:35Z</time>
      </trkpt>
      <trkpt lat="46.66216" lon="12.16881">
        <ele>1897.3</ele>
        <time>2016-02-26T09:15:41Z</time>
      </trkpt>
      <trkpt lat="46.6621" lon="12.16878">
        <ele>1898.26</ele>
        <time>2016-02-26T09:15:42Z</time>
      </trkpt>
      <trkpt lat="46.66205" lon="12.16878">
        <ele>1898.74</ele>
        <time>2016-02-26T09:15:43Z</time>
      </trkpt>
      <trkpt lat="46.66179" lon="12.169">
        <ele>1901.63</ele>
        <time>2016-02-26T09:15:48Z</time>
      </trkpt>
      <trkpt lat="46.66169" lon="12.16915">
        <ele>1902.59</ele>
        <time>2016-02-26T09:15:50Z</time>
      </trkpt>
      <trkpt lat="46.66162" lon="12.16933">
        <ele>1903.55</ele>
        <time>2016-02-26T09:15:52Z</time>
      </trkpt>
      <trkpt lat="46.66159" lon="12.16942">
        <ele>1905.47</ele>
        <time>2016-02-26T09:15:53Z</time>
      </trkpt>
      <trkpt lat="46.66156" lon="12.1696">
        <ele>1906.43</ele>
        <time>2016-02-26T09:15:55Z</time>
      </trkpt>
      <trkpt lat="46.66151" lon="12.16999">
        <ele>1908.35</ele>
        <time>2016-02-26T09:15:59Z</time>
      </trkpt>
      <trkpt lat="46.66149" lon="12.17008">
        <ele>1908.35</ele>
        <time>2016-02-26T09:16:00Z</time>
      </trkpt>
      <trkpt lat="46.66145" lon="12.17016">
        <ele>1908.35</ele>
        <time>2016-02-26T09:16:01Z</time>
      </trkpt>
      <trkpt lat="46.66127" lon="12.17032">
        <ele>1908.35</ele>
        <time>2016-02-26T09:16:11Z</time>
      </trkpt>
      <trkpt lat="46.66119" lon="12.17048">
        <ele>1908.83</ele>
        <time>2016-02-26T09:16:27Z</time>
      </trkpt>
      <trkpt lat="46.66131" lon="12.17051">
        <ele>1908.83</ele>
        <time>2016-02-26T09:16:54Z</time>
      </trkpt>
      <trkpt lat="46.66134" lon="12.17052">
        <ele>1910.28</ele>
        <time>2016-02-26T09:17:14Z</time>
      </trkpt>
      <trkpt lat="46.66134" lon="12.17052">
        <ele>1909.32</ele>
        <time>2016-02-26T09:17:15Z</time>
      </trkpt>
      <trkpt lat="46.66062" lon="12.17121">
        <ele>1909.32</ele>
        <time>2016-02-26T09:17:44Z</time>
      </trkpt>
      <trkpt lat="46.6606" lon="12.17117">
        <ele>1908.83</ele>
        <time>2016-02-26T09:18:08Z</time>
      </trkpt>
      <trkpt lat="46.66059" lon="12.17115">
        <ele>1908.35</ele>
        <time>2016-02-26T09:18:37Z</time>
      </trkpt>
      <trkpt lat="46.66056" lon="12.17118">
        <ele>1907.87</ele>
        <time>2016-02-26T09:19:09Z</time>
      </trkpt>
      <trkpt lat="46.66056" lon="12.17117">
        <ele>1907.87</ele>
        <time>2016-02-26T09:19:32Z</time>
      </trkpt>
      <trkpt lat="46.66057" lon="12.17114">
        <ele>1907.87</ele>
        <time>2016-02-26T09:20:02Z</time>
      </trkpt>
      <trkpt lat="46.66058" lon="12.17119">
        <ele>1907.39</ele>
        <time>2016-02-26T09:20:36Z</time>
      </trkpt>
      <trkpt lat="46.6604" lon="12.17139">
        <ele>1908.83</ele>
        <time>2016-02-26T09:20:47Z</time>
      </trkpt>
      <trkpt lat="46.66034" lon="12.17143">
        <ele>1909.32</ele>
        <time>2016-02-26T09:20:48Z</time>
      </trkpt>
      <trkpt lat="46.66029" lon="12.17145">
        <ele>1909.32</ele>
        <time>2016-02-26T09:20:49Z</time>
      </trkpt>
      <trkpt lat="46.66022" lon="12.17147">
        <ele>1909.8</ele>
        <time>2016-02-26T09:20:50Z</time>
      </trkpt>
      <trkpt lat="46.66015" lon="12.17147">
        <ele>1910.28</ele>
        <time>2016-02-26T09:20:51Z</time>
      </trkpt>
      <trkpt lat="46.66008" lon="12.17146">
        <ele>1911.24</ele>
        <time>2016-02-26T09:20:52Z</time>
      </trkpt>
      <trkpt lat="46.66001" lon="12.17144">
        <ele>1912.2</ele>
        <time>2016-02-26T09:20:53Z</time>
      </trkpt>
      <trkpt lat="46.65974" lon="12.17136">
        <ele>1916.04</ele>
        <time>2016-02-26T09:20:57Z</time>
      </trkpt>
      <trkpt lat="46.65946" lon="12.17124">
        <ele>1919.89</ele>
        <time>2016-02-26T09:21:01Z</time>
      </trkpt>
      <trkpt lat="46.65925" lon="12.1712">
        <ele>1922.77</ele>
        <time>2016-02-26T09:21:04Z</time>
      </trkpt>
      <trkpt lat="46.65903" lon="12.17117">
        <ele>1926.14</ele>
        <time>2016-02-26T09:21:07Z</time>
      </trkpt>
      <trkpt lat="46.65882" lon="12.17114">
        <ele>1929.02</ele>
        <time>2016-02-26T09:21:10Z</time>
      </trkpt>
      <trkpt lat="46.6587" lon="12.17114">
        <ele>1929.98</ele>
        <time>2016-02-26T09:21:12Z</time>
      </trkpt>
      <trkpt lat="46.65864" lon="12.17113">
        <ele>1933.35</ele>
        <time>2016-02-26T09:21:13Z</time>
      </trkpt>
      <trkpt lat="46.65859" lon="12.17111">
        <ele>1933.83</ele>
        <time>2016-02-26T09:21:14Z</time>
      </trkpt>
      <trkpt lat="46.65836" lon="12.17103">
        <ele>1937.67</ele>
        <time>2016-02-26T09:21:18Z</time>
      </trkpt>
      <trkpt lat="46.65831" lon="12.17102">
        <ele>1938.64</ele>
        <time>2016-02-26T09:21:19Z</time>
      </trkpt>
      <trkpt lat="46.65826" lon="12.17103">
        <ele>1939.6</ele>
        <time>2016-02-26T09:21:20Z</time>
      </trkpt>
      <trkpt lat="46.65821" lon="12.17105">
        <ele>1940.56</ele>
        <time>2016-02-26T09:21:21Z</time>
      </trkpt>
      <trkpt lat="46.65817" lon="12.17108">
        <ele>1941.52</ele>
        <time>2016-02-26T09:21:22Z</time>
      </trkpt>
      <trkpt lat="46.65813" lon="12.17113">
        <ele>1942</ele>
        <time>2016-02-26T09:21:23Z</time>
      </trkpt>
      <trkpt lat="46.6581" lon="12.17118">
        <ele>1942.96</ele>
        <time>2016-02-26T09:21:24Z</time>
      </trkpt>
      <trkpt lat="46.65807" lon="12.17126">
        <ele>1943.92</ele>
        <time>2016-02-26T09:21:25Z</time>
      </trkpt>
      <trkpt lat="46.65804" lon="12.17134">
        <ele>1944.4</ele>
        <time>2016-02-26T09:21:26Z</time>
      </trkpt>
      <trkpt lat="46.65792" lon="12.17172">
        <ele>1947.29</ele>
        <time>2016-02-26T09:21:30Z</time>
      </trkpt>
      <trkpt lat="46.65779" lon="12.17211">
        <ele>1951.13</ele>
        <time>2016-02-26T09:21:34Z</time>
      </trkpt>
      <trkpt lat="46.65766" lon="12.17237">
        <ele>1954.02</ele>
        <time>2016-02-26T09:21:37Z</time>
      </trkpt>
      <trkpt lat="46.65761" lon="12.17245">
        <ele>1954.98</ele>
        <time>2016-02-26T09:21:38Z</time>
      </trkpt>
      <trkpt lat="46.65756" lon="12.17252">
        <ele>1955.94</ele>
        <time>2016-02-26T09:21:39Z</time>
      </trkpt>
      <trkpt lat="46.65745" lon="12.17264">
        <ele>1958.34</ele>
        <time>2016-02-26T09:21:41Z</time>
      </trkpt>
      <trkpt lat="46.65728" lon="12.17283">
        <ele>1961.71</ele>
        <time>2016-02-26T09:21:44Z</time>
      </trkpt>
      <trkpt lat="46.65723" lon="12.1729">
        <ele>1961.71</ele>
        <time>2016-02-26T09:21:45Z</time>
      </trkpt>
      <trkpt lat="46.65718" lon="12.173">
        <ele>1963.15</ele>
        <time>2016-02-26T09:21:46Z</time>
      </trkpt>
      <trkpt lat="46.65713" lon="12.17309">
        <ele>1965.07</ele>
        <time>2016-02-26T09:21:47Z</time>
      </trkpt>
      <trkpt lat="46.65709" lon="12.17319">
        <ele>1965.55</ele>
        <time>2016-02-26T09:21:48Z</time>
      </trkpt>
      <trkpt lat="46.65706" lon="12.17329">
        <ele>1966.03</ele>
        <time>2016-02-26T09:21:49Z</time>
      </trkpt>
      <trkpt lat="46.65699" lon="12.17348">
        <ele>1968.92</ele>
        <time>2016-02-26T09:21:51Z</time>
      </trkpt>
      <trkpt lat="46.6569" lon="12.17377">
        <ele>1972.28</ele>
        <time>2016-02-26T09:21:54Z</time>
      </trkpt>
      <trkpt lat="46.65683" lon="12.17412">
        <ele>1976.13</ele>
        <time>2016-02-26T09:21:58Z</time>
      </trkpt>
      <trkpt lat="46.65675" lon="12.17444">
        <ele>1979.49</ele>
        <time>2016-02-26T09:22:02Z</time>
      </trkpt>
      <trkpt lat="46.65666" lon="12.17481">
        <ele>1983.82</ele>
        <time>2016-02-26T09:22:06Z</time>
      </trkpt>
      <trkpt lat="46.65657" lon="12.17522">
        <ele>1987.66</ele>
        <time>2016-02-26T09:22:10Z</time>
      </trkpt>
      <trkpt lat="46.6565" lon="12.17552">
        <ele>1991.03</ele>
        <time>2016-02-26T09:22:13Z</time>
      </trkpt>
      <trkpt lat="46.65639" lon="12.17588">
        <ele>1994.87</ele>
        <time>2016-02-26T09:22:17Z</time>
      </trkpt>
      <trkpt lat="46.65633" lon="12.176">
        <ele>1996.32</ele>
        <time>2016-02-26T09:22:19Z</time>
      </trkpt>
      <trkpt lat="46.6563" lon="12.17604">
        <ele>1996.32</ele>
        <time>2016-02-26T09:22:20Z</time>
      </trkpt>
      <trkpt lat="46.65628" lon="12.17609">
        <ele>1996.8</ele>
        <time>2016-02-26T09:22:21Z</time>
      </trkpt>
      <trkpt lat="46.65627" lon="12.17614">
        <ele>1996.8</ele>
        <time>2016-02-26T09:22:22Z</time>
      </trkpt>
      <trkpt lat="46.65627" lon="12.17617">
        <ele>1996.8</ele>
        <time>2016-02-26T09:22:23Z</time>
      </trkpt>
      <trkpt lat="46.65628" lon="12.1762">
        <ele>1997.28</ele>
        <time>2016-02-26T09:22:24Z</time>
      </trkpt>
      <trkpt lat="46.65629" lon="12.17622">
        <ele>1997.28</ele>
        <time>2016-02-26T09:22:25Z</time>
      </trkpt>
      <trkpt lat="46.65631" lon="12.17624">
        <ele>1997.28</ele>
        <time>2016-02-26T09:22:26Z</time>
      </trkpt>
      <trkpt lat="46.65633" lon="12.17625">
        <ele>1997.28</ele>
        <time>2016-02-26T09:22:27Z</time>
      </trkpt>
      <trkpt lat="46.65635" lon="12.17626">
        <ele>1997.28</ele>
        <time>2016-02-26T09:22:28Z</time>
      </trkpt>
      <trkpt lat="46.65645" lon="12.17622">
        <ele>1997.28</ele>
        <time>2016-02-26T09:22:46Z</time>
      </trkpt>
      <trkpt lat="46.65631" lon="12.17615">
        <ele>1996.8</ele>
        <time>2016-02-26T09:22:59Z</time>
      </trkpt>
      <trkpt lat="46.65631" lon="12.17613">
        <ele>1996.32</ele>
        <time>2016-02-26T09:23:15Z</time>
      </trkpt>
      <trkpt lat="46.65631" lon="12.17617">
        <ele>1996.32</ele>
        <time>2016-02-26T09:23:28Z</time>
      </trkpt>
      <trkpt lat="46.65632" lon="12.17622">
        <ele>1995.83</ele>
        <time>2016-02-26T09:23:41Z</time>
      </trkpt>
      <trkpt lat="46.65634" lon="12.17624">
        <ele>1996.32</ele>
        <time>2016-02-26T09:23:57Z</time>
      </trkpt>
      <trkpt lat="46.65634" lon="12.17623">
        <ele>1995.35</ele>
        <time>2016-02-26T09:24:08Z</time>
      </trkpt>
      <trkpt lat="46.65635" lon="12.17624">
        <ele>1994.87</ele>
        <time>2016-02-26T09:24:33Z</time>
      </trkpt>
      <trkpt lat="46.65634" lon="12.17621">
        <ele>1994.87</ele>
        <time>2016-02-26T09:25:06Z</time>
      </trkpt>
      <trkpt lat="46.65633" lon="12.1762">
        <ele>1994.39</ele>
        <time>2016-02-26T09:25:41Z</time>
      </trkpt>
      <trkpt lat="46.65632" lon="12.17621">
        <ele>1993.91</ele>
        <time>2016-02-26T09:26:28Z</time>
      </trkpt>
      <trkpt lat="46.65634" lon="12.17623">
        <ele>1993.43</ele>
        <time>2016-02-26T09:27:08Z</time>
      </trkpt>
      <trkpt lat="46.65634" lon="12.17623">
        <ele>1993.43</ele>
        <time>2016-02-26T09:27:37Z</time>
      </trkpt>
      <trkpt lat="46.65634" lon="12.17623">
        <ele>1988.62</ele>
        <time>2016-02-26T09:27:57Z</time>
      </trkpt>
      <trkpt lat="46.65634" lon="12.17623">
        <ele>1996.8</ele>
        <time>2016-02-26T09:27:58Z</time>
      </trkpt>
      <trkpt lat="46.65634" lon="12.17624">
        <ele>1993.43</ele>
        <time>2016-02-26T09:27:59Z</time>
      </trkpt>
      <trkpt lat="46.65636" lon="12.17622">
        <ele>1993.91</ele>
        <time>2016-02-26T09:28:20Z</time>
      </trkpt>
      <trkpt lat="46.65638" lon="12.17627">
        <ele>1994.39</ele>
        <time>2016-02-26T09:28:31Z</time>
      </trkpt>
      <trkpt lat="46.6564" lon="12.17631">
        <ele>1994.39</ele>
        <time>2016-02-26T09:28:45Z</time>
      </trkpt>
      <trkpt lat="46.65641" lon="12.17632">
        <ele>1994.39</ele>
        <time>2016-02-26T09:29:01Z</time>
      </trkpt>
      <trkpt lat="46.6564" lon="12.17632">
        <ele>1994.87</ele>
        <time>2016-02-26T09:29:19Z</time>
      </trkpt>
      <trkpt lat="46.65639" lon="12.17631">
        <ele>1993.91</ele>
        <time>2016-02-26T09:29:49Z</time>
      </trkpt>
      <trkpt lat="46.65641" lon="12.1763">
        <ele>1993.91</ele>
        <time>2016-02-26T09:30:22Z</time>
      </trkpt>
      <trkpt lat="46.65641" lon="12.17629">
        <ele>1992.95</ele>
        <time>2016-02-26T09:30:49Z</time>
      </trkpt>
      <trkpt lat="46.6564" lon="12.1763">
        <ele>1992.95</ele>
        <time>2016-02-26T09:31:12Z</time>
      </trkpt>
      <trkpt lat="46.65641" lon="12.17632">
        <ele>1992.95</ele>
        <time>2016-02-26T09:31:30Z</time>
      </trkpt>
      <trkpt lat="46.65641" lon="12.17634">
        <ele>1992.95</ele>
        <time>2016-02-26T09:31:47Z</time>
      </trkpt>
      <trkpt lat="46.65642" lon="12.17633">
        <ele>1992.95</ele>
        <time>2016-02-26T09:32:05Z</time>
      </trkpt>
      <trkpt lat="46.65641" lon="12.17633">
        <ele>1992.47</ele>
        <time>2016-02-26T09:32:21Z</time>
      </trkpt>
      <trkpt lat="46.6564" lon="12.17635">
        <ele>1992.47</ele>
        <time>2016-02-26T09:32:38Z</time>
      </trkpt>
      <trkpt lat="46.65638" lon="12.17634">
        <ele>1992.47</ele>
        <time>2016-02-26T09:32:54Z</time>
      </trkpt>
      <trkpt lat="46.65639" lon="12.17634">
        <ele>1992.47</ele>
        <time>2016-02-26T09:33:31Z</time>
      </trkpt>
      <trkpt lat="46.65638" lon="12.17635">
        <ele>1991.99</ele>
        <time>2016-02-26T09:33:52Z</time>
      </trkpt>
      <trkpt lat="46.65637" lon="12.17639">
        <ele>1991.99</ele>
        <time>2016-02-26T09:34:07Z</time>
      </trkpt>
      <trkpt lat="46.65636" lon="12.1764">
        <ele>1992.47</ele>
        <time>2016-02-26T09:34:22Z</time>
      </trkpt>
      <trkpt lat="46.65636" lon="12.17642">
        <ele>1992.47</ele>
        <time>2016-02-26T09:34:41Z</time>
      </trkpt>
      <trkpt lat="46.65634" lon="12.17648">
        <ele>1992.47</ele>
        <time>2016-02-26T09:34:55Z</time>
      </trkpt>
      <trkpt lat="46.65636" lon="12.1765">
        <ele>1992.47</ele>
        <time>2016-02-26T09:35:08Z</time>
      </trkpt>
      <trkpt lat="46.65636" lon="12.17649">
        <ele>1992.47</ele>
        <time>2016-02-26T09:35:38Z</time>
      </trkpt>
      <trkpt lat="46.65634" lon="12.17649">
        <ele>1992.47</ele>
        <time>2016-02-26T09:35:54Z</time>
      </trkpt>
      <trkpt lat="46.65634" lon="12.17648">
        <ele>1991.99</ele>
        <time>2016-02-26T09:36:12Z</time>
      </trkpt>
      <trkpt lat="46.65633" lon="12.17654">
        <ele>1992.47</ele>
        <time>2016-02-26T09:36:27Z</time>
      </trkpt>
      <trkpt lat="46.65631" lon="12.17664">
        <ele>1992.95</ele>
        <time>2016-02-26T09:36:47Z</time>
      </trkpt>
      <trkpt lat="46.65624" lon="12.17683">
        <ele>1993.91</ele>
        <time>2016-02-26T09:37:05Z</time>
      </trkpt>
      <trkpt lat="46.65617" lon="12.17698">
        <ele>1995.35</ele>
        <time>2016-02-26T09:37:21Z</time>
      </trkpt>
      <trkpt lat="46.65607" lon="12.1771">
        <ele>1995.35</ele>
        <time>2016-02-26T09:37:36Z</time>
      </trkpt>
      <trkpt lat="46.65597" lon="12.17718">
        <ele>1995.35</ele>
        <time>2016-02-26T09:37:49Z</time>
      </trkpt>
      <trkpt lat="46.6559" lon="12.17724">
        <ele>1995.35</ele>
        <time>2016-02-26T09:38:02Z</time>
      </trkpt>
      <trkpt lat="46.65575" lon="12.17735">
        <ele>1995.35</ele>
        <time>2016-02-26T09:38:21Z</time>
      </trkpt>
      <trkpt lat="46.65561" lon="12.17748">
        <ele>1995.83</ele>
        <time>2016-02-26T09:38:42Z</time>
      </trkpt>
      <trkpt lat="46.65557" lon="12.17752">
        <ele>1995.83</ele>
        <time>2016-02-26T09:38:53Z</time>
      </trkpt>
      <trkpt lat="46.65547" lon="12.17759">
        <ele>1996.32</ele>
        <time>2016-02-26T09:39:07Z</time>
      </trkpt>
      <trkpt lat="46.65532" lon="12.17767">
        <ele>1996.8</ele>
        <time>2016-02-26T09:39:25Z</time>
      </trkpt>
      <trkpt lat="46.6552" lon="12.17776">
        <ele>1997.76</ele>
        <time>2016-02-26T09:39:42Z</time>
      </trkpt>
      <trkpt lat="46.65507" lon="12.17781">
        <ele>1998.72</ele>
        <time>2016-02-26T09:39:57Z</time>
      </trkpt>
      <trkpt lat="46.65501" lon="12.17788">
        <ele>1999.2</ele>
        <time>2016-02-26T09:40:11Z</time>
      </trkpt>
      <trkpt lat="46.65491" lon="12.17796">
        <ele>1999.68</ele>
        <time>2016-02-26T09:40:25Z</time>
      </trkpt>
      <trkpt lat="46.65479" lon="12.17806">
        <ele>2000.64</ele>
        <time>2016-02-26T09:40:41Z</time>
      </trkpt>
      <trkpt lat="46.65472" lon="12.17813">
        <ele>2000.64</ele>
        <time>2016-02-26T09:40:54Z</time>
      </trkpt>
      <trkpt lat="46.65459" lon="12.17826">
        <ele>2001.6</ele>
        <time>2016-02-26T09:41:11Z</time>
      </trkpt>
      <trkpt lat="46.65455" lon="12.17835">
        <ele>2002.08</ele>
        <time>2016-02-26T09:41:19Z</time>
      </trkpt>
      <trkpt lat="46.65442" lon="12.17852">
        <ele>2002.56</ele>
        <time>2016-02-26T09:41:38Z</time>
      </trkpt>
      <trkpt lat="46.65433" lon="12.17862">
        <ele>2003.04</ele>
        <time>2016-02-26T09:41:51Z</time>
      </trkpt>
      <trkpt lat="46.65418" lon="12.17873">
        <ele>2004.01</ele>
        <time>2016-02-26T09:42:08Z</time>
      </trkpt>
      <trkpt lat="46.65406" lon="12.17883">
        <ele>2004.97</ele>
        <time>2016-02-26T09:42:24Z</time>
      </trkpt>
      <trkpt lat="46.65393" lon="12.17892">
        <ele>2005.93</ele>
        <time>2016-02-26T09:42:40Z</time>
      </trkpt>
      <trkpt lat="46.65388" lon="12.17899">
        <ele>2005.93</ele>
        <time>2016-02-26T09:42:56Z</time>
      </trkpt>
      <trkpt lat="46.65386" lon="12.17907">
        <ele>2006.41</ele>
        <time>2016-02-26T09:43:06Z</time>
      </trkpt>
      <trkpt lat="46.65386" lon="12.17908">
        <ele>2005.93</ele>
        <time>2016-02-26T09:43:07Z</time>
      </trkpt>
      <trkpt lat="46.65385" lon="12.17911">
        <ele>2005.45</ele>
        <time>2016-02-26T09:43:18Z</time>
      </trkpt>
      <trkpt lat="46.65387" lon="12.17915">
        <ele>2004.97</ele>
        <time>2016-02-26T09:43:42Z</time>
      </trkpt>
      <trkpt lat="46.65389" lon="12.17915">
        <ele>2004.97</ele>
        <time>2016-02-26T09:44:15Z</time>
      </trkpt>
      <trkpt lat="46.65387" lon="12.17913">
        <ele>2005.93</ele>
        <time>2016-02-26T09:44:29Z</time>
      </trkpt>
      <trkpt lat="46.65386" lon="12.17912">
        <ele>2005.93</ele>
        <time>2016-02-26T09:44:40Z</time>
      </trkpt>
      <trkpt lat="46.65383" lon="12.1791">
        <ele>2005.93</ele>
        <time>2016-02-26T09:45:01Z</time>
      </trkpt>
      <trkpt lat="46.65383" lon="12.17911">
        <ele>2005.45</ele>
        <time>2016-02-26T09:45:22Z</time>
      </trkpt>
      <trkpt lat="46.65384" lon="12.1791">
        <ele>2005.45</ele>
        <time>2016-02-26T09:45:39Z</time>
      </trkpt>
      <trkpt lat="46.65382" lon="12.1791">
        <ele>2005.45</ele>
        <time>2016-02-26T09:46:00Z</time>
      </trkpt>
      <trkpt lat="46.65386" lon="12.17904">
        <ele>2004.97</ele>
        <time>2016-02-26T09:46:15Z</time>
      </trkpt>
      <trkpt lat="46.65388" lon="12.17904">
        <ele>2004.97</ele>
        <time>2016-02-26T09:46:33Z</time>
      </trkpt>
      <trkpt lat="46.65385" lon="12.17905">
        <ele>2004.97</ele>
        <time>2016-02-26T09:46:52Z</time>
      </trkpt>
      <trkpt lat="46.65388" lon="12.17905">
        <ele>2004.97</ele>
        <time>2016-02-26T09:47:11Z</time>
      </trkpt>
      <trkpt lat="46.65386" lon="12.17906">
        <ele>2004.97</ele>
        <time>2016-02-26T09:47:27Z</time>
      </trkpt>
      <trkpt lat="46.65387" lon="12.17905">
        <ele>2004.49</ele>
        <time>2016-02-26T09:47:47Z</time>
      </trkpt>
      <trkpt lat="46.65392" lon="12.17902">
        <ele>2004.49</ele>
        <time>2016-02-26T09:48:02Z</time>
      </trkpt>
      <trkpt lat="46.65399" lon="12.17896">
        <ele>2004.49</ele>
        <time>2016-02-26T09:48:10Z</time>
      </trkpt>
      <trkpt lat="46.65399" lon="12.17893">
        <ele>2004.01</ele>
        <time>2016-02-26T09:48:12Z</time>
      </trkpt>
      <trkpt lat="46.654" lon="12.17892">
        <ele>2004.01</ele>
        <time>2016-02-26T09:48:13Z</time>
      </trkpt>
      <trkpt lat="46.65401" lon="12.17891">
        <ele>2004.01</ele>
        <time>2016-02-26T09:48:14Z</time>
      </trkpt>
      <trkpt lat="46.65408" lon="12.17885">
        <ele>2003.52</ele>
        <time>2016-02-26T09:48:32Z</time>
      </trkpt>
      <trkpt lat="46.65406" lon="12.17885">
        <ele>2003.52</ele>
        <time>2016-02-26T09:48:42Z</time>
      </trkpt>
      <trkpt lat="46.65404" lon="12.17886">
        <ele>2003.52</ele>
        <time>2016-02-26T09:48:44Z</time>
      </trkpt>
      <trkpt lat="46.65402" lon="12.17887">
        <ele>2003.52</ele>
        <time>2016-02-26T09:48:46Z</time>
      </trkpt>
      <trkpt lat="46.65385" lon="12.17905">
        <ele>2004.49</ele>
        <time>2016-02-26T09:49:05Z</time>
      </trkpt>
      <trkpt lat="46.65378" lon="12.17907">
        <ele>2004.49</ele>
        <time>2016-02-26T09:49:18Z</time>
      </trkpt>
      <trkpt lat="46.65372" lon="12.1791">
        <ele>2004.01</ele>
        <time>2016-02-26T09:49:34Z</time>
      </trkpt>
      <trkpt lat="46.65359" lon="12.17918">
        <ele>2004.01</ele>
        <time>2016-02-26T09:49:49Z</time>
      </trkpt>
      <trkpt lat="46.65344" lon="12.17928">
        <ele>2004.49</ele>
        <time>2016-02-26T09:50:06Z</time>
      </trkpt>
      <trkpt lat="46.65326" lon="12.17942">
        <ele>2004.49</ele>
        <time>2016-02-26T09:50:27Z</time>
      </trkpt>
      <trkpt lat="46.65315" lon="12.17948">
        <ele>2004.49</ele>
        <time>2016-02-26T09:50:39Z</time>
      </trkpt>
      <trkpt lat="46.65314" lon="12.17948">
        <ele>2004.49</ele>
        <time>2016-02-26T09:50:40Z</time>
      </trkpt>
      <trkpt lat="46.65312" lon="12.17947">
        <ele>2004.49</ele>
        <time>2016-02-26T09:50:41Z</time>
      </trkpt>
      <trkpt lat="46.65311" lon="12.17953">
        <ele>2004.49</ele>
        <time>2016-02-26T09:50:53Z</time>
      </trkpt>
      <trkpt lat="46.65307" lon="12.17957">
        <ele>2004.49</ele>
        <time>2016-02-26T09:51:02Z</time>
      </trkpt>
      <trkpt lat="46.65303" lon="12.1796">
        <ele>2004.49</ele>
        <time>2016-02-26T09:51:07Z</time>
      </trkpt>
      <trkpt lat="46.65289" lon="12.17974">
        <ele>2004.97</ele>
        <time>2016-02-26T09:51:26Z</time>
      </trkpt>
      <trkpt lat="46.6528" lon="12.17983">
        <ele>2004.97</ele>
        <time>2016-02-26T09:51:41Z</time>
      </trkpt>
      <trkpt lat="46.65274" lon="12.17995">
        <ele>2004.97</ele>
        <time>2016-02-26T09:51:56Z</time>
      </trkpt>
      <trkpt lat="46.65267" lon="12.18008">
        <ele>2004.97</ele>
        <time>2016-02-26T09:52:12Z</time>
      </trkpt>
      <trkpt lat="46.65264" lon="12.18023">
        <ele>2004.97</ele>
        <time>2016-02-26T09:52:28Z</time>
      </trkpt>
      <trkpt lat="46.65262" lon="12.18035">
        <ele>2004.97</ele>
        <time>2016-02-26T09:52:40Z</time>
      </trkpt>
      <trkpt lat="46.65261" lon="12.18039">
        <ele>2004.97</ele>
        <time>2016-02-26T09:52:43Z</time>
      </trkpt>
      <trkpt lat="46.65256" lon="12.18069">
        <ele>2004.97</ele>
        <time>2016-02-26T09:53:03Z</time>
      </trkpt>
      <trkpt lat="46.65256" lon="12.18091">
        <ele>2004.97</ele>
        <time>2016-02-26T09:53:20Z</time>
      </trkpt>
      <trkpt lat="46.6526" lon="12.18116">
        <ele>2004.97</ele>
        <time>2016-02-26T09:53:38Z</time>
      </trkpt>
      <trkpt lat="46.6526" lon="12.18118">
        <ele>2004.97</ele>
        <time>2016-02-26T09:53:39Z</time>
      </trkpt>
      <trkpt lat="46.6526" lon="12.18119">
        <ele>2004.97</ele>
        <time>2016-02-26T09:53:40Z</time>
      </trkpt>
      <trkpt lat="46.6526" lon="12.1812">
        <ele>2004.97</ele>
        <time>2016-02-26T09:53:41Z</time>
      </trkpt>
      <trkpt lat="46.6527" lon="12.18137">
        <ele>2005.45</ele>
        <time>2016-02-26T09:53:56Z</time>
      </trkpt>
      <trkpt lat="46.65283" lon="12.18152">
        <ele>2004.97</ele>
        <time>2016-02-26T09:54:14Z</time>
      </trkpt>
      <trkpt lat="46.65295" lon="12.1817">
        <ele>2004.97</ele>
        <time>2016-02-26T09:54:31Z</time>
      </trkpt>
      <trkpt lat="46.653" lon="12.18183">
        <ele>2004.49</ele>
        <time>2016-02-26T09:54:45Z</time>
      </trkpt>
      <trkpt lat="46.65301" lon="12.18207">
        <ele>2004.97</ele>
        <time>2016-02-26T09:55:03Z</time>
      </trkpt>
      <trkpt lat="46.65287" lon="12.18222">
        <ele>2004.97</ele>
        <time>2016-02-26T09:55:24Z</time>
      </trkpt>
      <trkpt lat="46.6528" lon="12.1823">
        <ele>2005.45</ele>
        <time>2016-02-26T09:55:38Z</time>
      </trkpt>
      <trkpt lat="46.65277" lon="12.18234">
        <ele>2004.97</ele>
        <time>2016-02-26T09:55:42Z</time>
      </trkpt>
      <trkpt lat="46.65272" lon="12.18243">
        <ele>2005.45</ele>
        <time>2016-02-26T09:55:51Z</time>
      </trkpt>
      <trkpt lat="46.65264" lon="12.1826">
        <ele>2004.49</ele>
        <time>2016-02-26T09:56:08Z</time>
      </trkpt>
      <trkpt lat="46.65249" lon="12.18261">
        <ele>2004.97</ele>
        <time>2016-02-26T09:56:25Z</time>
      </trkpt>
      <trkpt lat="46.65246" lon="12.1826">
        <ele>2005.45</ele>
        <time>2016-02-26T09:56:29Z</time>
      </trkpt>
      <trkpt lat="46.65232" lon="12.18259">
        <ele>2005.93</ele>
        <time>2016-02-26T09:56:44Z</time>
      </trkpt>
      <trkpt lat="46.65216" lon="12.18269">
        <ele>2005.93</ele>
        <time>2016-02-26T09:57:01Z</time>
      </trkpt>
      <trkpt lat="46.65204" lon="12.18282">
        <ele>2005.45</ele>
        <time>2016-02-26T09:57:17Z</time>
      </trkpt>
      <trkpt lat="46.65188" lon="12.18297">
        <ele>2005.45</ele>
        <time>2016-02-26T09:57:35Z</time>
      </trkpt>
      <trkpt lat="46.65174" lon="12.18312">
        <ele>2005.45</ele>
        <time>2016-02-26T09:57:52Z</time>
      </trkpt>
      <trkpt lat="46.6516" lon="12.18328">
        <ele>2005.93</ele>
        <time>2016-02-26T09:58:11Z</time>
      </trkpt>
      <trkpt lat="46.65147" lon="12.1834">
        <ele>2006.41</ele>
        <time>2016-02-26T09:58:27Z</time>
      </trkpt>
      <trkpt lat="46.65137" lon="12.18351">
        <ele>2006.89</ele>
        <time>2016-02-26T09:58:42Z</time>
      </trkpt>
      <trkpt lat="46.65123" lon="12.18363">
        <ele>2007.37</ele>
        <time>2016-02-26T09:58:59Z</time>
      </trkpt>
      <trkpt lat="46.65109" lon="12.18376">
        <ele>2007.37</ele>
        <time>2016-02-26T09:59:16Z</time>
      </trkpt>
      <trkpt lat="46.65097" lon="12.18388">
        <ele>2008.33</ele>
        <time>2016-02-26T09:59:32Z</time>
      </trkpt>
      <trkpt lat="46.65082" lon="12.18406">
        <ele>2008.81</ele>
        <time>2016-02-26T09:59:52Z</time>
      </trkpt>
      <trkpt lat="46.6507" lon="12.18422">
        <ele>2008.81</ele>
        <time>2016-02-26T10:00:09Z</time>
      </trkpt>
      <trkpt lat="46.6506" lon="12.18429">
        <ele>2008.81</ele>
        <time>2016-02-26T10:00:21Z</time>
      </trkpt>
      <trkpt lat="46.65045" lon="12.18437">
        <ele>2009.77</ele>
        <time>2016-02-26T10:00:38Z</time>
      </trkpt>
      <trkpt lat="46.65032" lon="12.1845">
        <ele>2009.77</ele>
        <time>2016-02-26T10:00:55Z</time>
      </trkpt>
      <trkpt lat="46.65016" lon="12.18465">
        <ele>2010.73</ele>
        <time>2016-02-26T10:01:13Z</time>
      </trkpt>
      <trkpt lat="46.65001" lon="12.18479">
        <ele>2010.73</ele>
        <time>2016-02-26T10:01:31Z</time>
      </trkpt>
      <trkpt lat="46.64989" lon="12.18494">
        <ele>2011.22</ele>
        <time>2016-02-26T10:01:48Z</time>
      </trkpt>
      <trkpt lat="46.64978" lon="12.1851">
        <ele>2011.7</ele>
        <time>2016-02-26T10:02:05Z</time>
      </trkpt>
      <trkpt lat="46.6497" lon="12.18517">
        <ele>2012.18</ele>
        <time>2016-02-26T10:02:20Z</time>
      </trkpt>
      <trkpt lat="46.64967" lon="12.18519">
        <ele>2012.18</ele>
        <time>2016-02-26T10:02:30Z</time>
      </trkpt>
      <trkpt lat="46.64963" lon="12.18524">
        <ele>2012.18</ele>
        <time>2016-02-26T10:02:42Z</time>
      </trkpt>
      <trkpt lat="46.64954" lon="12.18534">
        <ele>2012.66</ele>
        <time>2016-02-26T10:02:56Z</time>
      </trkpt>
      <trkpt lat="46.6495" lon="12.18538">
        <ele>2012.66</ele>
        <time>2016-02-26T10:03:03Z</time>
      </trkpt>
      <trkpt lat="46.64948" lon="12.18544">
        <ele>2012.66</ele>
        <time>2016-02-26T10:03:09Z</time>
      </trkpt>
      <trkpt lat="46.64948" lon="12.18546">
        <ele>2012.66</ele>
        <time>2016-02-26T10:03:10Z</time>
      </trkpt>
      <trkpt lat="46.64945" lon="12.18548">
        <ele>2012.66</ele>
        <time>2016-02-26T10:03:14Z</time>
      </trkpt>
      <trkpt lat="46.64936" lon="12.18561">
        <ele>2012.66</ele>
        <time>2016-02-26T10:03:28Z</time>
      </trkpt>
      <trkpt lat="46.64935" lon="12.18563">
        <ele>2013.14</ele>
        <time>2016-02-26T10:03:31Z</time>
      </trkpt>
      <trkpt lat="46.64932" lon="12.18568">
        <ele>2012.66</ele>
        <time>2016-02-26T10:03:36Z</time>
      </trkpt>
      <trkpt lat="46.64927" lon="12.18574">
        <ele>2012.66</ele>
        <time>2016-02-26T10:03:44Z</time>
      </trkpt>
      <trkpt lat="46.64927" lon="12.18575">
        <ele>2013.14</ele>
        <time>2016-02-26T10:03:45Z</time>
      </trkpt>
      <trkpt lat="46.64927" lon="12.18576">
        <ele>2013.14</ele>
        <time>2016-02-26T10:03:46Z</time>
      </trkpt>
      <trkpt lat="46.64926" lon="12.18578">
        <ele>2012.66</ele>
        <time>2016-02-26T10:03:59Z</time>
      </trkpt>
      <trkpt lat="46.64922" lon="12.18584">
        <ele>2012.66</ele>
        <time>2016-02-26T10:04:07Z</time>
      </trkpt>
      <trkpt lat="46.64921" lon="12.18585">
        <ele>2012.18</ele>
        <time>2016-02-26T10:04:08Z</time>
      </trkpt>
      <trkpt lat="46.6491" lon="12.18598">
        <ele>2013.14</ele>
        <time>2016-02-26T10:04:24Z</time>
      </trkpt>
      <trkpt lat="46.64903" lon="12.18611">
        <ele>2013.14</ele>
        <time>2016-02-26T10:04:40Z</time>
      </trkpt>
      <trkpt lat="46.64898" lon="12.18617">
        <ele>2012.66</ele>
        <time>2016-02-26T10:04:47Z</time>
      </trkpt>
      <trkpt lat="46.64886" lon="12.18635">
        <ele>2013.14</ele>
        <time>2016-02-26T10:05:05Z</time>
      </trkpt>
      <trkpt lat="46.64884" lon="12.18637">
        <ele>2011.7</ele>
        <time>2016-02-26T10:05:17Z</time>
      </trkpt>
      <trkpt lat="46.64884" lon="12.18637">
        <ele>2011.7</ele>
        <time>2016-02-26T10:05:18Z</time>
      </trkpt>
      <trkpt lat="46.64884" lon="12.18635">
        <ele>2013.14</ele>
        <time>2016-02-26T10:05:48Z</time>
      </trkpt>
      <trkpt lat="46.64881" lon="12.18642">
        <ele>2012.66</ele>
        <time>2016-02-26T10:06:00Z</time>
      </trkpt>
      <trkpt lat="46.64874" lon="12.18652">
        <ele>2012.66</ele>
        <time>2016-02-26T10:06:12Z</time>
      </trkpt>
      <trkpt lat="46.64863" lon="12.18675">
        <ele>2012.66</ele>
        <time>2016-02-26T10:06:30Z</time>
      </trkpt>
      <trkpt lat="46.64857" lon="12.18682">
        <ele>2012.66</ele>
        <time>2016-02-26T10:06:38Z</time>
      </trkpt>
      <trkpt lat="46.64856" lon="12.18684">
        <ele>2012.66</ele>
        <time>2016-02-26T10:06:39Z</time>
      </trkpt>
      <trkpt lat="46.64855" lon="12.18685">
        <ele>2013.14</ele>
        <time>2016-02-26T10:06:40Z</time>
      </trkpt>
      <trkpt lat="46.64844" lon="12.18706">
        <ele>2012.66</ele>
        <time>2016-02-26T10:06:58Z</time>
      </trkpt>
      <trkpt lat="46.64838" lon="12.18716">
        <ele>2013.14</ele>
        <time>2016-02-26T10:07:07Z</time>
      </trkpt>
      <trkpt lat="46.64837" lon="12.18717">
        <ele>2013.14</ele>
        <time>2016-02-26T10:07:08Z</time>
      </trkpt>
      <trkpt lat="46.64826" lon="12.18739">
        <ele>2013.14</ele>
        <time>2016-02-26T10:07:27Z</time>
      </trkpt>
      <trkpt lat="46.64816" lon="12.18757">
        <ele>2013.14</ele>
        <time>2016-02-26T10:07:43Z</time>
      </trkpt>
      <trkpt lat="46.64804" lon="12.18781">
        <ele>2013.14</ele>
        <time>2016-02-26T10:08:05Z</time>
      </trkpt>
      <trkpt lat="46.64795" lon="12.18796">
        <ele>2013.14</ele>
        <time>2016-02-26T10:08:19Z</time>
      </trkpt>
      <trkpt lat="46.64785" lon="12.18815">
        <ele>2013.14</ele>
        <time>2016-02-26T10:08:36Z</time>
      </trkpt>
      <trkpt lat="46.64773" lon="12.18844">
        <ele>2013.14</ele>
        <time>2016-02-26T10:08:58Z</time>
      </trkpt>
      <trkpt lat="46.64773" lon="12.18846">
        <ele>2013.14</ele>
        <time>2016-02-26T10:09:13Z</time>
      </trkpt>
      <trkpt lat="46.64769" lon="12.18848">
        <ele>2012.66</ele>
        <time>2016-02-26T10:09:22Z</time>
      </trkpt>
      <trkpt lat="46.6476" lon="12.18858">
        <ele>2012.66</ele>
        <time>2016-02-26T10:09:34Z</time>
      </trkpt>
      <trkpt lat="46.64758" lon="12.1886">
        <ele>2012.66</ele>
        <time>2016-02-26T10:09:37Z</time>
      </trkpt>
      <trkpt lat="46.64757" lon="12.18861">
        <ele>2012.66</ele>
        <time>2016-02-26T10:09:38Z</time>
      </trkpt>
      <trkpt lat="46.64742" lon="12.18878">
        <ele>2012.66</ele>
        <time>2016-02-26T10:09:58Z</time>
      </trkpt>
      <trkpt lat="46.64738" lon="12.18885">
        <ele>2012.66</ele>
        <time>2016-02-26T10:10:04Z</time>
      </trkpt>
      <trkpt lat="46.64727" lon="12.18899">
        <ele>2013.14</ele>
        <time>2016-02-26T10:10:21Z</time>
      </trkpt>
      <trkpt lat="46.64713" lon="12.18917">
        <ele>2013.14</ele>
        <time>2016-02-26T10:10:40Z</time>
      </trkpt>
      <trkpt lat="46.64702" lon="12.18935">
        <ele>2013.14</ele>
        <time>2016-02-26T10:10:58Z</time>
      </trkpt>
      <trkpt lat="46.647" lon="12.18937">
        <ele>2013.14</ele>
        <time>2016-02-26T10:11:00Z</time>
      </trkpt>
      <trkpt lat="46.647" lon="12.18938">
        <ele>2013.14</ele>
        <time>2016-02-26T10:11:01Z</time>
      </trkpt>
      <trkpt lat="46.6469" lon="12.18947">
        <ele>2012.66</ele>
        <time>2016-02-26T10:11:14Z</time>
      </trkpt>
      <trkpt lat="46.6468" lon="12.18961">
        <ele>2012.66</ele>
        <time>2016-02-26T10:11:33Z</time>
      </trkpt>
      <trkpt lat="46.64675" lon="12.18965">
        <ele>2012.66</ele>
        <time>2016-02-26T10:11:48Z</time>
      </trkpt>
      <trkpt lat="46.64668" lon="12.18975">
        <ele>2012.66</ele>
        <time>2016-02-26T10:12:03Z</time>
      </trkpt>
      <trkpt lat="46.64656" lon="12.18992">
        <ele>2013.14</ele>
        <time>2016-02-26T10:12:20Z</time>
      </trkpt>
      <trkpt lat="46.64645" lon="12.19007">
        <ele>2012.66</ele>
        <time>2016-02-26T10:12:37Z</time>
      </trkpt>
      <trkpt lat="46.64632" lon="12.19025">
        <ele>2012.66</ele>
        <time>2016-02-26T10:12:55Z</time>
      </trkpt>
      <trkpt lat="46.64618" lon="12.19045">
        <ele>2012.66</ele>
        <time>2016-02-26T10:13:15Z</time>
      </trkpt>
      <trkpt lat="46.64605" lon="12.19061">
        <ele>2012.66</ele>
        <time>2016-02-26T10:13:33Z</time>
      </trkpt>
      <trkpt lat="46.64591" lon="12.1908">
        <ele>2012.66</ele>
        <time>2016-02-26T10:13:53Z</time>
      </trkpt>
      <trkpt lat="46.64579" lon="12.19096">
        <ele>2012.66</ele>
        <time>2016-02-26T10:14:10Z</time>
      </trkpt>
      <trkpt lat="46.64577" lon="12.19098">
        <ele>2012.66</ele>
        <time>2016-02-26T10:14:13Z</time>
      </trkpt>
      <trkpt lat="46.64566" lon="12.19113">
        <ele>2012.66</ele>
        <time>2016-02-26T10:14:29Z</time>
      </trkpt>
      <trkpt lat="46.64553" lon="12.19127">
        <ele>2012.66</ele>
        <time>2016-02-26T10:14:48Z</time>
      </trkpt>
      <trkpt lat="46.6454" lon="12.1914">
        <ele>2012.66</ele>
        <time>2016-02-26T10:15:04Z</time>
      </trkpt>
      <trkpt lat="46.64524" lon="12.19154">
        <ele>2012.66</ele>
        <time>2016-02-26T10:15:24Z</time>
      </trkpt>
      <trkpt lat="46.64508" lon="12.19171">
        <ele>2012.66</ele>
        <time>2016-02-26T10:15:44Z</time>
      </trkpt>
      <trkpt lat="46.64497" lon="12.19184">
        <ele>2012.66</ele>
        <time>2016-02-26T10:16:00Z</time>
      </trkpt>
      <trkpt lat="46.64484" lon="12.19211">
        <ele>2012.66</ele>
        <time>2016-02-26T10:16:23Z</time>
      </trkpt>
      <trkpt lat="46.64483" lon="12.19215">
        <ele>2012.66</ele>
        <time>2016-02-26T10:16:26Z</time>
      </trkpt>
      <trkpt lat="46.64476" lon="12.19239">
        <ele>2012.66</ele>
        <time>2016-02-26T10:16:47Z</time>
      </trkpt>
      <trkpt lat="46.6447" lon="12.19254">
        <ele>2012.66</ele>
        <time>2016-02-26T10:17:01Z</time>
      </trkpt>
      <trkpt lat="46.64463" lon="12.1927">
        <ele>2013.14</ele>
        <time>2016-02-26T10:17:17Z</time>
      </trkpt>
      <trkpt lat="46.64454" lon="12.19281">
        <ele>2013.14</ele>
        <time>2016-02-26T10:17:31Z</time>
      </trkpt>
      <trkpt lat="46.64446" lon="12.19294">
        <ele>2013.14</ele>
        <time>2016-02-26T10:17:45Z</time>
      </trkpt>
      <trkpt lat="46.6444" lon="12.19304">
        <ele>2013.62</ele>
        <time>2016-02-26T10:17:59Z</time>
      </trkpt>
      <trkpt lat="46.64436" lon="12.19324">
        <ele>2013.62</ele>
        <time>2016-02-26T10:18:16Z</time>
      </trkpt>
      <trkpt lat="46.64434" lon="12.19344">
        <ele>2014.1</ele>
        <time>2016-02-26T10:18:32Z</time>
      </trkpt>
      <trkpt lat="46.64429" lon="12.19361">
        <ele>2014.58</ele>
        <time>2016-02-26T10:18:49Z</time>
      </trkpt>
      <trkpt lat="46.64418" lon="12.19371">
        <ele>2015.06</ele>
        <time>2016-02-26T10:19:06Z</time>
      </trkpt>
      <trkpt lat="46.64407" lon="12.19377">
        <ele>2016.02</ele>
        <time>2016-02-26T10:19:21Z</time>
      </trkpt>
      <trkpt lat="46.64396" lon="12.19379">
        <ele>2017.94</ele>
        <time>2016-02-26T10:19:36Z</time>
      </trkpt>
      <trkpt lat="46.6439" lon="12.19376">
        <ele>2018.43</ele>
        <time>2016-02-26T10:19:51Z</time>
      </trkpt>
      <trkpt lat="46.64391" lon="12.19383">
        <ele>2018.43</ele>
        <time>2016-02-26T10:20:05Z</time>
      </trkpt>
      <trkpt lat="46.64386" lon="12.19386">
        <ele>2018.43</ele>
        <time>2016-02-26T10:20:22Z</time>
      </trkpt>
      <trkpt lat="46.64377" lon="12.19392">
        <ele>2019.39</ele>
        <time>2016-02-26T10:20:38Z</time>
      </trkpt>
      <trkpt lat="46.64365" lon="12.19398">
        <ele>2020.35</ele>
        <time>2016-02-26T10:20:55Z</time>
      </trkpt>
      <trkpt lat="46.64361" lon="12.19402">
        <ele>2021.31</ele>
        <time>2016-02-26T10:21:07Z</time>
      </trkpt>
      <trkpt lat="46.64349" lon="12.1941">
        <ele>2022.75</ele>
        <time>2016-02-26T10:21:24Z</time>
      </trkpt>
      <trkpt lat="46.64345" lon="12.19418">
        <ele>2023.71</ele>
        <time>2016-02-26T10:21:36Z</time>
      </trkpt>
      <trkpt lat="46.64337" lon="12.19422">
        <ele>2024.19</ele>
        <time>2016-02-26T10:21:46Z</time>
      </trkpt>
      <trkpt lat="46.64326" lon="12.19431">
        <ele>2025.64</ele>
        <time>2016-02-26T10:21:59Z</time>
      </trkpt>
      <trkpt lat="46.64314" lon="12.19441">
        <ele>2027.56</ele>
        <time>2016-02-26T10:22:14Z</time>
      </trkpt>
      <trkpt lat="46.64308" lon="12.19447">
        <ele>2028.52</ele>
        <time>2016-02-26T10:22:22Z</time>
      </trkpt>
      <trkpt lat="46.64297" lon="12.19463">
        <ele>2030.44</ele>
        <time>2016-02-26T10:22:38Z</time>
      </trkpt>
      <trkpt lat="46.64288" lon="12.19482">
        <ele>2031.88</ele>
        <time>2016-02-26T10:22:54Z</time>
      </trkpt>
      <trkpt lat="46.64283" lon="12.195">
        <ele>2032.36</ele>
        <time>2016-02-26T10:23:12Z</time>
      </trkpt>
      <trkpt lat="46.64278" lon="12.19503">
        <ele>2032.36</ele>
        <time>2016-02-26T10:23:18Z</time>
      </trkpt>
      <trkpt lat="46.64262" lon="12.19507">
        <ele>2033.81</ele>
        <time>2016-02-26T10:23:35Z</time>
      </trkpt>
      <trkpt lat="46.64249" lon="12.19506">
        <ele>2034.77</ele>
        <time>2016-02-26T10:23:51Z</time>
      </trkpt>
      <trkpt lat="46.64242" lon="12.19509">
        <ele>2035.25</ele>
        <time>2016-02-26T10:24:04Z</time>
      </trkpt>
      <trkpt lat="46.64234" lon="12.19512">
        <ele>2036.69</ele>
        <time>2016-02-26T10:24:12Z</time>
      </trkpt>
      <trkpt lat="46.64222" lon="12.19521">
        <ele>2038.61</ele>
        <time>2016-02-26T10:24:29Z</time>
      </trkpt>
      <trkpt lat="46.64212" lon="12.1953">
        <ele>2040.54</ele>
        <time>2016-02-26T10:24:44Z</time>
      </trkpt>
      <trkpt lat="46.64211" lon="12.19531">
        <ele>2041.02</ele>
        <time>2016-02-26T10:24:46Z</time>
      </trkpt>
      <trkpt lat="46.64203" lon="12.1954">
        <ele>2041.98</ele>
        <time>2016-02-26T10:25:00Z</time>
      </trkpt>
      <trkpt lat="46.64198" lon="12.19545">
        <ele>2041.98</ele>
        <time>2016-02-26T10:25:13Z</time>
      </trkpt>
      <trkpt lat="46.64198" lon="12.19554">
        <ele>2041.98</ele>
        <time>2016-02-26T10:25:31Z</time>
      </trkpt>
      <trkpt lat="46.64202" lon="12.19564">
        <ele>2041.98</ele>
        <time>2016-02-26T10:25:46Z</time>
      </trkpt>
      <trkpt lat="46.64204" lon="12.19564">
        <ele>2041.98</ele>
        <time>2016-02-26T10:25:47Z</time>
      </trkpt>
      <trkpt lat="46.64209" lon="12.19568">
        <ele>2042.46</ele>
        <time>2016-02-26T10:25:54Z</time>
      </trkpt>
      <trkpt lat="46.64212" lon="12.19565">
        <ele>2042.46</ele>
        <time>2016-02-26T10:25:59Z</time>
      </trkpt>
      <trkpt lat="46.6422" lon="12.19556">
        <ele>2042.94</ele>
        <time>2016-02-26T10:26:15Z</time>
      </trkpt>
      <trkpt lat="46.64222" lon="12.19556">
        <ele>2042.46</ele>
        <time>2016-02-26T10:26:35Z</time>
      </trkpt>
      <trkpt lat="46.64226" lon="12.19555">
        <ele>2042.94</ele>
        <time>2016-02-26T10:26:48Z</time>
      </trkpt>
      <trkpt lat="46.64225" lon="12.19553">
        <ele>2042.94</ele>
        <time>2016-02-26T10:27:06Z</time>
      </trkpt>
      <trkpt lat="46.64221" lon="12.19554">
        <ele>2042.94</ele>
        <time>2016-02-26T10:27:21Z</time>
      </trkpt>
      <trkpt lat="46.64224" lon="12.19554">
        <ele>2042.94</ele>
        <time>2016-02-26T10:27:31Z</time>
      </trkpt>
      <trkpt lat="46.64223" lon="12.19552">
        <ele>2042.94</ele>
        <time>2016-02-26T10:27:43Z</time>
      </trkpt>
      <trkpt lat="46.64223" lon="12.19556">
        <ele>2042.94</ele>
        <time>2016-02-26T10:27:57Z</time>
      </trkpt>
      <trkpt lat="46.64222" lon="12.19552">
        <ele>2042.94</ele>
        <time>2016-02-26T10:28:16Z</time>
      </trkpt>
      <trkpt lat="46.64219" lon="12.19553">
        <ele>2042.94</ele>
        <time>2016-02-26T10:28:32Z</time>
      </trkpt>
      <trkpt lat="46.6422" lon="12.19552">
        <ele>2042.94</ele>
        <time>2016-02-26T10:28:49Z</time>
      </trkpt>
      <trkpt lat="46.64221" lon="12.19555">
        <ele>2043.42</ele>
        <time>2016-02-26T10:29:01Z</time>
      </trkpt>
      <trkpt lat="46.64222" lon="12.19555">
        <ele>2042.94</ele>
        <time>2016-02-26T10:29:02Z</time>
      </trkpt>
      <trkpt lat="46.64223" lon="12.19556">
        <ele>2042.94</ele>
        <time>2016-02-26T10:29:03Z</time>
      </trkpt>
      <trkpt lat="46.64218" lon="12.19553">
        <ele>2042.94</ele>
        <time>2016-02-26T10:29:10Z</time>
      </trkpt>
      <trkpt lat="46.64217" lon="12.19552">
        <ele>2042.94</ele>
        <time>2016-02-26T10:29:11Z</time>
      </trkpt>
      <trkpt lat="46.64216" lon="12.1955">
        <ele>2042.46</ele>
        <time>2016-02-26T10:29:12Z</time>
      </trkpt>
      <trkpt lat="46.64215" lon="12.1955">
        <ele>2042.46</ele>
        <time>2016-02-26T10:29:13Z</time>
      </trkpt>
      <trkpt lat="46.64203" lon="12.19543">
        <ele>2042.46</ele>
        <time>2016-02-26T10:29:29Z</time>
      </trkpt>
      <trkpt lat="46.64197" lon="12.19554">
        <ele>2041.98</ele>
        <time>2016-02-26T10:29:41Z</time>
      </trkpt>
      <trkpt lat="46.64196" lon="12.19554">
        <ele>2041.98</ele>
        <time>2016-02-26T10:29:42Z</time>
      </trkpt>
      <trkpt lat="46.64181" lon="12.19566">
        <ele>2042.94</ele>
        <time>2016-02-26T10:30:00Z</time>
      </trkpt>
      <trkpt lat="46.64184" lon="12.19565">
        <ele>2042.46</ele>
        <time>2016-02-26T10:30:04Z</time>
      </trkpt>
      <trkpt lat="46.64198" lon="12.1957">
        <ele>2042.46</ele>
        <time>2016-02-26T10:30:24Z</time>
      </trkpt>
      <trkpt lat="46.642" lon="12.19571">
        <ele>2042.46</ele>
        <time>2016-02-26T10:30:39Z</time>
      </trkpt>
      <trkpt lat="46.64211" lon="12.19568">
        <ele>2042.94</ele>
        <time>2016-02-26T10:30:52Z</time>
      </trkpt>
      <trkpt lat="46.64211" lon="12.19565">
        <ele>2042.94</ele>
        <time>2016-02-26T10:30:55Z</time>
      </trkpt>
      <trkpt lat="46.64224" lon="12.19552">
        <ele>2042.94</ele>
        <time>2016-02-26T10:31:13Z</time>
      </trkpt>
      <trkpt lat="46.64225" lon="12.19551">
        <ele>2042.94</ele>
        <time>2016-02-26T10:31:27Z</time>
      </trkpt>
      <trkpt lat="46.64225" lon="12.19554">
        <ele>2042.94</ele>
        <time>2016-02-26T10:31:37Z</time>
      </trkpt>
      <trkpt lat="46.64227" lon="12.19554">
        <ele>2042.94</ele>
        <time>2016-02-26T10:31:53Z</time>
      </trkpt>
      <trkpt lat="46.64232" lon="12.19552">
        <ele>2042.94</ele>
        <time>2016-02-26T10:32:09Z</time>
      </trkpt>
      <trkpt lat="46.6424" lon="12.19552">
        <ele>2042.94</ele>
        <time>2016-02-26T10:32:22Z</time>
      </trkpt>
      <trkpt lat="46.64249" lon="12.19552">
        <ele>2042.94</ele>
        <time>2016-02-26T10:32:37Z</time>
      </trkpt>
      <trkpt lat="46.64258" lon="12.19551">
        <ele>2042.94</ele>
        <time>2016-02-26T10:32:52Z</time>
      </trkpt>
      <trkpt lat="46.64267" lon="12.19549">
        <ele>2042.94</ele>
        <time>2016-02-26T10:33:07Z</time>
      </trkpt>
      <trkpt lat="46.64279" lon="12.19551">
        <ele>2044.38</ele>
        <time>2016-02-26T10:33:26Z</time>
      </trkpt>
      <trkpt lat="46.6429" lon="12.19552">
        <ele>2045.34</ele>
        <time>2016-02-26T10:33:44Z</time>
      </trkpt>
      <trkpt lat="46.64302" lon="12.19549">
        <ele>2046.78</ele>
        <time>2016-02-26T10:34:03Z</time>
      </trkpt>
      <trkpt lat="46.64315" lon="12.19541">
        <ele>2046.78</ele>
        <time>2016-02-26T10:34:20Z</time>
      </trkpt>
      <trkpt lat="46.64323" lon="12.19536">
        <ele>2046.78</ele>
        <time>2016-02-26T10:34:35Z</time>
      </trkpt>
      <trkpt lat="46.64337" lon="12.19526">
        <ele>2046.78</ele>
        <time>2016-02-26T10:34:52Z</time>
      </trkpt>
      <trkpt lat="46.6435" lon="12.19519">
        <ele>2046.78</ele>
        <time>2016-02-26T10:35:08Z</time>
      </trkpt>
      <trkpt lat="46.64364" lon="12.19509">
        <ele>2046.78</ele>
        <time>2016-02-26T10:35:26Z</time>
      </trkpt>
      <trkpt lat="46.64376" lon="12.19503">
        <ele>2046.78</ele>
        <time>2016-02-26T10:35:42Z</time>
      </trkpt>
      <trkpt lat="46.6439" lon="12.19497">
        <ele>2046.78</ele>
        <time>2016-02-26T10:35:58Z</time>
      </trkpt>
      <trkpt lat="46.64403" lon="12.19487">
        <ele>2047.26</ele>
        <time>2016-02-26T10:36:15Z</time>
      </trkpt>
      <trkpt lat="46.64413" lon="12.19486">
        <ele>2047.75</ele>
        <time>2016-02-26T10:36:25Z</time>
      </trkpt>
      <trkpt lat="46.64426" lon="12.19486">
        <ele>2048.23</ele>
        <time>2016-02-26T10:36:41Z</time>
      </trkpt>
      <trkpt lat="46.64443" lon="12.19488">
        <ele>2049.19</ele>
        <time>2016-02-26T10:36:58Z</time>
      </trkpt>
      <trkpt lat="46.6446" lon="12.19486">
        <ele>2049.19</ele>
        <time>2016-02-26T10:37:15Z</time>
      </trkpt>
      <trkpt lat="46.64461" lon="12.19485">
        <ele>2048.71</ele>
        <time>2016-02-26T10:37:17Z</time>
      </trkpt>
      <trkpt lat="46.64473" lon="12.19474">
        <ele>2048.23</ele>
        <time>2016-02-26T10:37:34Z</time>
      </trkpt>
      <trkpt lat="46.64488" lon="12.19463">
        <ele>2048.23</ele>
        <time>2016-02-26T10:37:52Z</time>
      </trkpt>
      <trkpt lat="46.64503" lon="12.19457">
        <ele>2050.15</ele>
        <time>2016-02-26T10:38:09Z</time>
      </trkpt>
      <trkpt lat="46.64514" lon="12.1945">
        <ele>2052.07</ele>
        <time>2016-02-26T10:38:26Z</time>
      </trkpt>
      <trkpt lat="46.64528" lon="12.19445">
        <ele>2053.51</ele>
        <time>2016-02-26T10:38:43Z</time>
      </trkpt>
      <trkpt lat="46.6454" lon="12.1944">
        <ele>2055.44</ele>
        <time>2016-02-26T10:39:00Z</time>
      </trkpt>
      <trkpt lat="46.64545" lon="12.19437">
        <ele>2057.84</ele>
        <time>2016-02-26T10:39:12Z</time>
      </trkpt>
      <trkpt lat="46.64556" lon="12.19435">
        <ele>2057.84</ele>
        <time>2016-02-26T10:39:27Z</time>
      </trkpt>
      <trkpt lat="46.64565" lon="12.19427">
        <ele>2058.8</ele>
        <time>2016-02-26T10:39:42Z</time>
      </trkpt>
      <trkpt lat="46.64573" lon="12.19419">
        <ele>2058.8</ele>
        <time>2016-02-26T10:39:57Z</time>
      </trkpt>
      <trkpt lat="46.64583" lon="12.19409">
        <ele>2060.24</ele>
        <time>2016-02-26T10:40:13Z</time>
      </trkpt>
      <trkpt lat="46.64588" lon="12.19399">
        <ele>2060.72</ele>
        <time>2016-02-26T10:40:27Z</time>
      </trkpt>
      <trkpt lat="46.64599" lon="12.19392">
        <ele>2061.68</ele>
        <time>2016-02-26T10:40:43Z</time>
      </trkpt>
      <trkpt lat="46.64612" lon="12.1939">
        <ele>2063.13</ele>
        <time>2016-02-26T10:40:59Z</time>
      </trkpt>
      <trkpt lat="46.64626" lon="12.19388">
        <ele>2064.57</ele>
        <time>2016-02-26T10:41:16Z</time>
      </trkpt>
      <trkpt lat="46.64637" lon="12.19383">
        <ele>2066.01</ele>
        <time>2016-02-26T10:41:32Z</time>
      </trkpt>
      <trkpt lat="46.64648" lon="12.19371">
        <ele>2067.45</ele>
        <time>2016-02-26T10:41:49Z</time>
      </trkpt>
      <trkpt lat="46.64659" lon="12.1936">
        <ele>2068.89</ele>
        <time>2016-02-26T10:42:05Z</time>
      </trkpt>
      <trkpt lat="46.64671" lon="12.19351">
        <ele>2070.34</ele>
        <time>2016-02-26T10:42:22Z</time>
      </trkpt>
      <trkpt lat="46.6468" lon="12.1935">
        <ele>2072.26</ele>
        <time>2016-02-26T10:42:37Z</time>
      </trkpt>
      <trkpt lat="46.64693" lon="12.19351">
        <ele>2075.14</ele>
        <time>2016-02-26T10:42:55Z</time>
      </trkpt>
      <trkpt lat="46.64701" lon="12.19354">
        <ele>2078.03</ele>
        <time>2016-02-26T10:43:10Z</time>
      </trkpt>
      <trkpt lat="46.64705" lon="12.19348">
        <ele>2079.95</ele>
        <time>2016-02-26T10:43:24Z</time>
      </trkpt>
      <trkpt lat="46.64706" lon="12.19346">
        <ele>2079.95</ele>
        <time>2016-02-26T10:43:41Z</time>
      </trkpt>
      <trkpt lat="46.64708" lon="12.19356">
        <ele>2080.91</ele>
        <time>2016-02-26T10:43:57Z</time>
      </trkpt>
      <trkpt lat="46.64706" lon="12.19368">
        <ele>2081.39</ele>
        <time>2016-02-26T10:44:11Z</time>
      </trkpt>
      <trkpt lat="46.64707" lon="12.19383">
        <ele>2082.83</ele>
        <time>2016-02-26T10:44:27Z</time>
      </trkpt>
      <trkpt lat="46.64712" lon="12.19392">
        <ele>2084.76</ele>
        <time>2016-02-26T10:44:43Z</time>
      </trkpt>
      <trkpt lat="46.64718" lon="12.19407">
        <ele>2086.68</ele>
        <time>2016-02-26T10:45:03Z</time>
      </trkpt>
      <trkpt lat="46.64724" lon="12.19422">
        <ele>2089.08</ele>
        <time>2016-02-26T10:45:22Z</time>
      </trkpt>
      <trkpt lat="46.64727" lon="12.19429">
        <ele>2090.52</ele>
        <time>2016-02-26T10:45:38Z</time>
      </trkpt>
      <trkpt lat="46.64728" lon="12.19439">
        <ele>2091.49</ele>
        <time>2016-02-26T10:45:52Z</time>
      </trkpt>
      <trkpt lat="46.64727" lon="12.19454">
        <ele>2092.45</ele>
        <time>2016-02-26T10:46:08Z</time>
      </trkpt>
      <trkpt lat="46.64726" lon="12.19463">
        <ele>2091.97</ele>
        <time>2016-02-26T10:46:22Z</time>
      </trkpt>
      <trkpt lat="46.64724" lon="12.19481">
        <ele>2093.41</ele>
        <time>2016-02-26T10:46:38Z</time>
      </trkpt>
      <trkpt lat="46.64723" lon="12.19494">
        <ele>2095.33</ele>
        <time>2016-02-26T10:46:51Z</time>
      </trkpt>
      <trkpt lat="46.64725" lon="12.19508">
        <ele>2097.73</ele>
        <time>2016-02-26T10:47:09Z</time>
      </trkpt>
      <trkpt lat="46.64721" lon="12.19515">
        <ele>2098.21</ele>
        <time>2016-02-26T10:47:23Z</time>
      </trkpt>
      <trkpt lat="46.64719" lon="12.19524">
        <ele>2098.21</ele>
        <time>2016-02-26T10:47:35Z</time>
      </trkpt>
      <trkpt lat="46.64715" lon="12.19536">
        <ele>2099.66</ele>
        <time>2016-02-26T10:47:50Z</time>
      </trkpt>
      <trkpt lat="46.64709" lon="12.19548">
        <ele>2100.14</ele>
        <time>2016-02-26T10:48:04Z</time>
      </trkpt>
      <trkpt lat="46.64701" lon="12.19559">
        <ele>2101.1</ele>
        <time>2016-02-26T10:48:18Z</time>
      </trkpt>
      <trkpt lat="46.64692" lon="12.19572">
        <ele>2101.58</ele>
        <time>2016-02-26T10:48:34Z</time>
      </trkpt>
      <trkpt lat="46.64686" lon="12.19585">
        <ele>2102.54</ele>
        <time>2016-02-26T10:48:49Z</time>
      </trkpt>
      <trkpt lat="46.64679" lon="12.19599">
        <ele>2103.5</ele>
        <time>2016-02-26T10:49:05Z</time>
      </trkpt>
      <trkpt lat="46.64673" lon="12.19613">
        <ele>2103.98</ele>
        <time>2016-02-26T10:49:20Z</time>
      </trkpt>
      <trkpt lat="46.64665" lon="12.19626">
        <ele>2104.94</ele>
        <time>2016-02-26T10:49:37Z</time>
      </trkpt>
      <trkpt lat="46.64657" lon="12.19637">
        <ele>2105.91</ele>
        <time>2016-02-26T10:49:53Z</time>
      </trkpt>
      <trkpt lat="46.6465" lon="12.19648">
        <ele>2107.35</ele>
        <time>2016-02-26T10:50:07Z</time>
      </trkpt>
      <trkpt lat="46.64643" lon="12.19659">
        <ele>2108.79</ele>
        <time>2016-02-26T10:50:24Z</time>
      </trkpt>
      <trkpt lat="46.64636" lon="12.19669">
        <ele>2110.71</ele>
        <time>2016-02-26T10:50:40Z</time>
      </trkpt>
      <trkpt lat="46.6463" lon="12.19681">
        <ele>2112.15</ele>
        <time>2016-02-26T10:50:56Z</time>
      </trkpt>
      <trkpt lat="46.64628" lon="12.19697">
        <ele>2114.56</ele>
        <time>2016-02-26T10:51:13Z</time>
      </trkpt>
      <trkpt lat="46.64622" lon="12.1971">
        <ele>2116.96</ele>
        <time>2016-02-26T10:51:30Z</time>
      </trkpt>
      <trkpt lat="46.64612" lon="12.19716">
        <ele>2117.92</ele>
        <time>2016-02-26T10:51:47Z</time>
      </trkpt>
      <trkpt lat="46.64599" lon="12.19713">
        <ele>2118.88</ele>
        <time>2016-02-26T10:52:03Z</time>
      </trkpt>
      <trkpt lat="46.64588" lon="12.1971">
        <ele>2120.32</ele>
        <time>2016-02-26T10:52:19Z</time>
      </trkpt>
      <trkpt lat="46.64578" lon="12.1971">
        <ele>2121.29</ele>
        <time>2016-02-26T10:52:35Z</time>
      </trkpt>
      <trkpt lat="46.64572" lon="12.19713">
        <ele>2122.25</ele>
        <time>2016-02-26T10:52:52Z</time>
      </trkpt>
      <trkpt lat="46.64571" lon="12.19714">
        <ele>2121.77</ele>
        <time>2016-02-26T10:53:08Z</time>
      </trkpt>
      <trkpt lat="46.64571" lon="12.19715">
        <ele>2122.25</ele>
        <time>2016-02-26T10:53:26Z</time>
      </trkpt>
      <trkpt lat="46.64567" lon="12.19717">
        <ele>2122.73</ele>
        <time>2016-02-26T10:53:39Z</time>
      </trkpt>
      <trkpt lat="46.64564" lon="12.19722">
        <ele>2123.69</ele>
        <time>2016-02-26T10:53:53Z</time>
      </trkpt>
      <trkpt lat="46.64559" lon="12.19725">
        <ele>2124.17</ele>
        <time>2016-02-26T10:54:07Z</time>
      </trkpt>
      <trkpt lat="46.64552" lon="12.19729">
        <ele>2125.13</ele>
        <time>2016-02-26T10:54:22Z</time>
      </trkpt>
      <trkpt lat="46.64542" lon="12.19735">
        <ele>2126.09</ele>
        <time>2016-02-26T10:54:37Z</time>
      </trkpt>
      <trkpt lat="46.64534" lon="12.19741">
        <ele>2126.57</ele>
        <time>2016-02-26T10:54:49Z</time>
      </trkpt>
      <trkpt lat="46.64527" lon="12.19748">
        <ele>2128.02</ele>
        <time>2016-02-26T10:55:03Z</time>
      </trkpt>
      <trkpt lat="46.64516" lon="12.19754">
        <ele>2128.98</ele>
        <time>2016-02-26T10:55:20Z</time>
      </trkpt>
      <trkpt lat="46.64513" lon="12.19756">
        <ele>2129.46</ele>
        <time>2016-02-26T10:55:27Z</time>
      </trkpt>
      <trkpt lat="46.64505" lon="12.19763">
        <ele>2129.94</ele>
        <time>2016-02-26T10:55:39Z</time>
      </trkpt>
      <trkpt lat="46.64497" lon="12.19769">
        <ele>2130.42</ele>
        <time>2016-02-26T10:55:54Z</time>
      </trkpt>
      <trkpt lat="46.64495" lon="12.19769">
        <ele>2129.46</ele>
        <time>2016-02-26T10:56:08Z</time>
      </trkpt>
      <trkpt lat="46.64495" lon="12.19771">
        <ele>2128.98</ele>
        <time>2016-02-26T10:56:34Z</time>
      </trkpt>
      <trkpt lat="46.64494" lon="12.1977">
        <ele>2128.98</ele>
        <time>2016-02-26T10:56:54Z</time>
      </trkpt>
      <trkpt lat="46.64494" lon="12.19772">
        <ele>2128.98</ele>
        <time>2016-02-26T10:57:13Z</time>
      </trkpt>
      <trkpt lat="46.64495" lon="12.19773">
        <ele>2128.98</ele>
        <time>2016-02-26T10:57:40Z</time>
      </trkpt>
      <trkpt lat="46.64495" lon="12.19771">
        <ele>2129.94</ele>
        <time>2016-02-26T10:58:00Z</time>
      </trkpt>
      <trkpt lat="46.6449" lon="12.1977">
        <ele>2130.42</ele>
        <time>2016-02-26T10:58:16Z</time>
      </trkpt>
      <trkpt lat="46.6449" lon="12.19771">
        <ele>2130.42</ele>
        <time>2016-02-26T10:58:17Z</time>
      </trkpt>
      <trkpt lat="46.64481" lon="12.19777">
        <ele>2130.9</ele>
        <time>2016-02-26T10:58:31Z</time>
      </trkpt>
      <trkpt lat="46.64469" lon="12.19782">
        <ele>2132.34</ele>
        <time>2016-02-26T10:58:48Z</time>
      </trkpt>
      <trkpt lat="46.64458" lon="12.19788">
        <ele>2132.34</ele>
        <time>2016-02-26T10:59:02Z</time>
      </trkpt>
      <trkpt lat="46.64455" lon="12.1979">
        <ele>2132.82</ele>
        <time>2016-02-26T10:59:06Z</time>
      </trkpt>
      <trkpt lat="46.64445" lon="12.19792">
        <ele>2133.78</ele>
        <time>2016-02-26T10:59:19Z</time>
      </trkpt>
      <trkpt lat="46.64444" lon="12.19793">
        <ele>2134.26</ele>
        <time>2016-02-26T10:59:21Z</time>
      </trkpt>
      <trkpt lat="46.64435" lon="12.198">
        <ele>2135.71</ele>
        <time>2016-02-26T10:59:36Z</time>
      </trkpt>
      <trkpt lat="46.64429" lon="12.19805">
        <ele>2137.15</ele>
        <time>2016-02-26T10:59:49Z</time>
      </trkpt>
      <trkpt lat="46.64424" lon="12.19811">
        <ele>2138.59</ele>
        <time>2016-02-26T11:00:04Z</time>
      </trkpt>
      <trkpt lat="46.64414" lon="12.19819">
        <ele>2140.03</ele>
        <time>2016-02-26T11:00:22Z</time>
      </trkpt>
      <trkpt lat="46.64404" lon="12.19828">
        <ele>2140.99</ele>
        <time>2016-02-26T11:00:39Z</time>
      </trkpt>
      <trkpt lat="46.64393" lon="12.19838">
        <ele>2141.95</ele>
        <time>2016-02-26T11:00:58Z</time>
      </trkpt>
      <trkpt lat="46.64388" lon="12.19844">
        <ele>2142.44</ele>
        <time>2016-02-26T11:01:15Z</time>
      </trkpt>
      <trkpt lat="46.64379" lon="12.19851">
        <ele>2143.4</ele>
        <time>2016-02-26T11:01:31Z</time>
      </trkpt>
      <trkpt lat="46.64374" lon="12.19856">
        <ele>2143.88</ele>
        <time>2016-02-26T11:01:39Z</time>
      </trkpt>
      <trkpt lat="46.64367" lon="12.19864">
        <ele>2145.8</ele>
        <time>2016-02-26T11:01:53Z</time>
      </trkpt>
      <trkpt lat="46.64359" lon="12.1987">
        <ele>2147.72</ele>
        <time>2016-02-26T11:02:09Z</time>
      </trkpt>
      <trkpt lat="46.64354" lon="12.19874">
        <ele>2148.68</ele>
        <time>2016-02-26T11:02:22Z</time>
      </trkpt>
      <trkpt lat="46.6435" lon="12.19881">
        <ele>2150.61</ele>
        <time>2016-02-26T11:02:38Z</time>
      </trkpt>
      <trkpt lat="46.64346" lon="12.19886">
        <ele>2152.53</ele>
        <time>2016-02-26T11:02:56Z</time>
      </trkpt>
      <trkpt lat="46.64342" lon="12.1989">
        <ele>2153.97</ele>
        <time>2016-02-26T11:03:08Z</time>
      </trkpt>
      <trkpt lat="46.64337" lon="12.19896">
        <ele>2155.41</ele>
        <time>2016-02-26T11:03:25Z</time>
      </trkpt>
      <trkpt lat="46.64333" lon="12.19901">
        <ele>2157.82</ele>
        <time>2016-02-26T11:03:43Z</time>
      </trkpt>
      <trkpt lat="46.64331" lon="12.19906">
        <ele>2158.78</ele>
        <time>2016-02-26T11:03:59Z</time>
      </trkpt>
      <trkpt lat="46.64326" lon="12.19913">
        <ele>2160.7</ele>
        <time>2016-02-26T11:04:17Z</time>
      </trkpt>
      <trkpt lat="46.64322" lon="12.1992">
        <ele>2161.66</ele>
        <time>2016-02-26T11:04:31Z</time>
      </trkpt>
      <trkpt lat="46.6432" lon="12.19926">
        <ele>2162.62</ele>
        <time>2016-02-26T11:04:47Z</time>
      </trkpt>
      <trkpt lat="46.64316" lon="12.19932">
        <ele>2164.55</ele>
        <time>2016-02-26T11:05:03Z</time>
      </trkpt>
      <trkpt lat="46.64312" lon="12.19938">
        <ele>2165.99</ele>
        <time>2016-02-26T11:05:18Z</time>
      </trkpt>
      <trkpt lat="46.64309" lon="12.19944">
        <ele>2167.91</ele>
        <time>2016-02-26T11:05:31Z</time>
      </trkpt>
      <trkpt lat="46.64306" lon="12.1995">
        <ele>2168.39</ele>
        <time>2016-02-26T11:05:44Z</time>
      </trkpt>
      <trkpt lat="46.64302" lon="12.19957">
        <ele>2169.83</ele>
        <time>2016-02-26T11:06:02Z</time>
      </trkpt>
      <trkpt lat="46.643" lon="12.19962">
        <ele>2171.76</ele>
        <time>2016-02-26T11:06:16Z</time>
      </trkpt>
      <trkpt lat="46.64298" lon="12.19967">
        <ele>2172.72</ele>
        <time>2016-02-26T11:06:28Z</time>
      </trkpt>
      <trkpt lat="46.64295" lon="12.19972">
        <ele>2174.16</ele>
        <time>2016-02-26T11:06:41Z</time>
      </trkpt>
      <trkpt lat="46.64293" lon="12.19976">
        <ele>2175.6</ele>
        <time>2016-02-26T11:06:55Z</time>
      </trkpt>
      <trkpt lat="46.64291" lon="12.19979">
        <ele>2177.04</ele>
        <time>2016-02-26T11:07:08Z</time>
      </trkpt>
      <trkpt lat="46.64289" lon="12.19986">
        <ele>2178.48</ele>
        <time>2016-02-26T11:07:24Z</time>
      </trkpt>
      <trkpt lat="46.64287" lon="12.19991">
        <ele>2179.93</ele>
        <time>2016-02-26T11:07:36Z</time>
      </trkpt>
      <trkpt lat="46.64285" lon="12.19997">
        <ele>2181.37</ele>
        <time>2016-02-26T11:07:50Z</time>
      </trkpt>
      <trkpt lat="46.64281" lon="12.20003">
        <ele>2181.85</ele>
        <time>2016-02-26T11:08:02Z</time>
      </trkpt>
      <trkpt lat="46.64275" lon="12.20008">
        <ele>2183.29</ele>
        <time>2016-02-26T11:08:16Z</time>
      </trkpt>
      <trkpt lat="46.64272" lon="12.20013">
        <ele>2184.73</ele>
        <time>2016-02-26T11:08:29Z</time>
      </trkpt>
      <trkpt lat="46.64267" lon="12.20019">
        <ele>2185.21</ele>
        <time>2016-02-26T11:08:41Z</time>
      </trkpt>
      <trkpt lat="46.64262" lon="12.20028">
        <ele>2187.14</ele>
        <time>2016-02-26T11:08:56Z</time>
      </trkpt>
      <trkpt lat="46.64258" lon="12.20035">
        <ele>2188.1</ele>
        <time>2016-02-26T11:09:08Z</time>
      </trkpt>
      <trkpt lat="46.64255" lon="12.20045">
        <ele>2190.5</ele>
        <time>2016-02-26T11:09:24Z</time>
      </trkpt>
      <trkpt lat="46.64255" lon="12.20049">
        <ele>2191.46</ele>
        <time>2016-02-26T11:09:27Z</time>
      </trkpt>
      <trkpt lat="46.64253" lon="12.20055">
        <ele>2191.46</ele>
        <time>2016-02-26T11:09:32Z</time>
      </trkpt>
      <trkpt lat="46.64246" lon="12.20075">
        <ele>2194.83</ele>
        <time>2016-02-26T11:09:49Z</time>
      </trkpt>
      <trkpt lat="46.64244" lon="12.20082">
        <ele>2195.31</ele>
        <time>2016-02-26T11:10:02Z</time>
      </trkpt>
      <trkpt lat="46.6424" lon="12.20096">
        <ele>2196.27</ele>
        <time>2016-02-26T11:10:15Z</time>
      </trkpt>
      <trkpt lat="46.64241" lon="12.20111">
        <ele>2199.15</ele>
        <time>2016-02-26T11:10:29Z</time>
      </trkpt>
      <trkpt lat="46.64242" lon="12.2012">
        <ele>2201.08</ele>
        <time>2016-02-26T11:10:49Z</time>
      </trkpt>
      <trkpt lat="46.64244" lon="12.20128">
        <ele>2202.52</ele>
        <time>2016-02-26T11:11:04Z</time>
      </trkpt>
      <trkpt lat="46.64247" lon="12.20137">
        <ele>2203.48</ele>
        <time>2016-02-26T11:11:20Z</time>
      </trkpt>
      <trkpt lat="46.64248" lon="12.20153">
        <ele>2204.44</ele>
        <time>2016-02-26T11:11:35Z</time>
      </trkpt>
      <trkpt lat="46.6425" lon="12.20164">
        <ele>2204.92</ele>
        <time>2016-02-26T11:11:52Z</time>
      </trkpt>
      <trkpt lat="46.64249" lon="12.20165">
        <ele>2204.92</ele>
        <time>2016-02-26T11:12:08Z</time>
      </trkpt>
      <trkpt lat="46.64248" lon="12.20166">
        <ele>2204.92</ele>
        <time>2016-02-26T11:12:26Z</time>
      </trkpt>
      <trkpt lat="46.64248" lon="12.20176">
        <ele>2204.44</ele>
        <time>2016-02-26T11:12:37Z</time>
      </trkpt>
      <trkpt lat="46.64246" lon="12.20185">
        <ele>2204.92</ele>
        <time>2016-02-26T11:12:50Z</time>
      </trkpt>
      <trkpt lat="46.64243" lon="12.20191">
        <ele>2203.96</ele>
        <time>2016-02-26T11:13:03Z</time>
      </trkpt>
      <trkpt lat="46.64241" lon="12.20206">
        <ele>2204.44</ele>
        <time>2016-02-26T11:13:17Z</time>
      </trkpt>
      <trkpt lat="46.64238" lon="12.2022">
        <ele>2205.88</ele>
        <time>2016-02-26T11:13:32Z</time>
      </trkpt>
      <trkpt lat="46.64237" lon="12.20228">
        <ele>2204.92</ele>
        <time>2016-02-26T11:13:44Z</time>
      </trkpt>
      <trkpt lat="46.64236" lon="12.20231">
        <ele>2204.44</ele>
        <time>2016-02-26T11:14:00Z</time>
      </trkpt>
      <trkpt lat="46.64236" lon="12.20247">
        <ele>2205.4</ele>
        <time>2016-02-26T11:14:14Z</time>
      </trkpt>
      <trkpt lat="46.64238" lon="12.20256">
        <ele>2205.4</ele>
        <time>2016-02-26T11:14:25Z</time>
      </trkpt>
      <trkpt lat="46.64239" lon="12.20257">
        <ele>2205.4</ele>
        <time>2016-02-26T11:14:37Z</time>
      </trkpt>
      <trkpt lat="46.64239" lon="12.20258">
        <ele>2205.4</ele>
        <time>2016-02-26T11:14:39Z</time>
      </trkpt>
      <trkpt lat="46.64243" lon="12.20275">
        <ele>2205.88</ele>
        <time>2016-02-26T11:14:54Z</time>
      </trkpt>
      <trkpt lat="46.64248" lon="12.20286">
        <ele>2207.32</ele>
        <time>2016-02-26T11:15:08Z</time>
      </trkpt>
      <trkpt lat="46.64252" lon="12.20293">
        <ele>2207.32</ele>
        <time>2016-02-26T11:15:16Z</time>
      </trkpt>
      <trkpt lat="46.64256" lon="12.20297">
        <ele>2207.81</ele>
        <time>2016-02-26T11:15:22Z</time>
      </trkpt>
      <trkpt lat="46.64265" lon="12.20304">
        <ele>2208.77</ele>
        <time>2016-02-26T11:15:36Z</time>
      </trkpt>
      <trkpt lat="46.64278" lon="12.20309">
        <ele>2209.25</ele>
        <time>2016-02-26T11:15:52Z</time>
      </trkpt>
      <trkpt lat="46.64289" lon="12.20317">
        <ele>2211.17</ele>
        <time>2016-02-26T11:16:07Z</time>
      </trkpt>
      <trkpt lat="46.64298" lon="12.20326">
        <ele>2211.17</ele>
        <time>2016-02-26T11:16:21Z</time>
      </trkpt>
      <trkpt lat="46.64308" lon="12.20339">
        <ele>2211.65</ele>
        <time>2016-02-26T11:16:36Z</time>
      </trkpt>
      <trkpt lat="46.64317" lon="12.20355">
        <ele>2212.61</ele>
        <time>2016-02-26T11:16:52Z</time>
      </trkpt>
      <trkpt lat="46.64329" lon="12.20371">
        <ele>2213.09</ele>
        <time>2016-02-26T11:17:10Z</time>
      </trkpt>
      <trkpt lat="46.64343" lon="12.20392">
        <ele>2211.65</ele>
        <time>2016-02-26T11:17:30Z</time>
      </trkpt>
      <trkpt lat="46.64349" lon="12.20396">
        <ele>2212.13</ele>
        <time>2016-02-26T11:17:45Z</time>
      </trkpt>
      <trkpt lat="46.6435" lon="12.20398">
        <ele>2211.17</ele>
        <time>2016-02-26T11:18:06Z</time>
      </trkpt>
      <trkpt lat="46.6435" lon="12.20398">
        <ele>2212.13</ele>
        <time>2016-02-26T11:18:15Z</time>
      </trkpt>
      <trkpt lat="46.6435" lon="12.20398">
        <ele>2212.13</ele>
        <time>2016-02-26T11:18:31Z</time>
      </trkpt>
      <trkpt lat="46.64352" lon="12.20402">
        <ele>2212.13</ele>
        <time>2016-02-26T11:18:36Z</time>
      </trkpt>
      <trkpt lat="46.64358" lon="12.20413">
        <ele>2209.73</ele>
        <time>2016-02-26T11:18:51Z</time>
      </trkpt>
      <trkpt lat="46.64363" lon="12.20427">
        <ele>2208.29</ele>
        <time>2016-02-26T11:19:05Z</time>
      </trkpt>
      <trkpt lat="46.64364" lon="12.20433">
        <ele>2207.32</ele>
        <time>2016-02-26T11:19:16Z</time>
      </trkpt>
      <trkpt lat="46.64364" lon="12.20448">
        <ele>2208.77</ele>
        <time>2016-02-26T11:19:29Z</time>
      </trkpt>
      <trkpt lat="46.64365" lon="12.2046">
        <ele>2209.73</ele>
        <time>2016-02-26T11:19:44Z</time>
      </trkpt>
      <trkpt lat="46.64362" lon="12.20473">
        <ele>2209.73</ele>
        <time>2016-02-26T11:19:59Z</time>
      </trkpt>
      <trkpt lat="46.64364" lon="12.20479">
        <ele>2209.73</ele>
        <time>2016-02-26T11:20:16Z</time>
      </trkpt>
      <trkpt lat="46.6436" lon="12.20496">
        <ele>2212.13</ele>
        <time>2016-02-26T11:20:31Z</time>
      </trkpt>
      <trkpt lat="46.64358" lon="12.20513">
        <ele>2213.57</ele>
        <time>2016-02-26T11:20:49Z</time>
      </trkpt>
      <trkpt lat="46.64357" lon="12.20517">
        <ele>2212.61</ele>
        <time>2016-02-26T11:21:02Z</time>
      </trkpt>
      <trkpt lat="46.64358" lon="12.20515">
        <ele>2212.61</ele>
        <time>2016-02-26T11:21:33Z</time>
      </trkpt>
      <trkpt lat="46.64359" lon="12.20514">
        <ele>2214.05</ele>
        <time>2016-02-26T11:22:02Z</time>
      </trkpt>
      <trkpt lat="46.6436" lon="12.20511">
        <ele>2214.05</ele>
        <time>2016-02-26T11:22:17Z</time>
      </trkpt>
      <trkpt lat="46.64358" lon="12.20514">
        <ele>2213.09</ele>
        <time>2016-02-26T11:22:36Z</time>
      </trkpt>
      <trkpt lat="46.64353" lon="12.20533">
        <ele>2215.01</ele>
        <time>2016-02-26T11:22:52Z</time>
      </trkpt>
      <trkpt lat="46.64351" lon="12.20541">
        <ele>2215.5</ele>
        <time>2016-02-26T11:23:06Z</time>
      </trkpt>
      <trkpt lat="46.64348" lon="12.2055">
        <ele>2216.94</ele>
        <time>2016-02-26T11:23:20Z</time>
      </trkpt>
      <trkpt lat="46.64347" lon="12.20566">
        <ele>2219.82</ele>
        <time>2016-02-26T11:23:35Z</time>
      </trkpt>
      <trkpt lat="46.64351" lon="12.20574">
        <ele>2220.78</ele>
        <time>2016-02-26T11:23:50Z</time>
      </trkpt>
      <trkpt lat="46.64352" lon="12.20588">
        <ele>2222.71</ele>
        <time>2016-02-26T11:24:06Z</time>
      </trkpt>
      <trkpt lat="46.64351" lon="12.20594">
        <ele>2223.67</ele>
        <time>2016-02-26T11:24:20Z</time>
      </trkpt>
      <trkpt lat="46.64353" lon="12.20603">
        <ele>2225.11</ele>
        <time>2016-02-26T11:24:37Z</time>
      </trkpt>
      <trkpt lat="46.64357" lon="12.20612">
        <ele>2226.07</ele>
        <time>2016-02-26T11:24:54Z</time>
      </trkpt>
      <trkpt lat="46.64357" lon="12.20618">
        <ele>2226.55</ele>
        <time>2016-02-26T11:25:07Z</time>
      </trkpt>
      <trkpt lat="46.64357" lon="12.20628">
        <ele>2227.51</ele>
        <time>2016-02-26T11:25:21Z</time>
      </trkpt>
      <trkpt lat="46.64355" lon="12.20633">
        <ele>2228.47</ele>
        <time>2016-02-26T11:25:37Z</time>
      </trkpt>
      <trkpt lat="46.64351" lon="12.20645">
        <ele>2229.92</ele>
        <time>2016-02-26T11:25:52Z</time>
      </trkpt>
      <trkpt lat="46.64347" lon="12.20653">
        <ele>2231.36</ele>
        <time>2016-02-26T11:26:06Z</time>
      </trkpt>
      <trkpt lat="46.64344" lon="12.2066">
        <ele>2231.84</ele>
        <time>2016-02-26T11:26:20Z</time>
      </trkpt>
      <trkpt lat="46.6434" lon="12.20671">
        <ele>2233.28</ele>
        <time>2016-02-26T11:26:38Z</time>
      </trkpt>
      <trkpt lat="46.64336" lon="12.20678">
        <ele>2234.72</ele>
        <time>2016-02-26T11:26:54Z</time>
      </trkpt>
      <trkpt lat="46.6433" lon="12.20686">
        <ele>2237.13</ele>
        <time>2016-02-26T11:27:13Z</time>
      </trkpt>
      <trkpt lat="46.64321" lon="12.2069">
        <ele>2238.57</ele>
        <time>2016-02-26T11:27:29Z</time>
      </trkpt>
      <trkpt lat="46.64319" lon="12.20693">
        <ele>2240.49</ele>
        <time>2016-02-26T11:27:37Z</time>
      </trkpt>
      <trkpt lat="46.6432" lon="12.20702">
        <ele>2241.93</ele>
        <time>2016-02-26T11:27:53Z</time>
      </trkpt>
      <trkpt lat="46.64322" lon="12.20718">
        <ele>2244.33</ele>
        <time>2016-02-26T11:28:16Z</time>
      </trkpt>
      <trkpt lat="46.64324" lon="12.2073">
        <ele>2245.78</ele>
        <time>2016-02-26T11:28:34Z</time>
      </trkpt>
      <trkpt lat="46.64323" lon="12.2073">
        <ele>2246.74</ele>
        <time>2016-02-26T11:28:36Z</time>
      </trkpt>
      <trkpt lat="46.64319" lon="12.20732">
        <ele>2248.66</ele>
        <time>2016-02-26T11:28:49Z</time>
      </trkpt>
      <trkpt lat="46.64318" lon="12.20737">
        <ele>2248.66</ele>
        <time>2016-02-26T11:29:09Z</time>
      </trkpt>
      <trkpt lat="46.64318" lon="12.20749">
        <ele>2250.58</ele>
        <time>2016-02-26T11:29:27Z</time>
      </trkpt>
      <trkpt lat="46.64317" lon="12.20758">
        <ele>2253.95</ele>
        <time>2016-02-26T11:29:41Z</time>
      </trkpt>
      <trkpt lat="46.64315" lon="12.20769">
        <ele>2252.03</ele>
        <time>2016-02-26T11:30:06Z</time>
      </trkpt>
      <trkpt lat="46.64311" lon="12.20784">
        <ele>2252.99</ele>
        <time>2016-02-26T11:30:23Z</time>
      </trkpt>
      <trkpt lat="46.64309" lon="12.20797">
        <ele>2254.43</ele>
        <time>2016-02-26T11:30:42Z</time>
      </trkpt>
      <trkpt lat="46.64304" lon="12.20808">
        <ele>2255.87</ele>
        <time>2016-02-26T11:30:57Z</time>
      </trkpt>
      <trkpt lat="46.64301" lon="12.20822">
        <ele>2256.83</ele>
        <time>2016-02-26T11:31:15Z</time>
      </trkpt>
      <trkpt lat="46.64297" lon="12.20836">
        <ele>2257.79</ele>
        <time>2016-02-26T11:31:33Z</time>
      </trkpt>
      <trkpt lat="46.64295" lon="12.2084">
        <ele>2258.75</ele>
        <time>2016-02-26T11:31:46Z</time>
      </trkpt>
      <trkpt lat="46.64289" lon="12.20852">
        <ele>2260.68</ele>
        <time>2016-02-26T11:32:03Z</time>
      </trkpt>
      <trkpt lat="46.64284" lon="12.20864">
        <ele>2262.12</ele>
        <time>2016-02-26T11:32:20Z</time>
      </trkpt>
      <trkpt lat="46.6428" lon="12.20879">
        <ele>2263.08</ele>
        <time>2016-02-26T11:32:36Z</time>
      </trkpt>
      <trkpt lat="46.64278" lon="12.20892">
        <ele>2264.04</ele>
        <time>2016-02-26T11:32:50Z</time>
      </trkpt>
      <trkpt lat="46.64278" lon="12.20897">
        <ele>2264.52</ele>
        <time>2016-02-26T11:33:07Z</time>
      </trkpt>
      <trkpt lat="46.64278" lon="12.20909">
        <ele>2266.45</ele>
        <time>2016-02-26T11:33:27Z</time>
      </trkpt>
      <trkpt lat="46.64279" lon="12.20921">
        <ele>2269.81</ele>
        <time>2016-02-26T11:33:43Z</time>
      </trkpt>
      <trkpt lat="46.64279" lon="12.20936">
        <ele>2270.77</ele>
        <time>2016-02-26T11:34:00Z</time>
      </trkpt>
      <trkpt lat="46.64277" lon="12.20947">
        <ele>2272.69</ele>
        <time>2016-02-26T11:34:16Z</time>
      </trkpt>
      <trkpt lat="46.64277" lon="12.20959">
        <ele>2275.1</ele>
        <time>2016-02-26T11:34:33Z</time>
      </trkpt>
      <trkpt lat="46.64275" lon="12.20966">
        <ele>2276.54</ele>
        <time>2016-02-26T11:34:52Z</time>
      </trkpt>
      <trkpt lat="46.64277" lon="12.20974">
        <ele>2278.46</ele>
        <time>2016-02-26T11:35:07Z</time>
      </trkpt>
      <trkpt lat="46.64276" lon="12.20982">
        <ele>2278.94</ele>
        <time>2016-02-26T11:35:26Z</time>
      </trkpt>
      <trkpt lat="46.64276" lon="12.20982">
        <ele>2280.38</ele>
        <time>2016-02-26T11:35:28Z</time>
      </trkpt>
      <trkpt lat="46.64277" lon="12.20986">
        <ele>2279.9</ele>
        <time>2016-02-26T11:35:42Z</time>
      </trkpt>
      <trkpt lat="46.64277" lon="12.20997">
        <ele>2280.87</ele>
        <time>2016-02-26T11:36:00Z</time>
      </trkpt>
      <trkpt lat="46.64276" lon="12.21003">
        <ele>2281.35</ele>
        <time>2016-02-26T11:36:13Z</time>
      </trkpt>
      <trkpt lat="46.64275" lon="12.21005">
        <ele>2280.87</ele>
        <time>2016-02-26T11:36:31Z</time>
      </trkpt>
      <trkpt lat="46.64275" lon="12.20997">
        <ele>2280.87</ele>
        <time>2016-02-26T11:36:49Z</time>
      </trkpt>
      <trkpt lat="46.64276" lon="12.20997">
        <ele>2280.87</ele>
        <time>2016-02-26T11:37:04Z</time>
      </trkpt>
      <trkpt lat="46.64276" lon="12.21">
        <ele>2280.87</ele>
        <time>2016-02-26T11:37:27Z</time>
      </trkpt>
      <trkpt lat="46.64276" lon="12.21">
        <ele>2280.87</ele>
        <time>2016-02-26T11:37:48Z</time>
      </trkpt>
      <trkpt lat="46.64277" lon="12.21002">
        <ele>2281.35</ele>
        <time>2016-02-26T11:38:06Z</time>
      </trkpt>
      <trkpt lat="46.64277" lon="12.21005">
        <ele>2280.87</ele>
        <time>2016-02-26T11:38:23Z</time>
      </trkpt>
      <trkpt lat="46.64276" lon="12.2101">
        <ele>2281.35</ele>
        <time>2016-02-26T11:38:37Z</time>
      </trkpt>
      <trkpt lat="46.64276" lon="12.21007">
        <ele>2280.87</ele>
        <time>2016-02-26T11:38:59Z</time>
      </trkpt>
      <trkpt lat="46.64275" lon="12.21">
        <ele>2280.87</ele>
        <time>2016-02-26T11:39:13Z</time>
      </trkpt>
      <trkpt lat="46.64275" lon="12.21">
        <ele>2280.38</ele>
        <time>2016-02-26T11:39:40Z</time>
      </trkpt>
      <trkpt lat="46.64274" lon="12.21014">
        <ele>2280.38</ele>
        <time>2016-02-26T11:39:55Z</time>
      </trkpt>
      <trkpt lat="46.64275" lon="12.21028">
        <ele>2280.38</ele>
        <time>2016-02-26T11:40:09Z</time>
      </trkpt>
      <trkpt lat="46.64279" lon="12.21042">
        <ele>2281.35</ele>
        <time>2016-02-26T11:40:23Z</time>
      </trkpt>
      <trkpt lat="46.64284" lon="12.21063">
        <ele>2281.83</ele>
        <time>2016-02-26T11:40:41Z</time>
      </trkpt>
      <trkpt lat="46.64288" lon="12.21068">
        <ele>2281.83</ele>
        <time>2016-02-26T11:40:47Z</time>
      </trkpt>
      <trkpt lat="46.64302" lon="12.21084">
        <ele>2281.83</ele>
        <time>2016-02-26T11:41:04Z</time>
      </trkpt>
      <trkpt lat="46.6431" lon="12.21099">
        <ele>2282.31</ele>
        <time>2016-02-26T11:41:21Z</time>
      </trkpt>
      <trkpt lat="46.64313" lon="12.21112">
        <ele>2283.27</ele>
        <time>2016-02-26T11:41:36Z</time>
      </trkpt>
      <trkpt lat="46.64317" lon="12.21125">
        <ele>2283.75</ele>
        <time>2016-02-26T11:41:52Z</time>
      </trkpt>
      <trkpt lat="46.64325" lon="12.21142">
        <ele>2284.23</ele>
        <time>2016-02-26T11:42:11Z</time>
      </trkpt>
      <trkpt lat="46.64329" lon="12.21156">
        <ele>2285.19</ele>
        <time>2016-02-26T11:42:28Z</time>
      </trkpt>
      <trkpt lat="46.64334" lon="12.21168">
        <ele>2285.67</ele>
        <time>2016-02-26T11:42:44Z</time>
      </trkpt>
      <trkpt lat="46.64338" lon="12.21178">
        <ele>2286.63</ele>
        <time>2016-02-26T11:42:59Z</time>
      </trkpt>
      <trkpt lat="46.6434" lon="12.21186">
        <ele>2287.59</ele>
        <time>2016-02-26T11:43:16Z</time>
      </trkpt>
      <trkpt lat="46.64344" lon="12.21195">
        <ele>2289.04</ele>
        <time>2016-02-26T11:43:34Z</time>
      </trkpt>
      <trkpt lat="46.64348" lon="12.21203">
        <ele>2292.4</ele>
        <time>2016-02-26T11:43:49Z</time>
      </trkpt>
      <trkpt lat="46.6435" lon="12.21208">
        <ele>2291.92</ele>
        <time>2016-02-26T11:44:05Z</time>
      </trkpt>
      <trkpt lat="46.64353" lon="12.21213">
        <ele>2292.4</ele>
        <time>2016-02-26T11:44:18Z</time>
      </trkpt>
      <trkpt lat="46.64354" lon="12.21217">
        <ele>2293.84</ele>
        <time>2016-02-26T11:44:35Z</time>
      </trkpt>
      <trkpt lat="46.64357" lon="12.21219">
        <ele>2294.8</ele>
        <time>2016-02-26T11:44:53Z</time>
      </trkpt>
      <trkpt lat="46.64359" lon="12.21225">
        <ele>2295.77</ele>
        <time>2016-02-26T11:45:07Z</time>
      </trkpt>
      <trkpt lat="46.64365" lon="12.21232">
        <ele>2297.21</ele>
        <time>2016-02-26T11:45:22Z</time>
      </trkpt>
      <trkpt lat="46.64367" lon="12.21237">
        <ele>2299.13</ele>
        <time>2016-02-26T11:45:38Z</time>
      </trkpt>
      <trkpt lat="46.64373" lon="12.21241">
        <ele>2302.01</ele>
        <time>2016-02-26T11:45:50Z</time>
      </trkpt>
      <trkpt lat="46.64378" lon="12.21246">
        <ele>2301.53</ele>
        <time>2016-02-26T11:46:06Z</time>
      </trkpt>
      <trkpt lat="46.64386" lon="12.21248">
        <ele>2302.49</ele>
        <time>2016-02-26T11:46:23Z</time>
      </trkpt>
      <trkpt lat="46.64392" lon="12.21248">
        <ele>2302.98</ele>
        <time>2016-02-26T11:46:37Z</time>
      </trkpt>
      <trkpt lat="46.64396" lon="12.21247">
        <ele>2303.94</ele>
        <time>2016-02-26T11:46:52Z</time>
      </trkpt>
      <trkpt lat="46.644" lon="12.21247">
        <ele>2304.9</ele>
        <time>2016-02-26T11:47:07Z</time>
      </trkpt>
      <trkpt lat="46.64403" lon="12.21247">
        <ele>2305.38</ele>
        <time>2016-02-26T11:47:21Z</time>
      </trkpt>
      <trkpt lat="46.64405" lon="12.21248">
        <ele>2306.82</ele>
        <time>2016-02-26T11:47:35Z</time>
      </trkpt>
      <trkpt lat="46.64407" lon="12.21248">
        <ele>2307.78</ele>
        <time>2016-02-26T11:47:48Z</time>
      </trkpt>
      <trkpt lat="46.64411" lon="12.21249">
        <ele>2308.74</ele>
        <time>2016-02-26T11:48:02Z</time>
      </trkpt>
      <trkpt lat="46.64414" lon="12.21251">
        <ele>2310.19</ele>
        <time>2016-02-26T11:48:18Z</time>
      </trkpt>
      <trkpt lat="46.64414" lon="12.21251">
        <ele>2309.7</ele>
        <time>2016-02-26T11:48:40Z</time>
      </trkpt>
      <trkpt lat="46.64416" lon="12.21252">
        <ele>2311.63</ele>
        <time>2016-02-26T11:48:59Z</time>
      </trkpt>
      <trkpt lat="46.64421" lon="12.21256">
        <ele>2312.11</ele>
        <time>2016-02-26T11:49:13Z</time>
      </trkpt>
      <trkpt lat="46.64421" lon="12.21263">
        <ele>2313.55</ele>
        <time>2016-02-26T11:49:26Z</time>
      </trkpt>
      <trkpt lat="46.64422" lon="12.21267">
        <ele>2314.03</ele>
        <time>2016-02-26T11:49:41Z</time>
      </trkpt>
      <trkpt lat="46.6442" lon="12.21271">
        <ele>2314.51</ele>
        <time>2016-02-26T11:49:59Z</time>
      </trkpt>
      <trkpt lat="46.64417" lon="12.21276">
        <ele>2314.03</ele>
        <time>2016-02-26T11:50:15Z</time>
      </trkpt>
      <trkpt lat="46.64414" lon="12.2128">
        <ele>2314.99</ele>
        <time>2016-02-26T11:50:31Z</time>
      </trkpt>
      <trkpt lat="46.64414" lon="12.21281">
        <ele>2314.03</ele>
        <time>2016-02-26T11:50:50Z</time>
      </trkpt>
      <trkpt lat="46.64412" lon="12.21281">
        <ele>2314.51</ele>
        <time>2016-02-26T11:51:07Z</time>
      </trkpt>
      <trkpt lat="46.64412" lon="12.2128">
        <ele>2314.51</ele>
        <time>2016-02-26T11:51:27Z</time>
      </trkpt>
      <trkpt lat="46.64412" lon="12.21281">
        <ele>2314.03</ele>
        <time>2016-02-26T11:51:44Z</time>
      </trkpt>
      <trkpt lat="46.64413" lon="12.21281">
        <ele>2313.55</ele>
        <time>2016-02-26T11:52:09Z</time>
      </trkpt>
      <trkpt lat="46.64413" lon="12.2128">
        <ele>2314.03</ele>
        <time>2016-02-26T11:52:44Z</time>
      </trkpt>
      <trkpt lat="46.64411" lon="12.21276">
        <ele>2314.99</ele>
        <time>2016-02-26T11:53:24Z</time>
      </trkpt>
      <trkpt lat="46.64412" lon="12.21278">
        <ele>2314.99</ele>
        <time>2016-02-26T11:53:43Z</time>
      </trkpt>
      <trkpt lat="46.64411" lon="12.21278">
        <ele>2314.03</ele>
        <time>2016-02-26T11:54:12Z</time>
      </trkpt>
      <trkpt lat="46.64414" lon="12.21277">
        <ele>2314.03</ele>
        <time>2016-02-26T11:54:28Z</time>
      </trkpt>
      <trkpt lat="46.64414" lon="12.21278">
        <ele>2313.55</ele>
        <time>2016-02-26T11:55:05Z</time>
      </trkpt>
      <trkpt lat="46.64415" lon="12.21277">
        <ele>2313.55</ele>
        <time>2016-02-26T11:55:48Z</time>
      </trkpt>
      <trkpt lat="46.64415" lon="12.21278">
        <ele>2314.03</ele>
        <time>2016-02-26T11:56:20Z</time>
      </trkpt>
      <trkpt lat="46.64415" lon="12.21278">
        <ele>2314.03</ele>
        <time>2016-02-26T11:56:42Z</time>
      </trkpt>
      <trkpt lat="46.64415" lon="12.21276">
        <ele>2314.03</ele>
        <time>2016-02-26T11:57:28Z</time>
      </trkpt>
      <trkpt lat="46.64415" lon="12.21277">
        <ele>2314.03</ele>
        <time>2016-02-26T11:58:05Z</time>
      </trkpt>
      <trkpt lat="46.64415" lon="12.21277">
        <ele>2314.03</ele>
        <time>2016-02-26T11:58:58Z</time>
      </trkpt>
      <trkpt lat="46.64415" lon="12.21276">
        <ele>2314.03</ele>
        <time>2016-02-26T11:59:48Z</time>
      </trkpt>
      <trkpt lat="46.64415" lon="12.21277">
        <ele>2314.03</ele>
        <time>2016-02-26T12:00:31Z</time>
      </trkpt>
      <trkpt lat="46.64415" lon="12.21276">
        <ele>2314.03</ele>
        <time>2016-02-26T12:01:14Z</time>
      </trkpt>
      <trkpt lat="46.64415" lon="12.21277">
        <ele>2313.55</ele>
        <time>2016-02-26T12:01:53Z</time>
      </trkpt>
      <trkpt lat="46.64415" lon="12.21276">
        <ele>2313.55</ele>
        <time>2016-02-26T12:02:39Z</time>
      </trkpt>
      <trkpt lat="46.64415" lon="12.21276">
        <ele>2313.55</ele>
        <time>2016-02-26T12:03:25Z</time>
      </trkpt>
      <trkpt lat="46.64415" lon="12.21276">
        <ele>2314.03</ele>
        <time>2016-02-26T12:04:11Z</time>
      </trkpt>
      <trkpt lat="46.64414" lon="12.21277">
        <ele>2313.55</ele>
        <time>2016-02-26T12:04:54Z</time>
      </trkpt>
      <trkpt lat="46.64415" lon="12.21277">
        <ele>2314.99</ele>
        <time>2016-02-26T12:05:14Z</time>
      </trkpt>
      <trkpt lat="46.64418" lon="12.21279">
        <ele>2315.47</ele>
        <time>2016-02-26T12:05:26Z</time>
      </trkpt>
      <trkpt lat="46.64423" lon="12.21278">
        <ele>2315.95</ele>
        <time>2016-02-26T12:05:39Z</time>
      </trkpt>
      <trkpt lat="46.64412" lon="12.21274">
        <ele>2314.03</ele>
        <time>2016-02-26T12:05:58Z</time>
      </trkpt>
      <trkpt lat="46.64401" lon="12.21265">
        <ele>2310.67</ele>
        <time>2016-02-26T12:06:16Z</time>
      </trkpt>
      <trkpt lat="46.64393" lon="12.21257">
        <ele>2307.3</ele>
        <time>2016-02-26T12:06:31Z</time>
      </trkpt>
      <trkpt lat="46.6439" lon="12.21254">
        <ele>2304.9</ele>
        <time>2016-02-26T12:06:43Z</time>
      </trkpt>
      <trkpt lat="46.64386" lon="12.21246">
        <ele>2302.49</ele>
        <time>2016-02-26T12:06:56Z</time>
      </trkpt>
      <trkpt lat="46.64386" lon="12.21243">
        <ele>2302.01</ele>
        <time>2016-02-26T12:06:59Z</time>
      </trkpt>
      <trkpt lat="46.64389" lon="12.21235">
        <ele>2302.01</ele>
        <time>2016-02-26T12:07:08Z</time>
      </trkpt>
      <trkpt lat="46.64388" lon="12.21231">
        <ele>2301.53</ele>
        <time>2016-02-26T12:07:11Z</time>
      </trkpt>
      <trkpt lat="46.64387" lon="12.21228">
        <ele>2301.53</ele>
        <time>2016-02-26T12:07:13Z</time>
      </trkpt>
      <trkpt lat="46.64377" lon="12.2122">
        <ele>2298.17</ele>
        <time>2016-02-26T12:07:31Z</time>
      </trkpt>
      <trkpt lat="46.64372" lon="12.21212">
        <ele>2295.77</ele>
        <time>2016-02-26T12:07:45Z</time>
      </trkpt>
      <trkpt lat="46.64364" lon="12.21206">
        <ele>2293.36</ele>
        <time>2016-02-26T12:08:00Z</time>
      </trkpt>
      <trkpt lat="46.64361" lon="12.21201">
        <ele>2292.88</ele>
        <time>2016-02-26T12:08:06Z</time>
      </trkpt>
      <trkpt lat="46.64355" lon="12.21193">
        <ele>2289.52</ele>
        <time>2016-02-26T12:08:19Z</time>
      </trkpt>
      <trkpt lat="46.64346" lon="12.21183">
        <ele>2287.11</ele>
        <time>2016-02-26T12:08:33Z</time>
      </trkpt>
      <trkpt lat="46.64337" lon="12.21176">
        <ele>2285.67</ele>
        <time>2016-02-26T12:08:48Z</time>
      </trkpt>
      <trkpt lat="46.6433" lon="12.21157">
        <ele>2284.23</ele>
        <time>2016-02-26T12:09:02Z</time>
      </trkpt>
      <trkpt lat="46.64322" lon="12.21135">
        <ele>2282.79</ele>
        <time>2016-02-26T12:09:19Z</time>
      </trkpt>
      <trkpt lat="46.64317" lon="12.21125">
        <ele>2283.27</ele>
        <time>2016-02-26T12:09:31Z</time>
      </trkpt>
      <trkpt lat="46.64309" lon="12.21097">
        <ele>2281.35</ele>
        <time>2016-02-26T12:09:50Z</time>
      </trkpt>
      <trkpt lat="46.64294" lon="12.21076">
        <ele>2280.87</ele>
        <time>2016-02-26T12:10:08Z</time>
      </trkpt>
      <trkpt lat="46.64283" lon="12.21056">
        <ele>2280.87</ele>
        <time>2016-02-26T12:10:25Z</time>
      </trkpt>
      <trkpt lat="46.64276" lon="12.2102">
        <ele>2279.42</ele>
        <time>2016-02-26T12:10:47Z</time>
      </trkpt>
      <trkpt lat="46.64279" lon="12.20993">
        <ele>2279.42</ele>
        <time>2016-02-26T12:11:05Z</time>
      </trkpt>
      <trkpt lat="46.64279" lon="12.2099">
        <ele>2279.42</ele>
        <time>2016-02-26T12:11:07Z</time>
      </trkpt>
      <trkpt lat="46.64277" lon="12.20978">
        <ele>2277.98</ele>
        <time>2016-02-26T12:11:23Z</time>
      </trkpt>
      <trkpt lat="46.64277" lon="12.2097">
        <ele>2276.54</ele>
        <time>2016-02-26T12:11:37Z</time>
      </trkpt>
      <trkpt lat="46.64278" lon="12.20964">
        <ele>2275.1</ele>
        <time>2016-02-26T12:11:51Z</time>
      </trkpt>
      <trkpt lat="46.64279" lon="12.20953">
        <ele>2274.62</ele>
        <time>2016-02-26T12:12:05Z</time>
      </trkpt>
      <trkpt lat="46.64279" lon="12.20945">
        <ele>2271.25</ele>
        <time>2016-02-26T12:12:14Z</time>
      </trkpt>
      <trkpt lat="46.64281" lon="12.20933">
        <ele>2269.33</ele>
        <time>2016-02-26T12:12:30Z</time>
      </trkpt>
      <trkpt lat="46.64281" lon="12.20924">
        <ele>2267.89</ele>
        <time>2016-02-26T12:12:46Z</time>
      </trkpt>
      <trkpt lat="46.6428" lon="12.20904">
        <ele>2264.52</ele>
        <time>2016-02-26T12:13:04Z</time>
      </trkpt>
      <trkpt lat="46.6428" lon="12.20888">
        <ele>2263.08</ele>
        <time>2016-02-26T12:13:19Z</time>
      </trkpt>
      <trkpt lat="46.64285" lon="12.20867">
        <ele>2262.6</ele>
        <time>2016-02-26T12:13:36Z</time>
      </trkpt>
      <trkpt lat="46.64285" lon="12.20864">
        <ele>2262.12</ele>
        <time>2016-02-26T12:13:38Z</time>
      </trkpt>
      <trkpt lat="46.64291" lon="12.20851">
        <ele>2260.2</ele>
        <time>2016-02-26T12:13:56Z</time>
      </trkpt>
      <trkpt lat="46.64295" lon="12.20842">
        <ele>2258.27</ele>
        <time>2016-02-26T12:14:09Z</time>
      </trkpt>
      <trkpt lat="46.64303" lon="12.20821">
        <ele>2256.35</ele>
        <time>2016-02-26T12:14:30Z</time>
      </trkpt>
      <trkpt lat="46.64307" lon="12.20806">
        <ele>2254.91</ele>
        <time>2016-02-26T12:14:45Z</time>
      </trkpt>
      <trkpt lat="46.64312" lon="12.20787">
        <ele>2252.51</ele>
        <time>2016-02-26T12:15:01Z</time>
      </trkpt>
      <trkpt lat="46.64317" lon="12.20769">
        <ele>2251.06</ele>
        <time>2016-02-26T12:15:19Z</time>
      </trkpt>
      <trkpt lat="46.64321" lon="12.20749">
        <ele>2249.62</ele>
        <time>2016-02-26T12:15:38Z</time>
      </trkpt>
      <trkpt lat="46.64323" lon="12.20734">
        <ele>2246.26</ele>
        <time>2016-02-26T12:15:56Z</time>
      </trkpt>
      <trkpt lat="46.64324" lon="12.20721">
        <ele>2243.37</ele>
        <time>2016-02-26T12:16:13Z</time>
      </trkpt>
      <trkpt lat="46.6432" lon="12.207">
        <ele>2240.01</ele>
        <time>2016-02-26T12:16:33Z</time>
      </trkpt>
      <trkpt lat="46.6433" lon="12.20688">
        <ele>2237.13</ele>
        <time>2016-02-26T12:16:50Z</time>
      </trkpt>
      <trkpt lat="46.64339" lon="12.20679">
        <ele>2234.24</ele>
        <time>2016-02-26T12:17:06Z</time>
      </trkpt>
      <trkpt lat="46.64347" lon="12.20661">
        <ele>2231.36</ele>
        <time>2016-02-26T12:17:24Z</time>
      </trkpt>
      <trkpt lat="46.64353" lon="12.20646">
        <ele>2228.47</ele>
        <time>2016-02-26T12:17:42Z</time>
      </trkpt>
      <trkpt lat="46.64356" lon="12.20637">
        <ele>2227.51</ele>
        <time>2016-02-26T12:17:57Z</time>
      </trkpt>
      <trkpt lat="46.64358" lon="12.2062">
        <ele>2225.11</ele>
        <time>2016-02-26T12:18:15Z</time>
      </trkpt>
      <trkpt lat="46.64354" lon="12.20602">
        <ele>2223.19</ele>
        <time>2016-02-26T12:18:31Z</time>
      </trkpt>
      <trkpt lat="46.64352" lon="12.20584">
        <ele>2220.3</ele>
        <time>2016-02-26T12:18:46Z</time>
      </trkpt>
      <trkpt lat="46.6435" lon="12.20561">
        <ele>2217.42</ele>
        <time>2016-02-26T12:19:06Z</time>
      </trkpt>
      <trkpt lat="46.64354" lon="12.20543">
        <ele>2215.98</ele>
        <time>2016-02-26T12:19:24Z</time>
      </trkpt>
      <trkpt lat="46.64356" lon="12.2053">
        <ele>2214.05</ele>
        <time>2016-02-26T12:19:40Z</time>
      </trkpt>
      <trkpt lat="46.6436" lon="12.20515">
        <ele>2212.61</ele>
        <time>2016-02-26T12:19:58Z</time>
      </trkpt>
      <trkpt lat="46.64365" lon="12.20496">
        <ele>2210.69</ele>
        <time>2016-02-26T12:20:15Z</time>
      </trkpt>
      <trkpt lat="46.64365" lon="12.20486">
        <ele>2209.25</ele>
        <time>2016-02-26T12:20:22Z</time>
      </trkpt>
      <trkpt lat="46.64367" lon="12.20462">
        <ele>2207.32</ele>
        <time>2016-02-26T12:20:40Z</time>
      </trkpt>
      <trkpt lat="46.6437" lon="12.20438">
        <ele>2206.84</ele>
        <time>2016-02-26T12:20:57Z</time>
      </trkpt>
      <trkpt lat="46.64369" lon="12.20432">
        <ele>2206.36</ele>
        <time>2016-02-26T12:21:01Z</time>
      </trkpt>
      <trkpt lat="46.64365" lon="12.20421">
        <ele>2206.36</ele>
        <time>2016-02-26T12:21:10Z</time>
      </trkpt>
      <trkpt lat="46.64356" lon="12.20408">
        <ele>2208.77</ele>
        <time>2016-02-26T12:21:27Z</time>
      </trkpt>
      <trkpt lat="46.64352" lon="12.20399">
        <ele>2210.69</ele>
        <time>2016-02-26T12:21:40Z</time>
      </trkpt>
      <trkpt lat="46.64345" lon="12.2039">
        <ele>2210.69</ele>
        <time>2016-02-26T12:21:54Z</time>
      </trkpt>
      <trkpt lat="46.64337" lon="12.20377">
        <ele>2211.17</ele>
        <time>2016-02-26T12:22:09Z</time>
      </trkpt>
      <trkpt lat="46.64329" lon="12.20368">
        <ele>2211.17</ele>
        <time>2016-02-26T12:22:24Z</time>
      </trkpt>
      <trkpt lat="46.64318" lon="12.20354">
        <ele>2211.17</ele>
        <time>2016-02-26T12:22:42Z</time>
      </trkpt>
      <trkpt lat="46.64307" lon="12.20333">
        <ele>2210.69</ele>
        <time>2016-02-26T12:23:02Z</time>
      </trkpt>
      <trkpt lat="46.64298" lon="12.20323">
        <ele>2210.21</ele>
        <time>2016-02-26T12:23:17Z</time>
      </trkpt>
      <trkpt lat="46.6429" lon="12.2032">
        <ele>2209.73</ele>
        <time>2016-02-26T12:23:34Z</time>
      </trkpt>
      <trkpt lat="46.64288" lon="12.20317">
        <ele>2209.25</ele>
        <time>2016-02-26T12:24:03Z</time>
      </trkpt>
      <trkpt lat="46.64287" lon="12.20316">
        <ele>2209.73</ele>
        <time>2016-02-26T12:24:14Z</time>
      </trkpt>
      <trkpt lat="46.64277" lon="12.20311">
        <ele>2208.29</ele>
        <time>2016-02-26T12:24:30Z</time>
      </trkpt>
      <trkpt lat="46.64268" lon="12.20308">
        <ele>2207.81</ele>
        <time>2016-02-26T12:24:45Z</time>
      </trkpt>
      <trkpt lat="46.64262" lon="12.20305">
        <ele>2207.32</ele>
        <time>2016-02-26T12:25:02Z</time>
      </trkpt>
      <trkpt lat="46.64252" lon="12.20292">
        <ele>2206.36</ele>
        <time>2016-02-26T12:25:18Z</time>
      </trkpt>
      <trkpt lat="46.64248" lon="12.20284">
        <ele>2205.4</ele>
        <time>2016-02-26T12:25:32Z</time>
      </trkpt>
      <trkpt lat="46.64245" lon="12.20273">
        <ele>2204.92</ele>
        <time>2016-02-26T12:25:40Z</time>
      </trkpt>
      <trkpt lat="46.64239" lon="12.20244">
        <ele>2204.44</ele>
        <time>2016-02-26T12:25:59Z</time>
      </trkpt>
      <trkpt lat="46.64242" lon="12.20215">
        <ele>2203</ele>
        <time>2016-02-26T12:26:18Z</time>
      </trkpt>
      <trkpt lat="46.64243" lon="12.20207">
        <ele>2203.48</ele>
        <time>2016-02-26T12:26:33Z</time>
      </trkpt>
      <trkpt lat="46.64244" lon="12.20196">
        <ele>2203</ele>
        <time>2016-02-26T12:26:48Z</time>
      </trkpt>
      <trkpt lat="46.64249" lon="12.20176">
        <ele>2203.96</ele>
        <time>2016-02-26T12:27:04Z</time>
      </trkpt>
      <trkpt lat="46.6425" lon="12.20162">
        <ele>2203.48</ele>
        <time>2016-02-26T12:27:14Z</time>
      </trkpt>
      <trkpt lat="46.6425" lon="12.2015">
        <ele>2203</ele>
        <time>2016-02-26T12:27:23Z</time>
      </trkpt>
      <trkpt lat="46.64249" lon="12.20144">
        <ele>2202.52</ele>
        <time>2016-02-26T12:27:27Z</time>
      </trkpt>
      <trkpt lat="46.64247" lon="12.20129">
        <ele>2201.08</ele>
        <time>2016-02-26T12:27:42Z</time>
      </trkpt>
      <trkpt lat="46.64247" lon="12.20129">
        <ele>2200.11</ele>
        <time>2016-02-26T12:28:07Z</time>
      </trkpt>
      <trkpt lat="46.64245" lon="12.20123">
        <ele>2199.63</ele>
        <time>2016-02-26T12:28:26Z</time>
      </trkpt>
      <trkpt lat="46.64244" lon="12.20122">
        <ele>2199.15</ele>
        <time>2016-02-26T12:28:45Z</time>
      </trkpt>
      <trkpt lat="46.64244" lon="12.20122">
        <ele>2198.19</ele>
        <time>2016-02-26T12:28:58Z</time>
      </trkpt>
      <trkpt lat="46.64246" lon="12.20123">
        <ele>2198.67</ele>
        <time>2016-02-26T12:29:20Z</time>
      </trkpt>
      <trkpt lat="46.64246" lon="12.20122">
        <ele>2198.67</ele>
        <time>2016-02-26T12:29:36Z</time>
      </trkpt>
      <trkpt lat="46.64246" lon="12.20121">
        <ele>2198.19</ele>
        <time>2016-02-26T12:29:50Z</time>
      </trkpt>
      <trkpt lat="46.64246" lon="12.2012">
        <ele>2198.67</ele>
        <time>2016-02-26T12:30:08Z</time>
      </trkpt>
      <trkpt lat="46.64244" lon="12.20114">
        <ele>2197.23</ele>
        <time>2016-02-26T12:30:25Z</time>
      </trkpt>
      <trkpt lat="46.64242" lon="12.20103">
        <ele>2194.35</ele>
        <time>2016-02-26T12:30:37Z</time>
      </trkpt>
      <trkpt lat="46.64246" lon="12.20083">
        <ele>2191.94</ele>
        <time>2016-02-26T12:30:56Z</time>
      </trkpt>
      <trkpt lat="46.64247" lon="12.20077">
        <ele>2190.98</ele>
        <time>2016-02-26T12:31:02Z</time>
      </trkpt>
      <trkpt lat="46.64254" lon="12.20057">
        <ele>2188.1</ele>
        <time>2016-02-26T12:31:20Z</time>
      </trkpt>
      <trkpt lat="46.64258" lon="12.20037">
        <ele>2184.73</ele>
        <time>2016-02-26T12:31:39Z</time>
      </trkpt>
      <trkpt lat="46.64261" lon="12.20033">
        <ele>2184.25</ele>
        <time>2016-02-26T12:31:56Z</time>
      </trkpt>
      <trkpt lat="46.64264" lon="12.20029">
        <ele>2185.21</ele>
        <time>2016-02-26T12:32:14Z</time>
      </trkpt>
      <trkpt lat="46.6427" lon="12.20019">
        <ele>2181.85</ele>
        <time>2016-02-26T12:32:32Z</time>
      </trkpt>
      <trkpt lat="46.64274" lon="12.20012">
        <ele>2180.89</ele>
        <time>2016-02-26T12:32:51Z</time>
      </trkpt>
      <trkpt lat="46.64277" lon="12.20008">
        <ele>2179.93</ele>
        <time>2016-02-26T12:33:07Z</time>
      </trkpt>
      <trkpt lat="46.64281" lon="12.20001">
        <ele>2178.97</ele>
        <time>2016-02-26T12:33:23Z</time>
      </trkpt>
      <trkpt lat="46.64289" lon="12.19995">
        <ele>2177.04</ele>
        <time>2016-02-26T12:33:41Z</time>
      </trkpt>
      <trkpt lat="46.64291" lon="12.19991">
        <ele>2176.56</ele>
        <time>2016-02-26T12:33:54Z</time>
      </trkpt>
      <trkpt lat="46.64291" lon="12.19987">
        <ele>2175.12</ele>
        <time>2016-02-26T12:34:09Z</time>
      </trkpt>
      <trkpt lat="46.64291" lon="12.19982">
        <ele>2174.16</ele>
        <time>2016-02-26T12:34:18Z</time>
      </trkpt>
      <trkpt lat="46.64294" lon="12.19977">
        <ele>2172.72</ele>
        <time>2016-02-26T12:34:36Z</time>
      </trkpt>
      <trkpt lat="46.64295" lon="12.19978">
        <ele>2172.24</ele>
        <time>2016-02-26T12:34:59Z</time>
      </trkpt>
      <trkpt lat="46.64299" lon="12.19972">
        <ele>2170.79</ele>
        <time>2016-02-26T12:35:15Z</time>
      </trkpt>
      <trkpt lat="46.64301" lon="12.19964">
        <ele>2168.39</ele>
        <time>2016-02-26T12:35:32Z</time>
      </trkpt>
      <trkpt lat="46.64305" lon="12.19955">
        <ele>2166.47</ele>
        <time>2016-02-26T12:35:52Z</time>
      </trkpt>
      <trkpt lat="46.64309" lon="12.19949">
        <ele>2165.03</ele>
        <time>2016-02-26T12:36:09Z</time>
      </trkpt>
      <trkpt lat="46.64316" lon="12.19935">
        <ele>2162.14</ele>
        <time>2016-02-26T12:36:27Z</time>
      </trkpt>
      <trkpt lat="46.64325" lon="12.19924">
        <ele>2159.26</ele>
        <time>2016-02-26T12:36:45Z</time>
      </trkpt>
      <trkpt lat="46.6433" lon="12.19922">
        <ele>2158.3</ele>
        <time>2016-02-26T12:36:57Z</time>
      </trkpt>
      <trkpt lat="46.64327" lon="12.19924">
        <ele>2158.78</ele>
        <time>2016-02-26T12:37:09Z</time>
      </trkpt>
      <trkpt lat="46.64323" lon="12.19921">
        <ele>2158.3</ele>
        <time>2016-02-26T12:37:22Z</time>
      </trkpt>
      <trkpt lat="46.64329" lon="12.19912">
        <ele>2156.37</ele>
        <time>2016-02-26T12:37:38Z</time>
      </trkpt>
      <trkpt lat="46.64335" lon="12.199">
        <ele>2153.01</ele>
        <time>2016-02-26T12:37:58Z</time>
      </trkpt>
      <trkpt lat="46.64341" lon="12.19889">
        <ele>2150.13</ele>
        <time>2016-02-26T12:38:17Z</time>
      </trkpt>
      <trkpt lat="46.64346" lon="12.19884">
        <ele>2148.2</ele>
        <time>2016-02-26T12:38:32Z</time>
      </trkpt>
      <trkpt lat="46.64353" lon="12.19874">
        <ele>2145.32</ele>
        <time>2016-02-26T12:38:51Z</time>
      </trkpt>
      <trkpt lat="46.64363" lon="12.19866">
        <ele>2142.44</ele>
        <time>2016-02-26T12:39:09Z</time>
      </trkpt>
      <trkpt lat="46.64371" lon="12.19861">
        <ele>2140.99</ele>
        <time>2016-02-26T12:39:18Z</time>
      </trkpt>
      <trkpt lat="46.64386" lon="12.19846">
        <ele>2138.11</ele>
        <time>2016-02-26T12:39:38Z</time>
      </trkpt>
      <trkpt lat="46.64394" lon="12.19837">
        <ele>2137.63</ele>
        <time>2016-02-26T12:39:53Z</time>
      </trkpt>
      <trkpt lat="46.644" lon="12.19831">
        <ele>2137.15</ele>
        <time>2016-02-26T12:40:09Z</time>
      </trkpt>
      <trkpt lat="46.64405" lon="12.19826">
        <ele>2136.67</ele>
        <time>2016-02-26T12:40:23Z</time>
      </trkpt>
      <trkpt lat="46.64411" lon="12.19821">
        <ele>2135.71</ele>
        <time>2016-02-26T12:40:37Z</time>
      </trkpt>
      <trkpt lat="46.64417" lon="12.19817">
        <ele>2134.74</ele>
        <time>2016-02-26T12:40:51Z</time>
      </trkpt>
      <trkpt lat="46.64426" lon="12.19809">
        <ele>2132.82</ele>
        <time>2016-02-26T12:41:06Z</time>
      </trkpt>
      <trkpt lat="46.64433" lon="12.19801">
        <ele>2130.9</ele>
        <time>2016-02-26T12:41:23Z</time>
      </trkpt>
      <trkpt lat="46.64442" lon="12.19794">
        <ele>2129.46</ele>
        <time>2016-02-26T12:41:38Z</time>
      </trkpt>
      <trkpt lat="46.6445" lon="12.19792">
        <ele>2128.5</ele>
        <time>2016-02-26T12:41:52Z</time>
      </trkpt>
      <trkpt lat="46.64451" lon="12.19793">
        <ele>2128.5</ele>
        <time>2016-02-26T12:42:14Z</time>
      </trkpt>
      <trkpt lat="46.64455" lon="12.19792">
        <ele>2128.5</ele>
        <time>2016-02-26T12:42:29Z</time>
      </trkpt>
      <trkpt lat="46.64455" lon="12.19793">
        <ele>2128.02</ele>
        <time>2016-02-26T12:42:55Z</time>
      </trkpt>
      <trkpt lat="46.64463" lon="12.19789">
        <ele>2127.05</ele>
        <time>2016-02-26T12:43:10Z</time>
      </trkpt>
      <trkpt lat="46.64465" lon="12.19787">
        <ele>2127.53</ele>
        <time>2016-02-26T12:43:29Z</time>
      </trkpt>
      <trkpt lat="46.64472" lon="12.19784">
        <ele>2126.57</ele>
        <time>2016-02-26T12:43:38Z</time>
      </trkpt>
      <trkpt lat="46.6449" lon="12.19773">
        <ele>2125.13</ele>
        <time>2016-02-26T12:43:58Z</time>
      </trkpt>
      <trkpt lat="46.64506" lon="12.19761">
        <ele>2124.65</ele>
        <time>2016-02-26T12:44:15Z</time>
      </trkpt>
      <trkpt lat="46.64519" lon="12.19754">
        <ele>2123.21</ele>
        <time>2016-02-26T12:44:34Z</time>
      </trkpt>
      <trkpt lat="46.64526" lon="12.19748">
        <ele>2122.73</ele>
        <time>2016-02-26T12:44:50Z</time>
      </trkpt>
      <trkpt lat="46.64535" lon="12.19741">
        <ele>2121.29</ele>
        <time>2016-02-26T12:45:07Z</time>
      </trkpt>
      <trkpt lat="46.64547" lon="12.19732">
        <ele>2119.84</ele>
        <time>2016-02-26T12:45:24Z</time>
      </trkpt>
      <trkpt lat="46.64559" lon="12.19723">
        <ele>2117.92</ele>
        <time>2016-02-26T12:45:43Z</time>
      </trkpt>
      <trkpt lat="46.64571" lon="12.19715">
        <ele>2116.48</ele>
        <time>2016-02-26T12:46:00Z</time>
      </trkpt>
      <trkpt lat="46.64583" lon="12.19711">
        <ele>2115.04</ele>
        <time>2016-02-26T12:46:14Z</time>
      </trkpt>
      <trkpt lat="46.64584" lon="12.19711">
        <ele>2114.56</ele>
        <time>2016-02-26T12:46:15Z</time>
      </trkpt>
      <trkpt lat="46.64601" lon="12.19716">
        <ele>2113.12</ele>
        <time>2016-02-26T12:46:33Z</time>
      </trkpt>
      <trkpt lat="46.6461" lon="12.19718">
        <ele>2112.15</ele>
        <time>2016-02-26T12:46:44Z</time>
      </trkpt>
      <trkpt lat="46.64624" lon="12.19704">
        <ele>2110.23</ele>
        <time>2016-02-26T12:47:05Z</time>
      </trkpt>
      <trkpt lat="46.64627" lon="12.19689">
        <ele>2107.83</ele>
        <time>2016-02-26T12:47:20Z</time>
      </trkpt>
      <trkpt lat="46.64633" lon="12.19673">
        <ele>2105.42</ele>
        <time>2016-02-26T12:47:37Z</time>
      </trkpt>
      <trkpt lat="46.64643" lon="12.19657">
        <ele>2102.54</ele>
        <time>2016-02-26T12:47:55Z</time>
      </trkpt>
      <trkpt lat="46.6465" lon="12.19646">
        <ele>2101.1</ele>
        <time>2016-02-26T12:48:08Z</time>
      </trkpt>
      <trkpt lat="46.6466" lon="12.19631">
        <ele>2099.18</ele>
        <time>2016-02-26T12:48:25Z</time>
      </trkpt>
      <trkpt lat="46.64671" lon="12.19614">
        <ele>2097.73</ele>
        <time>2016-02-26T12:48:44Z</time>
      </trkpt>
      <trkpt lat="46.6468" lon="12.19596">
        <ele>2097.25</ele>
        <time>2016-02-26T12:49:00Z</time>
      </trkpt>
      <trkpt lat="46.64685" lon="12.19582">
        <ele>2095.81</ele>
        <time>2016-02-26T12:49:16Z</time>
      </trkpt>
      <trkpt lat="46.64691" lon="12.19573">
        <ele>2095.33</ele>
        <time>2016-02-26T12:49:31Z</time>
      </trkpt>
      <trkpt lat="46.64693" lon="12.19569">
        <ele>2095.81</ele>
        <time>2016-02-26T12:49:45Z</time>
      </trkpt>
      <trkpt lat="46.647" lon="12.19557">
        <ele>2094.37</ele>
        <time>2016-02-26T12:50:01Z</time>
      </trkpt>
      <trkpt lat="46.64707" lon="12.19547">
        <ele>2093.89</ele>
        <time>2016-02-26T12:50:16Z</time>
      </trkpt>
      <trkpt lat="46.64713" lon="12.19536">
        <ele>2093.41</ele>
        <time>2016-02-26T12:50:30Z</time>
      </trkpt>
      <trkpt lat="46.64719" lon="12.19522">
        <ele>2091.97</ele>
        <time>2016-02-26T12:50:46Z</time>
      </trkpt>
      <trkpt lat="46.64722" lon="12.19511">
        <ele>2091.49</ele>
        <time>2016-02-26T12:51:04Z</time>
      </trkpt>
      <trkpt lat="46.64724" lon="12.19497">
        <ele>2089.56</ele>
        <time>2016-02-26T12:51:20Z</time>
      </trkpt>
      <trkpt lat="46.64723" lon="12.19483">
        <ele>2087.16</ele>
        <time>2016-02-26T12:51:36Z</time>
      </trkpt>
      <trkpt lat="46.64723" lon="12.19475">
        <ele>2085.72</ele>
        <time>2016-02-26T12:51:45Z</time>
      </trkpt>
      <trkpt lat="46.64725" lon="12.19454">
        <ele>2085.24</ele>
        <time>2016-02-26T12:52:01Z</time>
      </trkpt>
      <trkpt lat="46.64727" lon="12.19435">
        <ele>2084.28</ele>
        <time>2016-02-26T12:52:17Z</time>
      </trkpt>
      <trkpt lat="46.64724" lon="12.1942">
        <ele>2081.87</ele>
        <time>2016-02-26T12:52:32Z</time>
      </trkpt>
      <trkpt lat="46.64717" lon="12.19406">
        <ele>2079.95</ele>
        <time>2016-02-26T12:52:51Z</time>
      </trkpt>
      <trkpt lat="46.64713" lon="12.19396">
        <ele>2078.99</ele>
        <time>2016-02-26T12:53:03Z</time>
      </trkpt>
      <trkpt lat="46.64706" lon="12.19378">
        <ele>2076.1</ele>
        <time>2016-02-26T12:53:21Z</time>
      </trkpt>
      <trkpt lat="46.64706" lon="12.19371">
        <ele>2074.66</ele>
        <time>2016-02-26T12:53:32Z</time>
      </trkpt>
      <trkpt lat="46.64707" lon="12.19357">
        <ele>2074.18</ele>
        <time>2016-02-26T12:53:45Z</time>
      </trkpt>
      <trkpt lat="46.64706" lon="12.19348">
        <ele>2074.18</ele>
        <time>2016-02-26T12:53:58Z</time>
      </trkpt>
      <trkpt lat="46.64709" lon="12.19344">
        <ele>2074.66</ele>
        <time>2016-02-26T12:54:09Z</time>
      </trkpt>
      <trkpt lat="46.64712" lon="12.19336">
        <ele>2073.7</ele>
        <time>2016-02-26T12:54:21Z</time>
      </trkpt>
      <trkpt lat="46.64723" lon="12.19316">
        <ele>2072.74</ele>
        <time>2016-02-26T12:54:40Z</time>
      </trkpt>
      <trkpt lat="46.64733" lon="12.19301">
        <ele>2072.74</ele>
        <time>2016-02-26T12:54:56Z</time>
      </trkpt>
      <trkpt lat="46.64741" lon="12.19285">
        <ele>2071.78</ele>
        <time>2016-02-26T12:55:12Z</time>
      </trkpt>
      <trkpt lat="46.64751" lon="12.19266">
        <ele>2070.34</ele>
        <time>2016-02-26T12:55:30Z</time>
      </trkpt>
      <trkpt lat="46.64762" lon="12.19253">
        <ele>2070.34</ele>
        <time>2016-02-26T12:55:45Z</time>
      </trkpt>
      <trkpt lat="46.64774" lon="12.19237">
        <ele>2069.86</ele>
        <time>2016-02-26T12:56:03Z</time>
      </trkpt>
      <trkpt lat="46.64785" lon="12.19221">
        <ele>2069.38</ele>
        <time>2016-02-26T12:56:20Z</time>
      </trkpt>
      <trkpt lat="46.64794" lon="12.19204">
        <ele>2067.93</ele>
        <time>2016-02-26T12:56:37Z</time>
      </trkpt>
      <trkpt lat="46.64806" lon="12.19184">
        <ele>2066.49</ele>
        <time>2016-02-26T12:56:57Z</time>
      </trkpt>
      <trkpt lat="46.64816" lon="12.19166">
        <ele>2066.01</ele>
        <time>2016-02-26T12:57:14Z</time>
      </trkpt>
      <trkpt lat="46.64829" lon="12.19152">
        <ele>2064.09</ele>
        <time>2016-02-26T12:57:30Z</time>
      </trkpt>
      <trkpt lat="46.64832" lon="12.19149">
        <ele>2063.61</ele>
        <time>2016-02-26T12:57:34Z</time>
      </trkpt>
      <trkpt lat="46.64847" lon="12.19142">
        <ele>2063.13</ele>
        <time>2016-02-26T12:57:51Z</time>
      </trkpt>
      <trkpt lat="46.64858" lon="12.1914">
        <ele>2062.65</ele>
        <time>2016-02-26T12:58:07Z</time>
      </trkpt>
      <trkpt lat="46.64867" lon="12.19137">
        <ele>2062.17</ele>
        <time>2016-02-26T12:58:24Z</time>
      </trkpt>
      <trkpt lat="46.64882" lon="12.1913">
        <ele>2060.24</ele>
        <time>2016-02-26T12:58:41Z</time>
      </trkpt>
      <trkpt lat="46.6489" lon="12.19117">
        <ele>2059.28</ele>
        <time>2016-02-26T12:58:54Z</time>
      </trkpt>
      <trkpt lat="46.64894" lon="12.19111">
        <ele>2058.8</ele>
        <time>2016-02-26T12:59:07Z</time>
      </trkpt>
      <trkpt lat="46.64904" lon="12.19094">
        <ele>2056.4</ele>
        <time>2016-02-26T12:59:23Z</time>
      </trkpt>
      <trkpt lat="46.64916" lon="12.19077">
        <ele>2053.99</ele>
        <time>2016-02-26T12:59:42Z</time>
      </trkpt>
      <trkpt lat="46.64927" lon="12.19079">
        <ele>2051.59</ele>
        <time>2016-02-26T12:59:59Z</time>
      </trkpt>
      <trkpt lat="46.64937" lon="12.19079">
        <ele>2048.71</ele>
        <time>2016-02-26T13:00:13Z</time>
      </trkpt>
      <trkpt lat="46.64941" lon="12.19073">
        <ele>2046.78</ele>
        <time>2016-02-26T13:00:23Z</time>
      </trkpt>
      <trkpt lat="46.64944" lon="12.19064">
        <ele>2048.23</ele>
        <time>2016-02-26T13:00:37Z</time>
      </trkpt>
      <trkpt lat="46.64948" lon="12.19058">
        <ele>2050.15</ele>
        <time>2016-02-26T13:00:50Z</time>
      </trkpt>
      <trkpt lat="46.64952" lon="12.19054">
        <ele>2050.15</ele>
        <time>2016-02-26T13:01:05Z</time>
      </trkpt>
      <trkpt lat="46.64955" lon="12.1905">
        <ele>2048.71</ele>
        <time>2016-02-26T13:01:22Z</time>
      </trkpt>
      <trkpt lat="46.64956" lon="12.19048">
        <ele>2048.23</ele>
        <time>2016-02-26T13:01:37Z</time>
      </trkpt>
      <trkpt lat="46.64962" lon="12.19044">
        <ele>2046.3</ele>
        <time>2016-02-26T13:01:48Z</time>
      </trkpt>
      <trkpt lat="46.64976" lon="12.19035">
        <ele>2045.34</ele>
        <time>2016-02-26T13:02:06Z</time>
      </trkpt>
      <trkpt lat="46.64983" lon="12.19029">
        <ele>2045.82</ele>
        <time>2016-02-26T13:02:23Z</time>
      </trkpt>
      <trkpt lat="46.6499" lon="12.19019">
        <ele>2047.26</ele>
        <time>2016-02-26T13:02:37Z</time>
      </trkpt>
      <trkpt lat="46.64999" lon="12.19009">
        <ele>2048.23</ele>
        <time>2016-02-26T13:02:53Z</time>
      </trkpt>
      <trkpt lat="46.65011" lon="12.19001">
        <ele>2048.71</ele>
        <time>2016-02-26T13:03:11Z</time>
      </trkpt>
      <trkpt lat="46.65019" lon="12.18993">
        <ele>2049.67</ele>
        <time>2016-02-26T13:03:25Z</time>
      </trkpt>
      <trkpt lat="46.6503" lon="12.18984">
        <ele>2049.67</ele>
        <time>2016-02-26T13:03:41Z</time>
      </trkpt>
      <trkpt lat="46.6504" lon="12.18974">
        <ele>2051.11</ele>
        <time>2016-02-26T13:03:58Z</time>
      </trkpt>
      <trkpt lat="46.65049" lon="12.18967">
        <ele>2052.07</ele>
        <time>2016-02-26T13:04:12Z</time>
      </trkpt>
      <trkpt lat="46.65057" lon="12.1896">
        <ele>2053.99</ele>
        <time>2016-02-26T13:04:27Z</time>
      </trkpt>
      <trkpt lat="46.65066" lon="12.18947">
        <ele>2054.96</ele>
        <time>2016-02-26T13:04:45Z</time>
      </trkpt>
      <trkpt lat="46.65074" lon="12.18937">
        <ele>2055.92</ele>
        <time>2016-02-26T13:05:00Z</time>
      </trkpt>
      <trkpt lat="46.65081" lon="12.18928">
        <ele>2057.84</ele>
        <time>2016-02-26T13:05:14Z</time>
      </trkpt>
      <trkpt lat="46.65088" lon="12.18918">
        <ele>2059.76</ele>
        <time>2016-02-26T13:05:29Z</time>
      </trkpt>
      <trkpt lat="46.65096" lon="12.18911">
        <ele>2062.17</ele>
        <time>2016-02-26T13:05:46Z</time>
      </trkpt>
      <trkpt lat="46.65104" lon="12.18905">
        <ele>2062.65</ele>
        <time>2016-02-26T13:06:01Z</time>
      </trkpt>
      <trkpt lat="46.65106" lon="12.18901">
        <ele>2062.65</ele>
        <time>2016-02-26T13:06:13Z</time>
      </trkpt>
      <trkpt lat="46.65111" lon="12.18892">
        <ele>2062.17</ele>
        <time>2016-02-26T13:06:27Z</time>
      </trkpt>
      <trkpt lat="46.6511" lon="12.18891">
        <ele>2062.17</ele>
        <time>2016-02-26T13:06:42Z</time>
      </trkpt>
      <trkpt lat="46.65111" lon="12.18889">
        <ele>2062.17</ele>
        <time>2016-02-26T13:06:54Z</time>
      </trkpt>
      <trkpt lat="46.65114" lon="12.18891">
        <ele>2062.65</ele>
        <time>2016-02-26T13:07:16Z</time>
      </trkpt>
      <trkpt lat="46.65112" lon="12.18888">
        <ele>2062.65</ele>
        <time>2016-02-26T13:07:37Z</time>
      </trkpt>
      <trkpt lat="46.65109" lon="12.18891">
        <ele>2061.68</ele>
        <time>2016-02-26T13:07:56Z</time>
      </trkpt>
      <trkpt lat="46.65116" lon="12.18879">
        <ele>2063.13</ele>
        <time>2016-02-26T13:08:13Z</time>
      </trkpt>
      <trkpt lat="46.65119" lon="12.18864">
        <ele>2065.05</ele>
        <time>2016-02-26T13:08:29Z</time>
      </trkpt>
      <trkpt lat="46.6512" lon="12.18854">
        <ele>2065.53</ele>
        <time>2016-02-26T13:08:49Z</time>
      </trkpt>
      <trkpt lat="46.65121" lon="12.18844">
        <ele>2065.53</ele>
        <time>2016-02-26T13:09:03Z</time>
      </trkpt>
      <trkpt lat="46.65122" lon="12.18839">
        <ele>2066.49</ele>
        <time>2016-02-26T13:09:08Z</time>
      </trkpt>
      <trkpt lat="46.65122" lon="12.18829">
        <ele>2064.09</ele>
        <time>2016-02-26T13:09:21Z</time>
      </trkpt>
      <trkpt lat="46.6512" lon="12.18819">
        <ele>2063.61</ele>
        <time>2016-02-26T13:09:35Z</time>
      </trkpt>
      <trkpt lat="46.6512" lon="12.18808">
        <ele>2063.61</ele>
        <time>2016-02-26T13:09:53Z</time>
      </trkpt>
      <trkpt lat="46.65119" lon="12.18793">
        <ele>2062.17</ele>
        <time>2016-02-26T13:10:08Z</time>
      </trkpt>
      <trkpt lat="46.65127" lon="12.18781">
        <ele>2063.13</ele>
        <time>2016-02-26T13:10:24Z</time>
      </trkpt>
      <trkpt lat="46.65134" lon="12.18775">
        <ele>2064.57</ele>
        <time>2016-02-26T13:10:40Z</time>
      </trkpt>
      <trkpt lat="46.65143" lon="12.18768">
        <ele>2065.05</ele>
        <time>2016-02-26T13:10:52Z</time>
      </trkpt>
      <trkpt lat="46.65148" lon="12.18762">
        <ele>2066.49</ele>
        <time>2016-02-26T13:11:07Z</time>
      </trkpt>
      <trkpt lat="46.65156" lon="12.18758">
        <ele>2066.97</ele>
        <time>2016-02-26T13:11:20Z</time>
      </trkpt>
      <trkpt lat="46.65166" lon="12.18748">
        <ele>2067.45</ele>
        <time>2016-02-26T13:11:37Z</time>
      </trkpt>
      <trkpt lat="46.65176" lon="12.18738">
        <ele>2067.93</ele>
        <time>2016-02-26T13:11:52Z</time>
      </trkpt>
      <trkpt lat="46.65188" lon="12.18727">
        <ele>2068.89</ele>
        <time>2016-02-26T13:12:09Z</time>
      </trkpt>
      <trkpt lat="46.65198" lon="12.18717">
        <ele>2069.38</ele>
        <time>2016-02-26T13:12:24Z</time>
      </trkpt>
      <trkpt lat="46.65212" lon="12.18708">
        <ele>2069.86</ele>
        <time>2016-02-26T13:12:41Z</time>
      </trkpt>
      <trkpt lat="46.65223" lon="12.18698">
        <ele>2070.34</ele>
        <time>2016-02-26T13:12:57Z</time>
      </trkpt>
      <trkpt lat="46.65229" lon="12.18693">
        <ele>2070.82</ele>
        <time>2016-02-26T13:13:10Z</time>
      </trkpt>
      <trkpt lat="46.6524" lon="12.18675">
        <ele>2070.34</ele>
        <time>2016-02-26T13:13:29Z</time>
      </trkpt>
      <trkpt lat="46.6525" lon="12.18657">
        <ele>2068.89</ele>
        <time>2016-02-26T13:13:48Z</time>
      </trkpt>
      <trkpt lat="46.6526" lon="12.18641">
        <ele>2067.93</ele>
        <time>2016-02-26T13:14:04Z</time>
      </trkpt>
      <trkpt lat="46.65272" lon="12.18622">
        <ele>2066.01</ele>
        <time>2016-02-26T13:14:23Z</time>
      </trkpt>
      <trkpt lat="46.65281" lon="12.18612">
        <ele>2065.53</ele>
        <time>2016-02-26T13:14:36Z</time>
      </trkpt>
      <trkpt lat="46.65289" lon="12.18598">
        <ele>2065.05</ele>
        <time>2016-02-26T13:14:51Z</time>
      </trkpt>
      <trkpt lat="46.65301" lon="12.18586">
        <ele>2064.57</ele>
        <time>2016-02-26T13:15:07Z</time>
      </trkpt>
      <trkpt lat="46.65317" lon="12.1857">
        <ele>2064.57</ele>
        <time>2016-02-26T13:15:26Z</time>
      </trkpt>
      <trkpt lat="46.6533" lon="12.18558">
        <ele>2064.09</ele>
        <time>2016-02-26T13:15:42Z</time>
      </trkpt>
      <trkpt lat="46.6534" lon="12.18553">
        <ele>2063.61</ele>
        <time>2016-02-26T13:15:58Z</time>
      </trkpt>
      <trkpt lat="46.65357" lon="12.18549">
        <ele>2063.61</ele>
        <time>2016-02-26T13:16:17Z</time>
      </trkpt>
      <trkpt lat="46.65374" lon="12.18542">
        <ele>2061.68</ele>
        <time>2016-02-26T13:16:35Z</time>
      </trkpt>
      <trkpt lat="46.65381" lon="12.18538">
        <ele>2060.24</ele>
        <time>2016-02-26T13:16:51Z</time>
      </trkpt>
      <trkpt lat="46.65389" lon="12.18526">
        <ele>2057.84</ele>
        <time>2016-02-26T13:17:07Z</time>
      </trkpt>
      <trkpt lat="46.65401" lon="12.18523">
        <ele>2054.47</ele>
        <time>2016-02-26T13:17:21Z</time>
      </trkpt>
      <trkpt lat="46.65404" lon="12.18518">
        <ele>2054.47</ele>
        <time>2016-02-26T13:17:25Z</time>
      </trkpt>
      <trkpt lat="46.65408" lon="12.18506">
        <ele>2057.36</ele>
        <time>2016-02-26T13:17:39Z</time>
      </trkpt>
      <trkpt lat="46.65412" lon="12.18501">
        <ele>2057.36</ele>
        <time>2016-02-26T13:17:54Z</time>
      </trkpt>
      <trkpt lat="46.65414" lon="12.18496">
        <ele>2057.36</ele>
        <time>2016-02-26T13:18:08Z</time>
      </trkpt>
      <trkpt lat="46.65415" lon="12.18496">
        <ele>2057.36</ele>
        <time>2016-02-26T13:18:10Z</time>
      </trkpt>
      <trkpt lat="46.65426" lon="12.18474">
        <ele>2058.8</ele>
        <time>2016-02-26T13:18:29Z</time>
      </trkpt>
      <trkpt lat="46.65427" lon="12.1847">
        <ele>2056.4</ele>
        <time>2016-02-26T13:18:32Z</time>
      </trkpt>
      <trkpt lat="46.6543" lon="12.18455">
        <ele>2056.88</ele>
        <time>2016-02-26T13:18:47Z</time>
      </trkpt>
      <trkpt lat="46.65431" lon="12.18446">
        <ele>2055.92</ele>
        <time>2016-02-26T13:18:55Z</time>
      </trkpt>
      <trkpt lat="46.65421" lon="12.18431">
        <ele>2056.88</ele>
        <time>2016-02-26T13:19:12Z</time>
      </trkpt>
      <trkpt lat="46.65413" lon="12.1842">
        <ele>2057.84</ele>
        <time>2016-02-26T13:19:26Z</time>
      </trkpt>
      <trkpt lat="46.65411" lon="12.18414">
        <ele>2056.88</ele>
        <time>2016-02-26T13:19:40Z</time>
      </trkpt>
      <trkpt lat="46.65408" lon="12.18402">
        <ele>2055.92</ele>
        <time>2016-02-26T13:19:53Z</time>
      </trkpt>
      <trkpt lat="46.65409" lon="12.18391">
        <ele>2054.47</ele>
        <time>2016-02-26T13:20:08Z</time>
      </trkpt>
      <trkpt lat="46.65409" lon="12.18382">
        <ele>2053.03</ele>
        <time>2016-02-26T13:20:20Z</time>
      </trkpt>
      <trkpt lat="46.6541" lon="12.18377">
        <ele>2051.59</ele>
        <time>2016-02-26T13:20:31Z</time>
      </trkpt>
      <trkpt lat="46.6541" lon="12.18364">
        <ele>2048.23</ele>
        <time>2016-02-26T13:20:46Z</time>
      </trkpt>
      <trkpt lat="46.65411" lon="12.18351">
        <ele>2045.82</ele>
        <time>2016-02-26T13:21:00Z</time>
      </trkpt>
      <trkpt lat="46.6541" lon="12.18339">
        <ele>2042.46</ele>
        <time>2016-02-26T13:21:17Z</time>
      </trkpt>
      <trkpt lat="46.65411" lon="12.18324">
        <ele>2039.57</ele>
        <time>2016-02-26T13:21:34Z</time>
      </trkpt>
      <trkpt lat="46.6541" lon="12.18306">
        <ele>2036.21</ele>
        <time>2016-02-26T13:21:52Z</time>
      </trkpt>
      <trkpt lat="46.65412" lon="12.1829">
        <ele>2034.29</ele>
        <time>2016-02-26T13:22:08Z</time>
      </trkpt>
      <trkpt lat="46.6541" lon="12.18276">
        <ele>2031.4</ele>
        <time>2016-02-26T13:22:25Z</time>
      </trkpt>
      <trkpt lat="46.65409" lon="12.18262">
        <ele>2028.52</ele>
        <time>2016-02-26T13:22:43Z</time>
      </trkpt>
      <trkpt lat="46.65411" lon="12.1825">
        <ele>2026.12</ele>
        <time>2016-02-26T13:22:59Z</time>
      </trkpt>
      <trkpt lat="46.65412" lon="12.1824">
        <ele>2024.19</ele>
        <time>2016-02-26T13:23:15Z</time>
      </trkpt>
      <trkpt lat="46.65413" lon="12.18237">
        <ele>2023.23</ele>
        <time>2016-02-26T13:23:27Z</time>
      </trkpt>
      <trkpt lat="46.6542" lon="12.18218">
        <ele>2020.35</ele>
        <time>2016-02-26T13:23:45Z</time>
      </trkpt>
      <trkpt lat="46.65422" lon="12.18205">
        <ele>2020.35</ele>
        <time>2016-02-26T13:23:57Z</time>
      </trkpt>
      <trkpt lat="46.65423" lon="12.18195">
        <ele>2019.87</ele>
        <time>2016-02-26T13:24:10Z</time>
      </trkpt>
      <trkpt lat="46.65421" lon="12.18184">
        <ele>2019.39</ele>
        <time>2016-02-26T13:24:29Z</time>
      </trkpt>
      <trkpt lat="46.6542" lon="12.18183">
        <ele>2020.83</ele>
        <time>2016-02-26T13:24:31Z</time>
      </trkpt>
      <trkpt lat="46.65419" lon="12.18183">
        <ele>2019.39</ele>
        <time>2016-02-26T13:24:32Z</time>
      </trkpt>
      <trkpt lat="46.65419" lon="12.18182">
        <ele>2018.91</ele>
        <time>2016-02-26T13:24:33Z</time>
      </trkpt>
      <trkpt lat="46.65406" lon="12.18174">
        <ele>2018.91</ele>
        <time>2016-02-26T13:24:47Z</time>
      </trkpt>
      <trkpt lat="46.65394" lon="12.18162">
        <ele>2019.87</ele>
        <time>2016-02-26T13:25:04Z</time>
      </trkpt>
      <trkpt lat="46.65389" lon="12.18156">
        <ele>2019.87</ele>
        <time>2016-02-26T13:25:17Z</time>
      </trkpt>
      <trkpt lat="46.65382" lon="12.18147">
        <ele>2018.91</ele>
        <time>2016-02-26T13:25:29Z</time>
      </trkpt>
      <trkpt lat="46.65375" lon="12.1814">
        <ele>2018.43</ele>
        <time>2016-02-26T13:25:40Z</time>
      </trkpt>
      <trkpt lat="46.65366" lon="12.18131">
        <ele>2017.94</ele>
        <time>2016-02-26T13:25:54Z</time>
      </trkpt>
      <trkpt lat="46.65364" lon="12.18128">
        <ele>2017.46</ele>
        <time>2016-02-26T13:26:08Z</time>
      </trkpt>
      <trkpt lat="46.65358" lon="12.18119">
        <ele>2016.5</ele>
        <time>2016-02-26T13:26:19Z</time>
      </trkpt>
      <trkpt lat="46.65356" lon="12.18103">
        <ele>2015.54</ele>
        <time>2016-02-26T13:26:35Z</time>
      </trkpt>
      <trkpt lat="46.65358" lon="12.18092">
        <ele>2014.1</ele>
        <time>2016-02-26T13:26:43Z</time>
      </trkpt>
      <trkpt lat="46.65362" lon="12.18071">
        <ele>2012.66</ele>
        <time>2016-02-26T13:27:00Z</time>
      </trkpt>
      <trkpt lat="46.65362" lon="12.18056">
        <ele>2010.73</ele>
        <time>2016-02-26T13:27:15Z</time>
      </trkpt>
      <trkpt lat="46.65363" lon="12.18056">
        <ele>2010.25</ele>
        <time>2016-02-26T13:27:28Z</time>
      </trkpt>
      <trkpt lat="46.65361" lon="12.18055">
        <ele>2010.25</ele>
        <time>2016-02-26T13:27:49Z</time>
      </trkpt>
      <trkpt lat="46.65362" lon="12.18059">
        <ele>2010.73</ele>
        <time>2016-02-26T13:28:17Z</time>
      </trkpt>
      <trkpt lat="46.65363" lon="12.18055">
        <ele>2010.73</ele>
        <time>2016-02-26T13:28:37Z</time>
      </trkpt>
      <trkpt lat="46.65362" lon="12.18057">
        <ele>2010.73</ele>
        <time>2016-02-26T13:28:57Z</time>
      </trkpt>
      <trkpt lat="46.65362" lon="12.18055">
        <ele>2010.73</ele>
        <time>2016-02-26T13:29:14Z</time>
      </trkpt>
      <trkpt lat="46.65362" lon="12.18055">
        <ele>2010.73</ele>
        <time>2016-02-26T13:29:36Z</time>
      </trkpt>
      <trkpt lat="46.65365" lon="12.18056">
        <ele>2010.73</ele>
        <time>2016-02-26T13:29:53Z</time>
      </trkpt>
      <trkpt lat="46.65363" lon="12.18056">
        <ele>2010.73</ele>
        <time>2016-02-26T13:30:21Z</time>
      </trkpt>
      <trkpt lat="46.65363" lon="12.18046">
        <ele>2009.29</ele>
        <time>2016-02-26T13:30:31Z</time>
      </trkpt>
      <trkpt lat="46.65363" lon="12.18044">
        <ele>2009.29</ele>
        <time>2016-02-26T13:30:33Z</time>
      </trkpt>
      <trkpt lat="46.65362" lon="12.18025">
        <ele>2006.41</ele>
        <time>2016-02-26T13:30:50Z</time>
      </trkpt>
      <trkpt lat="46.65363" lon="12.1801">
        <ele>2004.01</ele>
        <time>2016-02-26T13:31:06Z</time>
      </trkpt>
      <trkpt lat="46.65365" lon="12.17997">
        <ele>2002.56</ele>
        <time>2016-02-26T13:31:25Z</time>
      </trkpt>
      <trkpt lat="46.65367" lon="12.17985">
        <ele>2001.12</ele>
        <time>2016-02-26T13:31:40Z</time>
      </trkpt>
      <trkpt lat="46.6537" lon="12.17966">
        <ele>1998.72</ele>
        <time>2016-02-26T13:31:56Z</time>
      </trkpt>
      <trkpt lat="46.65371" lon="12.17942">
        <ele>1997.28</ele>
        <time>2016-02-26T13:32:14Z</time>
      </trkpt>
      <trkpt lat="46.65375" lon="12.17926">
        <ele>1996.32</ele>
        <time>2016-02-26T13:32:31Z</time>
      </trkpt>
      <trkpt lat="46.65384" lon="12.17913">
        <ele>1996.8</ele>
        <time>2016-02-26T13:32:46Z</time>
      </trkpt>
      <trkpt lat="46.6539" lon="12.17909">
        <ele>1996.32</ele>
        <time>2016-02-26T13:33:00Z</time>
      </trkpt>
      <trkpt lat="46.6539" lon="12.1791">
        <ele>1995.35</ele>
        <time>2016-02-26T13:33:17Z</time>
      </trkpt>
      <trkpt lat="46.65388" lon="12.1791">
        <ele>1994.87</ele>
        <time>2016-02-26T13:33:39Z</time>
      </trkpt>
      <trkpt lat="46.65389" lon="12.17911">
        <ele>1994.87</ele>
        <time>2016-02-26T13:34:13Z</time>
      </trkpt>
      <trkpt lat="46.65387" lon="12.17918">
        <ele>1996.32</ele>
        <time>2016-02-26T13:34:31Z</time>
      </trkpt>
      <trkpt lat="46.6539" lon="12.17926">
        <ele>1996.8</ele>
        <time>2016-02-26T13:34:40Z</time>
      </trkpt>
      <trkpt lat="46.65388" lon="12.17911">
        <ele>1994.87</ele>
        <time>2016-02-26T13:45:41Z</time>
      </trkpt>
      <trkpt lat="46.65372" lon="12.17926">
        <ele>1994.87</ele>
        <time>2016-02-26T13:45:42Z</time>
      </trkpt>
      <trkpt lat="46.65374" lon="12.17932">
        <ele>1994.87</ele>
        <time>2016-02-26T13:46:01Z</time>
      </trkpt>
      <trkpt lat="46.65375" lon="12.17931">
        <ele>1995.83</ele>
        <time>2016-02-26T14:24:54Z</time>
      </trkpt>
      <trkpt lat="46.65392" lon="12.17914">
        <ele>1995.35</ele>
        <time>2016-02-26T14:25:09Z</time>
      </trkpt>
      <trkpt lat="46.6539" lon="12.17913">
        <ele>1994.87</ele>
        <time>2016-02-26T14:25:23Z</time>
      </trkpt>
      <trkpt lat="46.65392" lon="12.1791">
        <ele>1994.39</ele>
        <time>2016-02-26T14:25:36Z</time>
      </trkpt>
      <trkpt lat="46.65396" lon="12.17902">
        <ele>1994.39</ele>
        <time>2016-02-26T14:25:42Z</time>
      </trkpt>
      <trkpt lat="46.65398" lon="12.17895">
        <ele>1993.91</ele>
        <time>2016-02-26T14:25:46Z</time>
      </trkpt>
      <trkpt lat="46.65416" lon="12.17879">
        <ele>1992.47</ele>
        <time>2016-02-26T14:26:05Z</time>
      </trkpt>
      <trkpt lat="46.65435" lon="12.17862">
        <ele>1990.55</ele>
        <time>2016-02-26T14:26:25Z</time>
      </trkpt>
      <trkpt lat="46.65454" lon="12.17841">
        <ele>1989.59</ele>
        <time>2016-02-26T14:26:45Z</time>
      </trkpt>
      <trkpt lat="46.65468" lon="12.17825">
        <ele>1988.62</ele>
        <time>2016-02-26T14:27:02Z</time>
      </trkpt>
      <trkpt lat="46.65478" lon="12.17811">
        <ele>1987.66</ele>
        <time>2016-02-26T14:27:19Z</time>
      </trkpt>
      <trkpt lat="46.65495" lon="12.17797">
        <ele>1986.7</ele>
        <time>2016-02-26T14:27:39Z</time>
      </trkpt>
      <trkpt lat="46.65503" lon="12.1779">
        <ele>1986.22</ele>
        <time>2016-02-26T14:27:52Z</time>
      </trkpt>
      <trkpt lat="46.65516" lon="12.17783">
        <ele>1984.78</ele>
        <time>2016-02-26T14:28:09Z</time>
      </trkpt>
      <trkpt lat="46.65531" lon="12.17773">
        <ele>1983.82</ele>
        <time>2016-02-26T14:28:26Z</time>
      </trkpt>
      <trkpt lat="46.65543" lon="12.17764">
        <ele>1983.34</ele>
        <time>2016-02-26T14:28:43Z</time>
      </trkpt>
      <trkpt lat="46.65558" lon="12.17755">
        <ele>1982.86</ele>
        <time>2016-02-26T14:29:01Z</time>
      </trkpt>
      <trkpt lat="46.65573" lon="12.17742">
        <ele>1982.38</ele>
        <time>2016-02-26T14:29:19Z</time>
      </trkpt>
      <trkpt lat="46.65587" lon="12.17731">
        <ele>1981.9</ele>
        <time>2016-02-26T14:29:36Z</time>
      </trkpt>
      <trkpt lat="46.65602" lon="12.17718">
        <ele>1981.9</ele>
        <time>2016-02-26T14:29:54Z</time>
      </trkpt>
      <trkpt lat="46.65617" lon="12.177">
        <ele>1981.41</ele>
        <time>2016-02-26T14:30:11Z</time>
      </trkpt>
      <trkpt lat="46.65621" lon="12.17693">
        <ele>1980.93</ele>
        <time>2016-02-26T14:30:22Z</time>
      </trkpt>
      <trkpt lat="46.65631" lon="12.17664">
        <ele>1979.01</ele>
        <time>2016-02-26T14:30:42Z</time>
      </trkpt>
      <trkpt lat="46.65641" lon="12.17629">
        <ele>1977.09</ele>
        <time>2016-02-26T14:31:03Z</time>
      </trkpt>
      <trkpt lat="46.65643" lon="12.176">
        <ele>1975.17</ele>
        <time>2016-02-26T14:31:25Z</time>
      </trkpt>
      <trkpt lat="46.65642" lon="12.17602">
        <ele>1975.65</ele>
        <time>2016-02-26T14:31:42Z</time>
      </trkpt>
      <trkpt lat="46.65643" lon="12.17599">
        <ele>1975.65</ele>
        <time>2016-02-26T14:31:58Z</time>
      </trkpt>
      <trkpt lat="46.65644" lon="12.17603">
        <ele>1975.17</ele>
        <time>2016-02-26T14:32:23Z</time>
      </trkpt>
      <trkpt lat="46.65645" lon="12.17585">
        <ele>1971.8</ele>
        <time>2016-02-26T14:32:31Z</time>
      </trkpt>
      <trkpt lat="46.65648" lon="12.1755">
        <ele>1968.44</ele>
        <time>2016-02-26T14:32:37Z</time>
      </trkpt>
      <trkpt lat="46.65655" lon="12.17518">
        <ele>1965.55</ele>
        <time>2016-02-26T14:32:42Z</time>
      </trkpt>
      <trkpt lat="46.65663" lon="12.17485">
        <ele>1961.71</ele>
        <time>2016-02-26T14:32:49Z</time>
      </trkpt>
      <trkpt lat="46.65664" lon="12.17477">
        <ele>1961.71</ele>
        <time>2016-02-26T14:33:03Z</time>
      </trkpt>
      <trkpt lat="46.65666" lon="12.17483">
        <ele>1961.71</ele>
        <time>2016-02-26T14:33:38Z</time>
      </trkpt>
      <trkpt lat="46.65664" lon="12.17482">
        <ele>1961.71</ele>
        <time>2016-02-26T14:34:19Z</time>
      </trkpt>
      <trkpt lat="46.65666" lon="12.17483">
        <ele>1961.71</ele>
        <time>2016-02-26T14:34:58Z</time>
      </trkpt>
      <trkpt lat="46.65667" lon="12.17481">
        <ele>1962.19</ele>
        <time>2016-02-26T14:35:39Z</time>
      </trkpt>
      <trkpt lat="46.65666" lon="12.1748">
        <ele>1962.19</ele>
        <time>2016-02-26T14:36:17Z</time>
      </trkpt>
      <trkpt lat="46.65666" lon="12.17481">
        <ele>1961.71</ele>
        <time>2016-02-26T14:36:50Z</time>
      </trkpt>
      <trkpt lat="46.65666" lon="12.17478">
        <ele>1961.23</ele>
        <time>2016-02-26T14:37:04Z</time>
      </trkpt>
      <trkpt lat="46.6567" lon="12.17444">
        <ele>1957.86</ele>
        <time>2016-02-26T14:37:11Z</time>
      </trkpt>
      <trkpt lat="46.6568" lon="12.1741">
        <ele>1954.5</ele>
        <time>2016-02-26T14:37:16Z</time>
      </trkpt>
      <trkpt lat="46.65688" lon="12.17373">
        <ele>1951.13</ele>
        <time>2016-02-26T14:37:21Z</time>
      </trkpt>
      <trkpt lat="46.65695" lon="12.17343">
        <ele>1947.29</ele>
        <time>2016-02-26T14:37:25Z</time>
      </trkpt>
      <trkpt lat="46.65705" lon="12.17313">
        <ele>1943.92</ele>
        <time>2016-02-26T14:37:29Z</time>
      </trkpt>
      <trkpt lat="46.65716" lon="12.17285">
        <ele>1941.04</ele>
        <time>2016-02-26T14:37:33Z</time>
      </trkpt>
      <trkpt lat="46.65725" lon="12.17266">
        <ele>1938.16</ele>
        <time>2016-02-26T14:37:36Z</time>
      </trkpt>
      <trkpt lat="46.65729" lon="12.17262">
        <ele>1937.67</ele>
        <time>2016-02-26T14:37:37Z</time>
      </trkpt>
      <trkpt lat="46.65733" lon="12.17258">
        <ele>1936.71</ele>
        <time>2016-02-26T14:37:38Z</time>
      </trkpt>
      <trkpt lat="46.65752" lon="12.17242">
        <ele>1933.83</ele>
        <time>2016-02-26T14:37:42Z</time>
      </trkpt>
      <trkpt lat="46.65774" lon="12.17215">
        <ele>1929.98</ele>
        <time>2016-02-26T14:37:47Z</time>
      </trkpt>
      <trkpt lat="46.65792" lon="12.17181">
        <ele>1927.1</ele>
        <time>2016-02-26T14:37:52Z</time>
      </trkpt>
      <trkpt lat="46.65806" lon="12.17143">
        <ele>1923.74</ele>
        <time>2016-02-26T14:37:57Z</time>
      </trkpt>
      <trkpt lat="46.65819" lon="12.17109">
        <ele>1920.37</ele>
        <time>2016-02-26T14:38:02Z</time>
      </trkpt>
      <trkpt lat="46.65821" lon="12.17103">
        <ele>1919.89</ele>
        <time>2016-02-26T14:38:03Z</time>
      </trkpt>
      <trkpt lat="46.65823" lon="12.17099">
        <ele>1919.41</ele>
        <time>2016-02-26T14:38:04Z</time>
      </trkpt>
      <trkpt lat="46.65824" lon="12.17096">
        <ele>1918.93</ele>
        <time>2016-02-26T14:38:05Z</time>
      </trkpt>
      <trkpt lat="46.65828" lon="12.17093">
        <ele>1917.97</ele>
        <time>2016-02-26T14:38:06Z</time>
      </trkpt>
      <trkpt lat="46.65832" lon="12.17091">
        <ele>1917.01</ele>
        <time>2016-02-26T14:38:07Z</time>
      </trkpt>
      <trkpt lat="46.65836" lon="12.1709">
        <ele>1916.04</ele>
        <time>2016-02-26T14:38:08Z</time>
      </trkpt>
      <trkpt lat="46.65841" lon="12.17089">
        <ele>1915.08</ele>
        <time>2016-02-26T14:38:09Z</time>
      </trkpt>
      <trkpt lat="46.65846" lon="12.17089">
        <ele>1914.12</ele>
        <time>2016-02-26T14:38:10Z</time>
      </trkpt>
      <trkpt lat="46.65851" lon="12.1709">
        <ele>1913.16</ele>
        <time>2016-02-26T14:38:11Z</time>
      </trkpt>
      <trkpt lat="46.65856" lon="12.17092">
        <ele>1912.68</ele>
        <time>2016-02-26T14:38:12Z</time>
      </trkpt>
      <trkpt lat="46.65879" lon="12.17101">
        <ele>1908.83</ele>
        <time>2016-02-26T14:38:16Z</time>
      </trkpt>
      <trkpt lat="46.65901" lon="12.17104">
        <ele>1904.99</ele>
        <time>2016-02-26T14:38:20Z</time>
      </trkpt>
      <trkpt lat="46.65923" lon="12.17107">
        <ele>1901.14</ele>
        <time>2016-02-26T14:38:24Z</time>
      </trkpt>
      <trkpt lat="46.65948" lon="12.17111">
        <ele>1897.78</ele>
        <time>2016-02-26T14:38:28Z</time>
      </trkpt>
      <trkpt lat="46.65975" lon="12.1712">
        <ele>1894.42</ele>
        <time>2016-02-26T14:38:32Z</time>
      </trkpt>
      <trkpt lat="46.66002" lon="12.1713">
        <ele>1891.05</ele>
        <time>2016-02-26T14:38:36Z</time>
      </trkpt>
      <trkpt lat="46.66029" lon="12.17135">
        <ele>1887.69</ele>
        <time>2016-02-26T14:38:40Z</time>
      </trkpt>
      <trkpt lat="46.66041" lon="12.17134">
        <ele>1887.69</ele>
        <time>2016-02-26T14:38:42Z</time>
      </trkpt>
      <trkpt lat="46.66047" lon="12.17132">
        <ele>1887.69</ele>
        <time>2016-02-26T14:38:43Z</time>
      </trkpt>
      <trkpt lat="46.66063" lon="12.17125">
        <ele>1886.72</ele>
        <time>2016-02-26T14:38:46Z</time>
      </trkpt>
      <trkpt lat="46.66086" lon="12.17105">
        <ele>1886.24</ele>
        <time>2016-02-26T14:38:50Z</time>
      </trkpt>
      <trkpt lat="46.66091" lon="12.17099">
        <ele>1885.76</ele>
        <time>2016-02-26T14:38:51Z</time>
      </trkpt>
      <trkpt lat="46.66117" lon="12.17056">
        <ele>1884.8</ele>
        <time>2016-02-26T14:38:57Z</time>
      </trkpt>
      <trkpt lat="46.66132" lon="12.17017">
        <ele>1881.92</ele>
        <time>2016-02-26T14:39:02Z</time>
      </trkpt>
      <trkpt lat="46.66139" lon="12.16969">
        <ele>1878.55</ele>
        <time>2016-02-26T14:39:08Z</time>
      </trkpt>
      <trkpt lat="46.66143" lon="12.16964">
        <ele>1877.59</ele>
        <time>2016-02-26T14:39:09Z</time>
      </trkpt>
      <trkpt lat="46.66147" lon="12.16959">
        <ele>1877.59</ele>
        <time>2016-02-26T14:39:10Z</time>
      </trkpt>
      <trkpt lat="46.66162" lon="12.16946">
        <ele>1876.15</ele>
        <time>2016-02-26T14:39:13Z</time>
      </trkpt>
      <trkpt lat="46.66167" lon="12.16943">
        <ele>1875.67</ele>
        <time>2016-02-26T14:39:14Z</time>
      </trkpt>
      <trkpt lat="46.66172" lon="12.16942">
        <ele>1875.19</ele>
        <time>2016-02-26T14:39:15Z</time>
      </trkpt>
      <trkpt lat="46.66177" lon="12.16942">
        <ele>1874.71</ele>
        <time>2016-02-26T14:39:16Z</time>
      </trkpt>
      <trkpt lat="46.66193" lon="12.16947">
        <ele>1872.79</ele>
        <time>2016-02-26T14:39:19Z</time>
      </trkpt>
      <trkpt lat="46.66198" lon="12.16951">
        <ele>1872.3</ele>
        <time>2016-02-26T14:39:20Z</time>
      </trkpt>
      <trkpt lat="46.6622" lon="12.16974">
        <ele>1868.94</ele>
        <time>2016-02-26T14:39:25Z</time>
      </trkpt>
      <trkpt lat="46.66236" lon="12.16987">
        <ele>1866.54</ele>
        <time>2016-02-26T14:39:29Z</time>
      </trkpt>
      <trkpt lat="46.66239" lon="12.16987">
        <ele>1866.06</ele>
        <time>2016-02-26T14:39:30Z</time>
      </trkpt>
      <trkpt lat="46.66243" lon="12.16985">
        <ele>1865.58</ele>
        <time>2016-02-26T14:39:31Z</time>
      </trkpt>
      <trkpt lat="46.66248" lon="12.16983">
        <ele>1865.09</ele>
        <time>2016-02-26T14:39:32Z</time>
      </trkpt>
      <trkpt lat="46.66251" lon="12.16981">
        <ele>1864.61</ele>
        <time>2016-02-26T14:39:33Z</time>
      </trkpt>
      <trkpt lat="46.66254" lon="12.16976">
        <ele>1864.13</ele>
        <time>2016-02-26T14:39:34Z</time>
      </trkpt>
      <trkpt lat="46.66257" lon="12.16972">
        <ele>1863.65</ele>
        <time>2016-02-26T14:39:35Z</time>
      </trkpt>
      <trkpt lat="46.66279" lon="12.16934">
        <ele>1860.29</ele>
        <time>2016-02-26T14:39:43Z</time>
      </trkpt>
      <trkpt lat="46.663" lon="12.16913">
        <ele>1857.89</ele>
        <time>2016-02-26T14:39:49Z</time>
      </trkpt>
      <trkpt lat="46.66303" lon="12.16908">
        <ele>1857.4</ele>
        <time>2016-02-26T14:39:50Z</time>
      </trkpt>
      <trkpt lat="46.66307" lon="12.16902">
        <ele>1857.4</ele>
        <time>2016-02-26T14:39:51Z</time>
      </trkpt>
      <trkpt lat="46.6631" lon="12.16895">
        <ele>1857.4</ele>
        <time>2016-02-26T14:39:52Z</time>
      </trkpt>
      <trkpt lat="46.66313" lon="12.16888">
        <ele>1856.92</ele>
        <time>2016-02-26T14:39:53Z</time>
      </trkpt>
      <trkpt lat="46.66336" lon="12.16841">
        <ele>1854.04</ele>
        <time>2016-02-26T14:40:00Z</time>
      </trkpt>
      <trkpt lat="46.66357" lon="12.16812">
        <ele>1851.16</ele>
        <time>2016-02-26T14:40:05Z</time>
      </trkpt>
      <trkpt lat="46.66406" lon="12.16787">
        <ele>1848.75</ele>
        <time>2016-02-26T14:40:16Z</time>
      </trkpt>
      <trkpt lat="46.66404" lon="12.16785">
        <ele>1848.27</ele>
        <time>2016-02-26T14:40:17Z</time>
      </trkpt>
      <trkpt lat="46.66401" lon="12.16784">
        <ele>1847.79</ele>
        <time>2016-02-26T14:40:18Z</time>
      </trkpt>
      <trkpt lat="46.66399" lon="12.16784">
        <ele>1847.31</ele>
        <time>2016-02-26T14:40:19Z</time>
      </trkpt>
      <trkpt lat="46.66395" lon="12.16784">
        <ele>1847.31</ele>
        <time>2016-02-26T14:40:20Z</time>
      </trkpt>
      <trkpt lat="46.66361" lon="12.16789">
        <ele>1843.95</ele>
        <time>2016-02-26T14:40:26Z</time>
      </trkpt>
      <trkpt lat="46.66339" lon="12.16792">
        <ele>1842.02</ele>
        <time>2016-02-26T14:40:29Z</time>
      </trkpt>
      <trkpt lat="46.66333" lon="12.1679">
        <ele>1842.02</ele>
        <time>2016-02-26T14:40:30Z</time>
      </trkpt>
      <trkpt lat="46.66327" lon="12.16788">
        <ele>1841.54</ele>
        <time>2016-02-26T14:40:31Z</time>
      </trkpt>
      <trkpt lat="46.66321" lon="12.16784">
        <ele>1841.06</ele>
        <time>2016-02-26T14:40:32Z</time>
      </trkpt>
      <trkpt lat="46.66316" lon="12.16779">
        <ele>1840.58</ele>
        <time>2016-02-26T14:40:33Z</time>
      </trkpt>
      <trkpt lat="46.66311" lon="12.16773">
        <ele>1840.1</ele>
        <time>2016-02-26T14:40:34Z</time>
      </trkpt>
      <trkpt lat="46.66307" lon="12.16767">
        <ele>1839.62</ele>
        <time>2016-02-26T14:40:35Z</time>
      </trkpt>
      <trkpt lat="46.66303" lon="12.1676">
        <ele>1839.62</ele>
        <time>2016-02-26T14:40:36Z</time>
      </trkpt>
      <trkpt lat="46.66299" lon="12.16753">
        <ele>1839.14</ele>
        <time>2016-02-26T14:40:37Z</time>
      </trkpt>
      <trkpt lat="46.66284" lon="12.16728">
        <ele>1837.22</ele>
        <time>2016-02-26T14:40:41Z</time>
      </trkpt>
      <trkpt lat="46.6628" lon="12.16725">
        <ele>1836.74</ele>
        <time>2016-02-26T14:40:42Z</time>
      </trkpt>
      <trkpt lat="46.66276" lon="12.16722">
        <ele>1836.74</ele>
        <time>2016-02-26T14:40:43Z</time>
      </trkpt>
      <trkpt lat="46.66272" lon="12.16722">
        <ele>1836.26</ele>
        <time>2016-02-26T14:40:44Z</time>
      </trkpt>
      <trkpt lat="46.66268" lon="12.16722">
        <ele>1835.77</ele>
        <time>2016-02-26T14:40:45Z</time>
      </trkpt>
      <trkpt lat="46.66263" lon="12.16724">
        <ele>1834.81</ele>
        <time>2016-02-26T14:40:46Z</time>
      </trkpt>
      <trkpt lat="46.66259" lon="12.16726">
        <ele>1834.81</ele>
        <time>2016-02-26T14:40:47Z</time>
      </trkpt>
      <trkpt lat="46.66256" lon="12.1673">
        <ele>1833.85</ele>
        <time>2016-02-26T14:40:48Z</time>
      </trkpt>
      <trkpt lat="46.66251" lon="12.16733">
        <ele>1833.37</ele>
        <time>2016-02-26T14:40:49Z</time>
      </trkpt>
      <trkpt lat="46.66245" lon="12.16735">
        <ele>1832.89</ele>
        <time>2016-02-26T14:40:50Z</time>
      </trkpt>
      <trkpt lat="46.66239" lon="12.16737">
        <ele>1832.41</ele>
        <time>2016-02-26T14:40:51Z</time>
      </trkpt>
      <trkpt lat="46.66233" lon="12.16738">
        <ele>1831.45</ele>
        <time>2016-02-26T14:40:52Z</time>
      </trkpt>
      <trkpt lat="46.6622" lon="12.16738">
        <ele>1830.97</ele>
        <time>2016-02-26T14:40:54Z</time>
      </trkpt>
      <trkpt lat="46.66193" lon="12.16737">
        <ele>1827.6</ele>
        <time>2016-02-26T14:40:58Z</time>
      </trkpt>
      <trkpt lat="46.66187" lon="12.16738">
        <ele>1827.6</ele>
        <time>2016-02-26T14:40:59Z</time>
      </trkpt>
      <trkpt lat="46.66169" lon="12.16743">
        <ele>1825.2</ele>
        <time>2016-02-26T14:41:02Z</time>
      </trkpt>
      <trkpt lat="46.66165" lon="12.16747">
        <ele>1824.72</ele>
        <time>2016-02-26T14:41:03Z</time>
      </trkpt>
      <trkpt lat="46.6616" lon="12.16751">
        <ele>1823.76</ele>
        <time>2016-02-26T14:41:04Z</time>
      </trkpt>
      <trkpt lat="46.66138" lon="12.16775">
        <ele>1820.87</ele>
        <time>2016-02-26T14:41:09Z</time>
      </trkpt>
      <trkpt lat="46.66108" lon="12.16788">
        <ele>1817.51</ele>
        <time>2016-02-26T14:41:15Z</time>
      </trkpt>
      <trkpt lat="46.66096" lon="12.16789">
        <ele>1816.55</ele>
        <time>2016-02-26T14:41:17Z</time>
      </trkpt>
      <trkpt lat="46.6609" lon="12.16788">
        <ele>1816.07</ele>
        <time>2016-02-26T14:41:18Z</time>
      </trkpt>
      <trkpt lat="46.66027" lon="12.16789">
        <ele>1812.7</ele>
        <time>2016-02-26T14:41:26Z</time>
      </trkpt>
      <trkpt lat="46.65999" lon="12.16805">
        <ele>1810.78</ele>
        <time>2016-02-26T14:41:30Z</time>
      </trkpt>
      <trkpt lat="46.65968" lon="12.16822">
        <ele>1809.34</ele>
        <time>2016-02-26T14:41:35Z</time>
      </trkpt>
      <trkpt lat="46.65963" lon="12.16821">
        <ele>1808.86</ele>
        <time>2016-02-26T14:41:36Z</time>
      </trkpt>
      <trkpt lat="46.65959" lon="12.16819">
        <ele>1808.86</ele>
        <time>2016-02-26T14:41:37Z</time>
      </trkpt>
      <trkpt lat="46.65955" lon="12.16817">
        <ele>1808.38</ele>
        <time>2016-02-26T14:41:38Z</time>
      </trkpt>
      <trkpt lat="46.65951" lon="12.16813">
        <ele>1808.38</ele>
        <time>2016-02-26T14:41:39Z</time>
      </trkpt>
      <trkpt lat="46.65949" lon="12.16809">
        <ele>1807.9</ele>
        <time>2016-02-26T14:41:40Z</time>
      </trkpt>
      <trkpt lat="46.65948" lon="12.16804">
        <ele>1807.42</ele>
        <time>2016-02-26T14:41:41Z</time>
      </trkpt>
      <trkpt lat="46.65947" lon="12.168">
        <ele>1806.94</ele>
        <time>2016-02-26T14:41:42Z</time>
      </trkpt>
      <trkpt lat="46.65947" lon="12.16796">
        <ele>1806.45</ele>
        <time>2016-02-26T14:41:43Z</time>
      </trkpt>
      <trkpt lat="46.65948" lon="12.16792">
        <ele>1805.49</ele>
        <time>2016-02-26T14:41:44Z</time>
      </trkpt>
      <trkpt lat="46.65949" lon="12.16788">
        <ele>1805.49</ele>
        <time>2016-02-26T14:41:45Z</time>
      </trkpt>
      <trkpt lat="46.65951" lon="12.16782">
        <ele>1805.01</ele>
        <time>2016-02-26T14:41:46Z</time>
      </trkpt>
      <trkpt lat="46.65954" lon="12.16777">
        <ele>1804.53</ele>
        <time>2016-02-26T14:41:47Z</time>
      </trkpt>
      <trkpt lat="46.65957" lon="12.16773">
        <ele>1804.05</ele>
        <time>2016-02-26T14:41:48Z</time>
      </trkpt>
      <trkpt lat="46.65961" lon="12.16769">
        <ele>1803.57</ele>
        <time>2016-02-26T14:41:49Z</time>
      </trkpt>
      <trkpt lat="46.65966" lon="12.16764">
        <ele>1803.57</ele>
        <time>2016-02-26T14:41:50Z</time>
      </trkpt>
      <trkpt lat="46.65971" lon="12.16759">
        <ele>1803.09</ele>
        <time>2016-02-26T14:41:51Z</time>
      </trkpt>
      <trkpt lat="46.65978" lon="12.16753">
        <ele>1802.61</ele>
        <time>2016-02-26T14:41:52Z</time>
      </trkpt>
      <trkpt lat="46.66029" lon="12.16717">
        <ele>1800.21</ele>
        <time>2016-02-26T14:41:58Z</time>
      </trkpt>
      <trkpt lat="46.66035" lon="12.1671">
        <ele>1800.21</ele>
        <time>2016-02-26T14:41:59Z</time>
      </trkpt>
      <trkpt lat="46.66041" lon="12.16703">
        <ele>1800.21</ele>
        <time>2016-02-26T14:42:00Z</time>
      </trkpt>
      <trkpt lat="46.66046" lon="12.16695">
        <ele>1799.73</ele>
        <time>2016-02-26T14:42:01Z</time>
      </trkpt>
      <trkpt lat="46.6605" lon="12.16687">
        <ele>1799.73</ele>
        <time>2016-02-26T14:42:02Z</time>
      </trkpt>
      <trkpt lat="46.66054" lon="12.16678">
        <ele>1799.24</ele>
        <time>2016-02-26T14:42:03Z</time>
      </trkpt>
      <trkpt lat="46.66058" lon="12.16668">
        <ele>1798.76</ele>
        <time>2016-02-26T14:42:04Z</time>
      </trkpt>
      <trkpt lat="46.66072" lon="12.16616">
        <ele>1795.4</ele>
        <time>2016-02-26T14:42:09Z</time>
      </trkpt>
      <trkpt lat="46.66086" lon="12.16568">
        <ele>1792.52</ele>
        <time>2016-02-26T14:42:13Z</time>
      </trkpt>
      <trkpt lat="46.66089" lon="12.16558">
        <ele>1791.55</ele>
        <time>2016-02-26T14:42:14Z</time>
      </trkpt>
      <trkpt lat="46.66094" lon="12.16548">
        <ele>1790.59</ele>
        <time>2016-02-26T14:42:15Z</time>
      </trkpt>
      <trkpt lat="46.66099" lon="12.16538">
        <ele>1789.63</ele>
        <time>2016-02-26T14:42:16Z</time>
      </trkpt>
      <trkpt lat="46.66105" lon="12.1653">
        <ele>1788.67</ele>
        <time>2016-02-26T14:42:17Z</time>
      </trkpt>
      <trkpt lat="46.66111" lon="12.16523">
        <ele>1788.19</ele>
        <time>2016-02-26T14:42:18Z</time>
      </trkpt>
      <trkpt lat="46.66133" lon="12.16503">
        <ele>1785.31</ele>
        <time>2016-02-26T14:42:22Z</time>
      </trkpt>
      <trkpt lat="46.66139" lon="12.165">
        <ele>1784.82</ele>
        <time>2016-02-26T14:42:23Z</time>
      </trkpt>
      <trkpt lat="46.66144" lon="12.16499">
        <ele>1784.34</ele>
        <time>2016-02-26T14:42:24Z</time>
      </trkpt>
      <trkpt lat="46.6615" lon="12.16498">
        <ele>1783.86</ele>
        <time>2016-02-26T14:42:25Z</time>
      </trkpt>
      <trkpt lat="46.66156" lon="12.16498">
        <ele>1783.38</ele>
        <time>2016-02-26T14:42:26Z</time>
      </trkpt>
      <trkpt lat="46.66191" lon="12.16493">
        <ele>1780.5</ele>
        <time>2016-02-26T14:42:33Z</time>
      </trkpt>
      <trkpt lat="46.66196" lon="12.16493">
        <ele>1780.02</ele>
        <time>2016-02-26T14:42:34Z</time>
      </trkpt>
      <trkpt lat="46.66201" lon="12.16495">
        <ele>1780.02</ele>
        <time>2016-02-26T14:42:35Z</time>
      </trkpt>
      <trkpt lat="46.66206" lon="12.16498">
        <ele>1779.54</ele>
        <time>2016-02-26T14:42:36Z</time>
      </trkpt>
      <trkpt lat="46.6621" lon="12.16502">
        <ele>1779.06</ele>
        <time>2016-02-26T14:42:37Z</time>
      </trkpt>
      <trkpt lat="46.66215" lon="12.16507">
        <ele>1779.06</ele>
        <time>2016-02-26T14:42:38Z</time>
      </trkpt>
      <trkpt lat="46.66218" lon="12.16512">
        <ele>1778.58</ele>
        <time>2016-02-26T14:42:39Z</time>
      </trkpt>
      <trkpt lat="46.66229" lon="12.16524">
        <ele>1777.13</ele>
        <time>2016-02-26T14:42:42Z</time>
      </trkpt>
      <trkpt lat="46.66234" lon="12.16527">
        <ele>1777.13</ele>
        <time>2016-02-26T14:42:43Z</time>
      </trkpt>
      <trkpt lat="46.66238" lon="12.16528">
        <ele>1776.65</ele>
        <time>2016-02-26T14:42:44Z</time>
      </trkpt>
      <trkpt lat="46.66243" lon="12.16528">
        <ele>1776.17</ele>
        <time>2016-02-26T14:42:45Z</time>
      </trkpt>
      <trkpt lat="46.66247" lon="12.16527">
        <ele>1776.17</ele>
        <time>2016-02-26T14:42:46Z</time>
      </trkpt>
      <trkpt lat="46.66251" lon="12.16524">
        <ele>1775.69</ele>
        <time>2016-02-26T14:42:47Z</time>
      </trkpt>
      <trkpt lat="46.66254" lon="12.16521">
        <ele>1775.21</ele>
        <time>2016-02-26T14:42:48Z</time>
      </trkpt>
      <trkpt lat="46.66257" lon="12.16517">
        <ele>1775.21</ele>
        <time>2016-02-26T14:42:49Z</time>
      </trkpt>
      <trkpt lat="46.66279" lon="12.16496">
        <ele>1772.33</ele>
        <time>2016-02-26T14:42:55Z</time>
      </trkpt>
      <trkpt lat="46.66309" lon="12.16478">
        <ele>1768.96</ele>
        <time>2016-02-26T14:43:00Z</time>
      </trkpt>
      <trkpt lat="46.66346" lon="12.16442">
        <ele>1765.6</ele>
        <time>2016-02-26T14:43:06Z</time>
      </trkpt>
      <trkpt lat="46.66351" lon="12.16436">
        <ele>1765.12</ele>
        <time>2016-02-26T14:43:07Z</time>
      </trkpt>
      <trkpt lat="46.66356" lon="12.16429">
        <ele>1764.64</ele>
        <time>2016-02-26T14:43:08Z</time>
      </trkpt>
      <trkpt lat="46.66375" lon="12.16395">
        <ele>1762.71</ele>
        <time>2016-02-26T14:43:13Z</time>
      </trkpt>
      <trkpt lat="46.6638" lon="12.16389">
        <ele>1762.23</ele>
        <time>2016-02-26T14:43:14Z</time>
      </trkpt>
      <trkpt lat="46.66386" lon="12.16384">
        <ele>1761.27</ele>
        <time>2016-02-26T14:43:15Z</time>
      </trkpt>
      <trkpt lat="46.66391" lon="12.1638">
        <ele>1760.79</ele>
        <time>2016-02-26T14:43:16Z</time>
      </trkpt>
      <trkpt lat="46.66397" lon="12.16377">
        <ele>1760.31</ele>
        <time>2016-02-26T14:43:17Z</time>
      </trkpt>
      <trkpt lat="46.66402" lon="12.16374">
        <ele>1759.83</ele>
        <time>2016-02-26T14:43:18Z</time>
      </trkpt>
      <trkpt lat="46.66424" lon="12.16368">
        <ele>1757.91</ele>
        <time>2016-02-26T14:43:22Z</time>
      </trkpt>
      <trkpt lat="46.66429" lon="12.16368">
        <ele>1757.43</ele>
        <time>2016-02-26T14:43:23Z</time>
      </trkpt>
      <trkpt lat="46.66433" lon="12.16369">
        <ele>1756.95</ele>
        <time>2016-02-26T14:43:24Z</time>
      </trkpt>
      <trkpt lat="46.66437" lon="12.16371">
        <ele>1756.47</ele>
        <time>2016-02-26T14:43:25Z</time>
      </trkpt>
      <trkpt lat="46.66442" lon="12.16373">
        <ele>1755.99</ele>
        <time>2016-02-26T14:43:26Z</time>
      </trkpt>
      <trkpt lat="46.66488" lon="12.16377">
        <ele>1752.62</ele>
        <time>2016-02-26T14:43:36Z</time>
      </trkpt>
      <trkpt lat="46.66506" lon="12.16367">
        <ele>1750.7</ele>
        <time>2016-02-26T14:43:40Z</time>
      </trkpt>
      <trkpt lat="46.66518" lon="12.16362">
        <ele>1749.74</ele>
        <time>2016-02-26T14:43:42Z</time>
      </trkpt>
      <trkpt lat="46.66528" lon="12.16361">
        <ele>1748.78</ele>
        <time>2016-02-26T14:43:44Z</time>
      </trkpt>
      <trkpt lat="46.66534" lon="12.16362">
        <ele>1747.81</ele>
        <time>2016-02-26T14:43:45Z</time>
      </trkpt>
      <trkpt lat="46.66539" lon="12.16365">
        <ele>1747.81</ele>
        <time>2016-02-26T14:43:46Z</time>
      </trkpt>
      <trkpt lat="46.66544" lon="12.1637">
        <ele>1746.85</ele>
        <time>2016-02-26T14:43:47Z</time>
      </trkpt>
      <trkpt lat="46.66549" lon="12.16375">
        <ele>1746.37</ele>
        <time>2016-02-26T14:43:48Z</time>
      </trkpt>
      <trkpt lat="46.66552" lon="12.1638">
        <ele>1745.89</ele>
        <time>2016-02-26T14:43:49Z</time>
      </trkpt>
      <trkpt lat="46.6657" lon="12.16402">
        <ele>1743.97</ele>
        <time>2016-02-26T14:43:53Z</time>
      </trkpt>
      <trkpt lat="46.66576" lon="12.16406">
        <ele>1743.01</ele>
        <time>2016-02-26T14:43:54Z</time>
      </trkpt>
      <trkpt lat="46.66582" lon="12.16408">
        <ele>1742.53</ele>
        <time>2016-02-26T14:43:55Z</time>
      </trkpt>
      <trkpt lat="46.66617" lon="12.16421">
        <ele>1739.16</ele>
        <time>2016-02-26T14:44:01Z</time>
      </trkpt>
      <trkpt lat="46.6664" lon="12.16434">
        <ele>1736.28</ele>
        <time>2016-02-26T14:44:05Z</time>
      </trkpt>
      <trkpt lat="46.66668" lon="12.16444">
        <ele>1732.91</ele>
        <time>2016-02-26T14:44:10Z</time>
      </trkpt>
      <trkpt lat="46.66687" lon="12.16446">
        <ele>1730.99</ele>
        <time>2016-02-26T14:44:13Z</time>
      </trkpt>
      <trkpt lat="46.66697" lon="12.16446">
        <ele>1729.55</ele>
        <time>2016-02-26T14:44:15Z</time>
      </trkpt>
      <trkpt lat="46.66702" lon="12.16443">
        <ele>1729.07</ele>
        <time>2016-02-26T14:44:16Z</time>
      </trkpt>
      <trkpt lat="46.66705" lon="12.16437">
        <ele>1728.59</ele>
        <time>2016-02-26T14:44:17Z</time>
      </trkpt>
      <trkpt lat="46.66709" lon="12.1643">
        <ele>1728.11</ele>
        <time>2016-02-26T14:44:18Z</time>
      </trkpt>
      <trkpt lat="46.66713" lon="12.16423">
        <ele>1727.63</ele>
        <time>2016-02-26T14:44:19Z</time>
      </trkpt>
      <trkpt lat="46.66736" lon="12.16384">
        <ele>1724.26</ele>
        <time>2016-02-26T14:44:24Z</time>
      </trkpt>
      <trkpt lat="46.66764" lon="12.16355">
        <ele>1720.9</ele>
        <time>2016-02-26T14:44:29Z</time>
      </trkpt>
      <trkpt lat="46.66796" lon="12.16321">
        <ele>1718.49</ele>
        <time>2016-02-26T14:44:35Z</time>
      </trkpt>
      <trkpt lat="46.66799" lon="12.16315">
        <ele>1718.01</ele>
        <time>2016-02-26T14:44:36Z</time>
      </trkpt>
      <trkpt lat="46.66801" lon="12.16308">
        <ele>1718.01</ele>
        <time>2016-02-26T14:44:37Z</time>
      </trkpt>
      <trkpt lat="46.66803" lon="12.16301">
        <ele>1717.53</ele>
        <time>2016-02-26T14:44:38Z</time>
      </trkpt>
      <trkpt lat="46.66804" lon="12.16295">
        <ele>1717.53</ele>
        <time>2016-02-26T14:44:39Z</time>
      </trkpt>
      <trkpt lat="46.668" lon="12.1629">
        <ele>1716.57</ele>
        <time>2016-02-26T14:44:43Z</time>
      </trkpt>
      <trkpt lat="46.66798" lon="12.16292">
        <ele>1716.09</ele>
        <time>2016-02-26T14:44:44Z</time>
      </trkpt>
      <trkpt lat="46.66764" lon="12.1633">
        <ele>1712.25</ele>
        <time>2016-02-26T14:44:53Z</time>
      </trkpt>
      <trkpt lat="46.66733" lon="12.16355">
        <ele>1710.8</ele>
        <time>2016-02-26T14:44:58Z</time>
      </trkpt>
      <trkpt lat="46.66727" lon="12.16357">
        <ele>1709.84</ele>
        <time>2016-02-26T14:44:59Z</time>
      </trkpt>
      <trkpt lat="46.66722" lon="12.16356">
        <ele>1709.36</ele>
        <time>2016-02-26T14:45:00Z</time>
      </trkpt>
      <trkpt lat="46.66717" lon="12.16353">
        <ele>1708.88</ele>
        <time>2016-02-26T14:45:01Z</time>
      </trkpt>
      <trkpt lat="46.66712" lon="12.16351">
        <ele>1708.4</ele>
        <time>2016-02-26T14:45:02Z</time>
      </trkpt>
      <trkpt lat="46.66701" lon="12.16345">
        <ele>1707.44</ele>
        <time>2016-02-26T14:45:04Z</time>
      </trkpt>
      <trkpt lat="46.66696" lon="12.16341">
        <ele>1706.96</ele>
        <time>2016-02-26T14:45:05Z</time>
      </trkpt>
      <trkpt lat="46.66691" lon="12.16335">
        <ele>1706</ele>
        <time>2016-02-26T14:45:06Z</time>
      </trkpt>
      <trkpt lat="46.66687" lon="12.16329">
        <ele>1705.52</ele>
        <time>2016-02-26T14:45:07Z</time>
      </trkpt>
      <trkpt lat="46.66684" lon="12.16322">
        <ele>1705.04</ele>
        <time>2016-02-26T14:45:08Z</time>
      </trkpt>
      <trkpt lat="46.66682" lon="12.16316">
        <ele>1704.55</ele>
        <time>2016-02-26T14:45:09Z</time>
      </trkpt>
      <trkpt lat="46.66683" lon="12.16307">
        <ele>1704.07</ele>
        <time>2016-02-26T14:45:10Z</time>
      </trkpt>
      <trkpt lat="46.66685" lon="12.16298">
        <ele>1703.11</ele>
        <time>2016-02-26T14:45:11Z</time>
      </trkpt>
      <trkpt lat="46.66688" lon="12.1629">
        <ele>1702.63</ele>
        <time>2016-02-26T14:45:12Z</time>
      </trkpt>
      <trkpt lat="46.66691" lon="12.16282">
        <ele>1702.15</ele>
        <time>2016-02-26T14:45:13Z</time>
      </trkpt>
      <trkpt lat="46.66694" lon="12.16275">
        <ele>1701.67</ele>
        <time>2016-02-26T14:45:14Z</time>
      </trkpt>
      <trkpt lat="46.66698" lon="12.16268">
        <ele>1701.19</ele>
        <time>2016-02-26T14:45:15Z</time>
      </trkpt>
      <trkpt lat="46.66727" lon="12.16226">
        <ele>1697.83</ele>
        <time>2016-02-26T14:45:21Z</time>
      </trkpt>
      <trkpt lat="46.66755" lon="12.16183">
        <ele>1694.94</ele>
        <time>2016-02-26T14:45:27Z</time>
      </trkpt>
      <trkpt lat="46.66773" lon="12.16144">
        <ele>1692.06</ele>
        <time>2016-02-26T14:45:31Z</time>
      </trkpt>
      <trkpt lat="46.66797" lon="12.16095">
        <ele>1688.21</ele>
        <time>2016-02-26T14:45:36Z</time>
      </trkpt>
      <trkpt lat="46.66822" lon="12.16053">
        <ele>1684.85</ele>
        <time>2016-02-26T14:45:41Z</time>
      </trkpt>
      <trkpt lat="46.66853" lon="12.16021">
        <ele>1681</ele>
        <time>2016-02-26T14:45:46Z</time>
      </trkpt>
      <trkpt lat="46.66885" lon="12.15996">
        <ele>1677.64</ele>
        <time>2016-02-26T14:45:51Z</time>
      </trkpt>
      <trkpt lat="46.66913" lon="12.15968">
        <ele>1674.75</ele>
        <time>2016-02-26T14:45:56Z</time>
      </trkpt>
      <trkpt lat="46.66935" lon="12.15936">
        <ele>1671.39</ele>
        <time>2016-02-26T14:46:01Z</time>
      </trkpt>
      <trkpt lat="46.66945" lon="12.15923">
        <ele>1670.43</ele>
        <time>2016-02-26T14:46:03Z</time>
      </trkpt>
      <trkpt lat="46.66951" lon="12.15918">
        <ele>1669.95</ele>
        <time>2016-02-26T14:46:04Z</time>
      </trkpt>
      <trkpt lat="46.66956" lon="12.15913">
        <ele>1669.47</ele>
        <time>2016-02-26T14:46:05Z</time>
      </trkpt>
      <trkpt lat="46.66962" lon="12.1591">
        <ele>1668.51</ele>
        <time>2016-02-26T14:46:06Z</time>
      </trkpt>
      <trkpt lat="46.66968" lon="12.15908">
        <ele>1668.02</ele>
        <time>2016-02-26T14:46:07Z</time>
      </trkpt>
      <trkpt lat="46.66974" lon="12.15906">
        <ele>1667.54</ele>
        <time>2016-02-26T14:46:08Z</time>
      </trkpt>
      <trkpt lat="46.66979" lon="12.15905">
        <ele>1667.06</ele>
        <time>2016-02-26T14:46:09Z</time>
      </trkpt>
      <trkpt lat="46.67009" lon="12.15904">
        <ele>1663.22</ele>
        <time>2016-02-26T14:46:14Z</time>
      </trkpt>
      <trkpt lat="46.6704" lon="12.15901">
        <ele>1659.85</ele>
        <time>2016-02-26T14:46:19Z</time>
      </trkpt>
      <trkpt lat="46.67046" lon="12.15898">
        <ele>1658.41</ele>
        <time>2016-02-26T14:46:20Z</time>
      </trkpt>
      <trkpt lat="46.67052" lon="12.15892">
        <ele>1657.45</ele>
        <time>2016-02-26T14:46:21Z</time>
      </trkpt>
      <trkpt lat="46.67058" lon="12.15885">
        <ele>1656.97</ele>
        <time>2016-02-26T14:46:22Z</time>
      </trkpt>
      <trkpt lat="46.67063" lon="12.15877">
        <ele>1656.01</ele>
        <time>2016-02-26T14:46:23Z</time>
      </trkpt>
      <trkpt lat="46.67069" lon="12.15869">
        <ele>1655.53</ele>
        <time>2016-02-26T14:46:24Z</time>
      </trkpt>
      <trkpt lat="46.67105" lon="12.15834">
        <ele>1651.68</ele>
        <time>2016-02-26T14:46:29Z</time>
      </trkpt>
      <trkpt lat="46.67113" lon="12.15829">
        <ele>1651.2</ele>
        <time>2016-02-26T14:46:30Z</time>
      </trkpt>
      <trkpt lat="46.6712" lon="12.15826">
        <ele>1650.72</ele>
        <time>2016-02-26T14:46:31Z</time>
      </trkpt>
      <trkpt lat="46.67152" lon="12.15817">
        <ele>1647.36</ele>
        <time>2016-02-26T14:46:35Z</time>
      </trkpt>
      <trkpt lat="46.67192" lon="12.15806">
        <ele>1643.99</ele>
        <time>2016-02-26T14:46:40Z</time>
      </trkpt>
      <trkpt lat="46.67226" lon="12.15788">
        <ele>1640.63</ele>
        <time>2016-02-26T14:46:45Z</time>
      </trkpt>
      <trkpt lat="46.67254" lon="12.15764">
        <ele>1637.26</ele>
        <time>2016-02-26T14:46:50Z</time>
      </trkpt>
      <trkpt lat="46.67265" lon="12.1576">
        <ele>1636.3</ele>
        <time>2016-02-26T14:46:52Z</time>
      </trkpt>
      <trkpt lat="46.6727" lon="12.15759">
        <ele>1635.82</ele>
        <time>2016-02-26T14:46:53Z</time>
      </trkpt>
      <trkpt lat="46.67276" lon="12.15759">
        <ele>1635.34</ele>
        <time>2016-02-26T14:46:54Z</time>
      </trkpt>
      <trkpt lat="46.67304" lon="12.15761">
        <ele>1633.9</ele>
        <time>2016-02-26T14:46:59Z</time>
      </trkpt>
      <trkpt lat="46.67308" lon="12.15758">
        <ele>1633.42</ele>
        <time>2016-02-26T14:47:00Z</time>
      </trkpt>
      <trkpt lat="46.67313" lon="12.15756">
        <ele>1632.94</ele>
        <time>2016-02-26T14:47:01Z</time>
      </trkpt>
      <trkpt lat="46.67316" lon="12.15752">
        <ele>1632.46</ele>
        <time>2016-02-26T14:47:02Z</time>
      </trkpt>
      <trkpt lat="46.67319" lon="12.15745">
        <ele>1632.46</ele>
        <time>2016-02-26T14:47:03Z</time>
      </trkpt>
      <trkpt lat="46.6732" lon="12.15738">
        <ele>1631.98</ele>
        <time>2016-02-26T14:47:04Z</time>
      </trkpt>
      <trkpt lat="46.67321" lon="12.1573">
        <ele>1631.98</ele>
        <time>2016-02-26T14:47:05Z</time>
      </trkpt>
      <trkpt lat="46.67321" lon="12.15723">
        <ele>1631.49</ele>
        <time>2016-02-26T14:47:06Z</time>
      </trkpt>
      <trkpt lat="46.6732" lon="12.15717">
        <ele>1631.01</ele>
        <time>2016-02-26T14:47:07Z</time>
      </trkpt>
      <trkpt lat="46.6732" lon="12.15711">
        <ele>1631.01</ele>
        <time>2016-02-26T14:47:08Z</time>
      </trkpt>
      <trkpt lat="46.67318" lon="12.15706">
        <ele>1630.05</ele>
        <time>2016-02-26T14:47:09Z</time>
      </trkpt>
      <trkpt lat="46.67315" lon="12.15703">
        <ele>1630.05</ele>
        <time>2016-02-26T14:47:10Z</time>
      </trkpt>
      <trkpt lat="46.67311" lon="12.15701">
        <ele>1629.57</ele>
        <time>2016-02-26T14:47:11Z</time>
      </trkpt>
      <trkpt lat="46.67307" lon="12.15697">
        <ele>1629.09</ele>
        <time>2016-02-26T14:47:12Z</time>
      </trkpt>
      <trkpt lat="46.67303" lon="12.15694">
        <ele>1628.13</ele>
        <time>2016-02-26T14:47:13Z</time>
      </trkpt>
      <trkpt lat="46.67268" lon="12.15671">
        <ele>1624.28</ele>
        <time>2016-02-26T14:47:19Z</time>
      </trkpt>
      <trkpt lat="46.67236" lon="12.15654">
        <ele>1620.92</ele>
        <time>2016-02-26T14:47:23Z</time>
      </trkpt>
      <trkpt lat="46.67196" lon="12.15629">
        <ele>1617.56</ele>
        <time>2016-02-26T14:47:27Z</time>
      </trkpt>
      <trkpt lat="46.67158" lon="12.15604">
        <ele>1614.67</ele>
        <time>2016-02-26T14:47:31Z</time>
      </trkpt>
      <trkpt lat="46.67124" lon="12.15587">
        <ele>1611.79</ele>
        <time>2016-02-26T14:47:35Z</time>
      </trkpt>
      <trkpt lat="46.67116" lon="12.15584">
        <ele>1611.31</ele>
        <time>2016-02-26T14:47:36Z</time>
      </trkpt>
      <trkpt lat="46.67109" lon="12.15582">
        <ele>1610.83</ele>
        <time>2016-02-26T14:47:37Z</time>
      </trkpt>
      <trkpt lat="46.67102" lon="12.15582">
        <ele>1610.83</ele>
        <time>2016-02-26T14:47:38Z</time>
      </trkpt>
      <trkpt lat="46.67095" lon="12.15583">
        <ele>1610.35</ele>
        <time>2016-02-26T14:47:39Z</time>
      </trkpt>
      <trkpt lat="46.6709" lon="12.15585">
        <ele>1609.86</ele>
        <time>2016-02-26T14:47:40Z</time>
      </trkpt>
      <trkpt lat="46.67084" lon="12.15586">
        <ele>1609.86</ele>
        <time>2016-02-26T14:47:41Z</time>
      </trkpt>
      <trkpt lat="46.67078" lon="12.15586">
        <ele>1609.86</ele>
        <time>2016-02-26T14:47:42Z</time>
      </trkpt>
      <trkpt lat="46.67073" lon="12.15584">
        <ele>1609.86</ele>
        <time>2016-02-26T14:47:43Z</time>
      </trkpt>
      <trkpt lat="46.67069" lon="12.15581">
        <ele>1609.86</ele>
        <time>2016-02-26T14:47:44Z</time>
      </trkpt>
      <trkpt lat="46.67065" lon="12.15577">
        <ele>1609.38</ele>
        <time>2016-02-26T14:47:45Z</time>
      </trkpt>
      <trkpt lat="46.67063" lon="12.15573">
        <ele>1609.38</ele>
        <time>2016-02-26T14:47:46Z</time>
      </trkpt>
      <trkpt lat="46.67063" lon="12.15569">
        <ele>1608.9</ele>
        <time>2016-02-26T14:47:47Z</time>
      </trkpt>
      <trkpt lat="46.67065" lon="12.15565">
        <ele>1608.42</ele>
        <time>2016-02-26T14:47:48Z</time>
      </trkpt>
      <trkpt lat="46.67068" lon="12.15561">
        <ele>1608.42</ele>
        <time>2016-02-26T14:47:49Z</time>
      </trkpt>
      <trkpt lat="46.67073" lon="12.15559">
        <ele>1607.94</ele>
        <time>2016-02-26T14:47:50Z</time>
      </trkpt>
      <trkpt lat="46.67078" lon="12.15558">
        <ele>1607.94</ele>
        <time>2016-02-26T14:47:51Z</time>
      </trkpt>
      <trkpt lat="46.67084" lon="12.15556">
        <ele>1607.46</ele>
        <time>2016-02-26T14:47:52Z</time>
      </trkpt>
      <trkpt lat="46.67143" lon="12.15541">
        <ele>1604.58</ele>
        <time>2016-02-26T14:48:00Z</time>
      </trkpt>
      <trkpt lat="46.67195" lon="12.15521">
        <ele>1601.21</ele>
        <time>2016-02-26T14:48:06Z</time>
      </trkpt>
      <trkpt lat="46.67238" lon="12.15514">
        <ele>1597.85</ele>
        <time>2016-02-26T14:48:11Z</time>
      </trkpt>
      <trkpt lat="46.6727" lon="12.15507">
        <ele>1594.96</ele>
        <time>2016-02-26T14:48:15Z</time>
      </trkpt>
      <trkpt lat="46.673" lon="12.15501">
        <ele>1591.6</ele>
        <time>2016-02-26T14:48:19Z</time>
      </trkpt>
      <trkpt lat="46.67342" lon="12.15487">
        <ele>1588.72</ele>
        <time>2016-02-26T14:48:25Z</time>
      </trkpt>
      <trkpt lat="46.6739" lon="12.1547">
        <ele>1585.35</ele>
        <time>2016-02-26T14:48:31Z</time>
      </trkpt>
      <trkpt lat="46.6743" lon="12.15466">
        <ele>1582.47</ele>
        <time>2016-02-26T14:48:36Z</time>
      </trkpt>
      <trkpt lat="46.67444" lon="12.15466">
        <ele>1581.99</ele>
        <time>2016-02-26T14:48:38Z</time>
      </trkpt>
      <trkpt lat="46.67449" lon="12.15465">
        <ele>1581.51</ele>
        <time>2016-02-26T14:48:39Z</time>
      </trkpt>
      <trkpt lat="46.67452" lon="12.15461">
        <ele>1581.03</ele>
        <time>2016-02-26T14:48:40Z</time>
      </trkpt>
      <trkpt lat="46.67455" lon="12.15456">
        <ele>1580.54</ele>
        <time>2016-02-26T14:48:41Z</time>
      </trkpt>
      <trkpt lat="46.67456" lon="12.1545">
        <ele>1580.54</ele>
        <time>2016-02-26T14:48:42Z</time>
      </trkpt>
      <trkpt lat="46.67456" lon="12.15443">
        <ele>1580.06</ele>
        <time>2016-02-26T14:48:43Z</time>
      </trkpt>
      <trkpt lat="46.67457" lon="12.15435">
        <ele>1579.58</ele>
        <time>2016-02-26T14:48:44Z</time>
      </trkpt>
      <trkpt lat="46.67449" lon="12.15398">
        <ele>1578.14</ele>
        <time>2016-02-26T14:48:51Z</time>
      </trkpt>
      <trkpt lat="46.67441" lon="12.15398">
        <ele>1577.66</ele>
        <time>2016-02-26T14:48:52Z</time>
      </trkpt>
      <trkpt lat="46.67434" lon="12.15398">
        <ele>1577.66</ele>
        <time>2016-02-26T14:48:53Z</time>
      </trkpt>
      <trkpt lat="46.67427" lon="12.15397">
        <ele>1577.18</ele>
        <time>2016-02-26T14:48:54Z</time>
      </trkpt>
      <trkpt lat="46.67422" lon="12.15396">
        <ele>1576.7</ele>
        <time>2016-02-26T14:48:55Z</time>
      </trkpt>
      <trkpt lat="46.67383" lon="12.1537">
        <ele>1572.85</ele>
        <time>2016-02-26T14:49:02Z</time>
      </trkpt>
      <trkpt lat="46.67345" lon="12.15343">
        <ele>1569.01</ele>
        <time>2016-02-26T14:49:08Z</time>
      </trkpt>
      <trkpt lat="46.67312" lon="12.15307">
        <ele>1565.64</ele>
        <time>2016-02-26T14:49:13Z</time>
      </trkpt>
      <trkpt lat="46.67285" lon="12.15266">
        <ele>1562.76</ele>
        <time>2016-02-26T14:49:18Z</time>
      </trkpt>
      <trkpt lat="46.67262" lon="12.15227">
        <ele>1559.4</ele>
        <time>2016-02-26T14:49:23Z</time>
      </trkpt>
      <trkpt lat="46.67241" lon="12.1519">
        <ele>1556.51</ele>
        <time>2016-02-26T14:49:28Z</time>
      </trkpt>
      <trkpt lat="46.67221" lon="12.15165">
        <ele>1554.59</ele>
        <time>2016-02-26T14:49:33Z</time>
      </trkpt>
      <trkpt lat="46.67215" lon="12.15162">
        <ele>1553.63</ele>
        <time>2016-02-26T14:49:34Z</time>
      </trkpt>
      <trkpt lat="46.67167" lon="12.15132">
        <ele>1550.74</ele>
        <time>2016-02-26T14:49:41Z</time>
      </trkpt>
      <trkpt lat="46.67129" lon="12.15089">
        <ele>1546.9</ele>
        <time>2016-02-26T14:49:47Z</time>
      </trkpt>
      <trkpt lat="46.67105" lon="12.15048">
        <ele>1544.01</ele>
        <time>2016-02-26T14:49:53Z</time>
      </trkpt>
      <trkpt lat="46.67101" lon="12.15036">
        <ele>1542.57</ele>
        <time>2016-02-26T14:49:55Z</time>
      </trkpt>
      <trkpt lat="46.67098" lon="12.15021">
        <ele>1541.13</ele>
        <time>2016-02-26T14:49:58Z</time>
      </trkpt>
      <trkpt lat="46.67101" lon="12.15011">
        <ele>1540.65</ele>
        <time>2016-02-26T14:50:00Z</time>
      </trkpt>
      <trkpt lat="46.67108" lon="12.15005">
        <ele>1540.17</ele>
        <time>2016-02-26T14:50:01Z</time>
      </trkpt>
      <trkpt lat="46.67116" lon="12.15">
        <ele>1539.69</ele>
        <time>2016-02-26T14:50:02Z</time>
      </trkpt>
      <trkpt lat="46.67124" lon="12.14997">
        <ele>1539.21</ele>
        <time>2016-02-26T14:50:03Z</time>
      </trkpt>
      <trkpt lat="46.67133" lon="12.14995">
        <ele>1538.73</ele>
        <time>2016-02-26T14:50:04Z</time>
      </trkpt>
      <trkpt lat="46.67142" lon="12.14993">
        <ele>1538.25</ele>
        <time>2016-02-26T14:50:05Z</time>
      </trkpt>
      <trkpt lat="46.6715" lon="12.14992">
        <ele>1537.77</ele>
        <time>2016-02-26T14:50:06Z</time>
      </trkpt>
      <trkpt lat="46.67196" lon="12.14985">
        <ele>1534.4</ele>
        <time>2016-02-26T14:50:12Z</time>
      </trkpt>
      <trkpt lat="46.67233" lon="12.14962">
        <ele>1531.52</ele>
        <time>2016-02-26T14:50:17Z</time>
      </trkpt>
      <trkpt lat="46.67261" lon="12.14939">
        <ele>1528.15</ele>
        <time>2016-02-26T14:50:21Z</time>
      </trkpt>
      <trkpt lat="46.67289" lon="12.14916">
        <ele>1525.27</ele>
        <time>2016-02-26T14:50:25Z</time>
      </trkpt>
      <trkpt lat="46.67321" lon="12.14891">
        <ele>1521.9</ele>
        <time>2016-02-26T14:50:29Z</time>
      </trkpt>
      <trkpt lat="46.67361" lon="12.1487">
        <ele>1519.02</ele>
        <time>2016-02-26T14:50:33Z</time>
      </trkpt>
      <trkpt lat="46.67403" lon="12.14857">
        <ele>1515.66</ele>
        <time>2016-02-26T14:50:38Z</time>
      </trkpt>
      <trkpt lat="46.67411" lon="12.14856">
        <ele>1515.18</ele>
        <time>2016-02-26T14:50:39Z</time>
      </trkpt>
      <trkpt lat="46.67469" lon="12.14845">
        <ele>1511.33</ele>
        <time>2016-02-26T14:50:46Z</time>
      </trkpt>
      <trkpt lat="46.67523" lon="12.14834">
        <ele>1508.45</ele>
        <time>2016-02-26T14:50:52Z</time>
      </trkpt>
      <trkpt lat="46.67548" lon="12.1483">
        <ele>1507</ele>
        <time>2016-02-26T14:50:55Z</time>
      </trkpt>
      <trkpt lat="46.6763" lon="12.14823">
        <ele>1503.64</ele>
        <time>2016-02-26T14:51:05Z</time>
      </trkpt>
      <trkpt lat="46.67654" lon="12.1483">
        <ele>1502.2</ele>
        <time>2016-02-26T14:51:08Z</time>
      </trkpt>
      <trkpt lat="46.67715" lon="12.14852">
        <ele>1499.31</ele>
        <time>2016-02-26T14:51:19Z</time>
      </trkpt>
      <trkpt lat="46.67739" lon="12.14858">
        <ele>1500.27</ele>
        <time>2016-02-26T14:51:31Z</time>
      </trkpt>
      <trkpt lat="46.67715" lon="12.14861">
        <ele>1500.27</ele>
        <time>2016-02-26T14:51:54Z</time>
      </trkpt>
      <trkpt lat="46.67713" lon="12.14863">
        <ele>1499.79</ele>
        <time>2016-02-26T14:51:59Z</time>
      </trkpt>
      <trkpt lat="46.67718" lon="12.14866">
        <ele>1500.76</ele>
        <time>2016-02-26T14:52:10Z</time>
      </trkpt>
      <trkpt lat="46.67721" lon="12.14877">
        <ele>1500.27</ele>
        <time>2016-02-26T14:52:18Z</time>
      </trkpt>
      <trkpt lat="46.67721" lon="12.14879">
        <ele>1499.79</ele>
        <time>2016-02-26T14:52:19Z</time>
      </trkpt>
      <trkpt lat="46.67728" lon="12.149">
        <ele>1499.31</ele>
        <time>2016-02-26T14:52:35Z</time>
      </trkpt>
      <trkpt lat="46.67734" lon="12.14906">
        <ele>1498.83</ele>
        <time>2016-02-26T14:52:49Z</time>
      </trkpt>
    </trkseg>
  </trk>
</gpx>